<?xml version="1.0" encoding="UTF-8" standalone="no" ?>
<gpx xmlns="http://www.topografix.com/GPX/1/1" xmlns:xsi="http://www.w3.org/2001/XMLSchema-instance" xsi:schemaLocation="http://www.topografix.com/GPX/1/1 http://www.topografix.com/GPX/1/1/gpx.xsd" version="1.1" creator="VisuGPX - https://www.visugpx.com">
  <metadata>
    <name>After work St Anne sur Brivet</name>
    <desc><![CDATA[after work]]></desc>
  </metadata>
  <trk>
    <name><![CDATA[Sequence 1]]></name>
    <trkseg>
      <trkpt lat="47.4603" lon="-2.0061">
        <ele>-10</ele>
        <time>2015-04-15T16:27:42Z</time>
      </trkpt>
      <trkpt lat="47.46029" lon="-2.0061">
        <ele>-9</ele>
        <time>2015-04-15T16:27:46Z</time>
      </trkpt>
      <trkpt lat="47.46029" lon="-2.0061">
        <ele>-9</ele>
        <time>2015-04-15T16:27:47Z</time>
      </trkpt>
      <trkpt lat="47.46029" lon="-2.0061">
        <ele>-9</ele>
        <time>2015-04-15T16:27:51Z</time>
      </trkpt>
      <trkpt lat="47.46029" lon="-2.00609">
        <ele>-8</ele>
        <time>2015-04-15T16:27:54Z</time>
      </trkpt>
      <trkpt lat="47.46029" lon="-2.00609">
        <ele>-7</ele>
        <time>2015-04-15T16:27:56Z</time>
      </trkpt>
      <trkpt lat="47.46029" lon="-2.0061">
        <ele>-9</ele>
        <time>2015-04-15T16:27:59Z</time>
      </trkpt>
      <trkpt lat="47.46029" lon="-2.0061">
        <ele>-9</ele>
        <time>2015-04-15T16:28:02Z</time>
      </trkpt>
      <trkpt lat="47.46029" lon="-2.00609">
        <ele>-9</ele>
        <time>2015-04-15T16:28:05Z</time>
      </trkpt>
      <trkpt lat="47.46029" lon="-2.00609">
        <ele>-9</ele>
        <time>2015-04-15T16:28:08Z</time>
      </trkpt>
      <trkpt lat="47.46029" lon="-2.00609">
        <ele>-9</ele>
        <time>2015-04-15T16:28:11Z</time>
      </trkpt>
      <trkpt lat="47.46029" lon="-2.00609">
        <ele>-9</ele>
        <time>2015-04-15T16:28:14Z</time>
      </trkpt>
      <trkpt lat="47.46027" lon="-2.00609">
        <ele>-9</ele>
        <time>2015-04-15T16:28:18Z</time>
      </trkpt>
      <trkpt lat="47.46025" lon="-2.0061">
        <ele>-10</ele>
        <time>2015-04-15T16:28:23Z</time>
      </trkpt>
      <trkpt lat="47.46025" lon="-2.00611">
        <ele>-9</ele>
        <time>2015-04-15T16:28:27Z</time>
      </trkpt>
      <trkpt lat="47.46025" lon="-2.00611">
        <ele>-9</ele>
        <time>2015-04-15T16:28:28Z</time>
      </trkpt>
      <trkpt lat="47.46025" lon="-2.00611">
        <ele>-9</ele>
        <time>2015-04-15T16:28:31Z</time>
      </trkpt>
      <trkpt lat="47.46025" lon="-2.00611">
        <ele>-9</ele>
        <time>2015-04-15T16:28:34Z</time>
      </trkpt>
      <trkpt lat="47.46025" lon="-2.00611">
        <ele>-9</ele>
        <time>2015-04-15T16:28:39Z</time>
      </trkpt>
      <trkpt lat="47.46025" lon="-2.00611">
        <ele>-9</ele>
        <time>2015-04-15T16:28:40Z</time>
      </trkpt>
      <trkpt lat="47.46025" lon="-2.00611">
        <ele>-8</ele>
        <time>2015-04-15T16:28:43Z</time>
      </trkpt>
      <trkpt lat="47.46025" lon="-2.00611">
        <ele>-8</ele>
        <time>2015-04-15T16:28:46Z</time>
      </trkpt>
      <trkpt lat="47.46025" lon="-2.00611">
        <ele>-8</ele>
        <time>2015-04-15T16:28:49Z</time>
      </trkpt>
      <trkpt lat="47.46025" lon="-2.00611">
        <ele>-8</ele>
        <time>2015-04-15T16:28:53Z</time>
      </trkpt>
      <trkpt lat="47.46025" lon="-2.00611">
        <ele>-8</ele>
        <time>2015-04-15T16:28:55Z</time>
      </trkpt>
      <trkpt lat="47.46024" lon="-2.0061">
        <ele>-10</ele>
        <time>2015-04-15T16:28:59Z</time>
      </trkpt>
      <trkpt lat="47.46024" lon="-2.00609">
        <ele>-10</ele>
        <time>2015-04-15T16:29:03Z</time>
      </trkpt>
      <trkpt lat="47.46024" lon="-2.00609">
        <ele>-10</ele>
        <time>2015-04-15T16:29:04Z</time>
      </trkpt>
      <trkpt lat="47.46027" lon="-2.0061">
        <ele>-8</ele>
        <time>2015-04-15T16:29:11Z</time>
      </trkpt>
      <trkpt lat="47.46027" lon="-2.0061">
        <ele>-7</ele>
        <time>2015-04-15T16:29:13Z</time>
      </trkpt>
      <trkpt lat="47.46027" lon="-2.0061">
        <ele>-7</ele>
        <time>2015-04-15T16:29:15Z</time>
      </trkpt>
      <trkpt lat="47.46027" lon="-2.0061">
        <ele>-7</ele>
        <time>2015-04-15T16:29:18Z</time>
      </trkpt>
      <trkpt lat="47.46027" lon="-2.00609">
        <ele>-6</ele>
        <time>2015-04-15T16:29:21Z</time>
      </trkpt>
      <trkpt lat="47.46026" lon="-2.00609">
        <ele>-6</ele>
        <time>2015-04-15T16:29:25Z</time>
      </trkpt>
      <trkpt lat="47.46026" lon="-2.00608">
        <ele>-6</ele>
        <time>2015-04-15T16:29:27Z</time>
      </trkpt>
      <trkpt lat="47.46026" lon="-2.00608">
        <ele>-5</ele>
        <time>2015-04-15T16:29:32Z</time>
      </trkpt>
      <trkpt lat="47.46026" lon="-2.00608">
        <ele>-6</ele>
        <time>2015-04-15T16:29:33Z</time>
      </trkpt>
      <trkpt lat="47.46026" lon="-2.00608">
        <ele>-5</ele>
        <time>2015-04-15T16:29:36Z</time>
      </trkpt>
      <trkpt lat="47.46027" lon="-2.00608">
        <ele>-4</ele>
        <time>2015-04-15T16:29:39Z</time>
      </trkpt>
      <trkpt lat="47.46027" lon="-2.00608">
        <ele>-3</ele>
        <time>2015-04-15T16:29:42Z</time>
      </trkpt>
      <trkpt lat="47.46028" lon="-2.00608">
        <ele>-2</ele>
        <time>2015-04-15T16:29:45Z</time>
      </trkpt>
      <trkpt lat="47.46028" lon="-2.00608">
        <ele>-2</ele>
        <time>2015-04-15T16:29:48Z</time>
      </trkpt>
      <trkpt lat="47.46028" lon="-2.00608">
        <ele>-2</ele>
        <time>2015-04-15T16:29:51Z</time>
      </trkpt>
      <trkpt lat="47.46028" lon="-2.00608">
        <ele>-2</ele>
        <time>2015-04-15T16:29:54Z</time>
      </trkpt>
      <trkpt lat="47.46028" lon="-2.00608">
        <ele>-2</ele>
        <time>2015-04-15T16:29:57Z</time>
      </trkpt>
      <trkpt lat="47.4603" lon="-2.00607">
        <ele>-2</ele>
        <time>2015-04-15T16:30:01Z</time>
      </trkpt>
      <trkpt lat="47.4603" lon="-2.00608">
        <ele>20</ele>
        <time>2015-04-15T16:30:05Z</time>
      </trkpt>
      <trkpt lat="47.46029" lon="-2.00608">
        <ele>1</ele>
        <time>2015-04-15T16:30:08Z</time>
      </trkpt>
      <trkpt lat="47.46029" lon="-2.00608">
        <ele>1</ele>
        <time>2015-04-15T16:30:11Z</time>
      </trkpt>
      <trkpt lat="47.46029" lon="-2.00609">
        <ele>1</ele>
        <time>2015-04-15T16:30:14Z</time>
      </trkpt>
      <trkpt lat="47.46029" lon="-2.00609">
        <ele>1</ele>
        <time>2015-04-15T16:30:17Z</time>
      </trkpt>
      <trkpt lat="47.46029" lon="-2.00609">
        <ele>1</ele>
        <time>2015-04-15T16:30:20Z</time>
      </trkpt>
      <trkpt lat="47.46029" lon="-2.00609">
        <ele>1</ele>
        <time>2015-04-15T16:30:23Z</time>
      </trkpt>
      <trkpt lat="47.46029" lon="-2.00609">
        <ele>1</ele>
        <time>2015-04-15T16:30:28Z</time>
      </trkpt>
      <trkpt lat="47.46029" lon="-2.00609">
        <ele>1</ele>
        <time>2015-04-15T16:30:30Z</time>
      </trkpt>
      <trkpt lat="47.46029" lon="-2.00608">
        <ele>1</ele>
        <time>2015-04-15T16:30:32Z</time>
      </trkpt>
      <trkpt lat="47.46029" lon="-2.00608">
        <ele>20</ele>
        <time>2015-04-15T16:30:35Z</time>
      </trkpt>
      <trkpt lat="47.46029" lon="-2.00608">
        <ele>1</ele>
        <time>2015-04-15T16:30:40Z</time>
      </trkpt>
      <trkpt lat="47.46029" lon="-2.00608">
        <ele>1</ele>
        <time>2015-04-15T16:30:41Z</time>
      </trkpt>
      <trkpt lat="47.46027" lon="-2.00613">
        <ele>2</ele>
        <time>2015-04-15T16:30:45Z</time>
      </trkpt>
      <trkpt lat="47.46032" lon="-2.00621">
        <ele>3</ele>
        <time>2015-04-15T16:30:49Z</time>
      </trkpt>
      <trkpt lat="47.46043" lon="-2.0063">
        <ele>3</ele>
        <time>2015-04-15T16:30:54Z</time>
      </trkpt>
      <trkpt lat="47.46051" lon="-2.00633">
        <ele>4</ele>
        <time>2015-04-15T16:30:59Z</time>
      </trkpt>
      <trkpt lat="47.46066" lon="-2.00633">
        <ele>3</ele>
        <time>2015-04-15T16:31:05Z</time>
      </trkpt>
      <trkpt lat="47.46077" lon="-2.00628">
        <ele>4</ele>
        <time>2015-04-15T16:31:09Z</time>
      </trkpt>
      <trkpt lat="47.46089" lon="-2.00606">
        <ele>3</ele>
        <time>2015-04-15T16:31:14Z</time>
      </trkpt>
      <trkpt lat="47.46098" lon="-2.00573">
        <ele>3</ele>
        <time>2015-04-15T16:31:19Z</time>
      </trkpt>
      <trkpt lat="47.46116" lon="-2.00571">
        <ele>1</ele>
        <time>2015-04-15T16:31:24Z</time>
      </trkpt>
      <trkpt lat="47.46132" lon="-2.00579">
        <ele>1</ele>
        <time>2015-04-15T16:31:29Z</time>
      </trkpt>
      <trkpt lat="47.46143" lon="-2.006">
        <ele>-1</ele>
        <time>2015-04-15T16:31:35Z</time>
      </trkpt>
      <trkpt lat="47.46144" lon="-2.00618">
        <ele>-1</ele>
        <time>2015-04-15T16:31:39Z</time>
      </trkpt>
      <trkpt lat="47.46149" lon="-2.00639">
        <ele>-2</ele>
        <time>2015-04-15T16:31:44Z</time>
      </trkpt>
      <trkpt lat="47.46164" lon="-2.00657">
        <ele>-2</ele>
        <time>2015-04-15T16:31:50Z</time>
      </trkpt>
      <trkpt lat="47.46175" lon="-2.00657">
        <ele>-1</ele>
        <time>2015-04-15T16:31:54Z</time>
      </trkpt>
      <trkpt lat="47.46175" lon="-2.00644">
        <ele>3</ele>
        <time>2015-04-15T16:31:59Z</time>
      </trkpt>
      <trkpt lat="47.46176" lon="-2.00625">
        <ele>1</ele>
        <time>2015-04-15T16:32:05Z</time>
      </trkpt>
      <trkpt lat="47.46187" lon="-2.00609">
        <ele>-5</ele>
        <time>2015-04-15T16:32:10Z</time>
      </trkpt>
      <trkpt lat="47.46199" lon="-2.00603">
        <ele>17.8</ele>
        <time>2015-04-15T16:32:15Z</time>
      </trkpt>
      <trkpt lat="47.46214" lon="-2.00603">
        <ele>2</ele>
        <time>2015-04-15T16:32:19Z</time>
      </trkpt>
      <trkpt lat="47.46229" lon="-2.00611">
        <ele>5</ele>
        <time>2015-04-15T16:32:26Z</time>
      </trkpt>
      <trkpt lat="47.46242" lon="-2.006">
        <ele>5</ele>
        <time>2015-04-15T16:32:32Z</time>
      </trkpt>
      <trkpt lat="47.46251" lon="-2.00607">
        <ele>5</ele>
        <time>2015-04-15T16:32:38Z</time>
      </trkpt>
      <trkpt lat="47.46252" lon="-2.0061">
        <ele>6</ele>
        <time>2015-04-15T16:32:40Z</time>
      </trkpt>
      <trkpt lat="47.46253" lon="-2.00622">
        <ele>9</ele>
        <time>2015-04-15T16:32:44Z</time>
      </trkpt>
      <trkpt lat="47.46261" lon="-2.00654">
        <ele>7</ele>
        <time>2015-04-15T16:32:49Z</time>
      </trkpt>
      <trkpt lat="47.46277" lon="-2.0067">
        <ele>12</ele>
        <time>2015-04-15T16:32:54Z</time>
      </trkpt>
      <trkpt lat="47.46294" lon="-2.00678">
        <ele>15</ele>
        <time>2015-04-15T16:32:59Z</time>
      </trkpt>
      <trkpt lat="47.46297" lon="-2.007">
        <ele>7</ele>
        <time>2015-04-15T16:33:04Z</time>
      </trkpt>
      <trkpt lat="47.4628" lon="-2.00716">
        <ele>3</ele>
        <time>2015-04-15T16:33:10Z</time>
      </trkpt>
      <trkpt lat="47.4628" lon="-2.00724">
        <ele>4</ele>
        <time>2015-04-15T16:33:14Z</time>
      </trkpt>
      <trkpt lat="47.4628" lon="-2.00738">
        <ele>4</ele>
        <time>2015-04-15T16:33:19Z</time>
      </trkpt>
      <trkpt lat="47.46289" lon="-2.00756">
        <ele>6</ele>
        <time>2015-04-15T16:33:24Z</time>
      </trkpt>
      <trkpt lat="47.46301" lon="-2.00757">
        <ele>2</ele>
        <time>2015-04-15T16:33:29Z</time>
      </trkpt>
      <trkpt lat="47.46313" lon="-2.0074">
        <ele>5</ele>
        <time>2015-04-15T16:33:37Z</time>
      </trkpt>
      <trkpt lat="47.46318" lon="-2.00751">
        <ele>5</ele>
        <time>2015-04-15T16:33:42Z</time>
      </trkpt>
      <trkpt lat="47.46322" lon="-2.00753">
        <ele>6</ele>
        <time>2015-04-15T16:33:44Z</time>
      </trkpt>
      <trkpt lat="47.46341" lon="-2.00746">
        <ele>3</ele>
        <time>2015-04-15T16:33:51Z</time>
      </trkpt>
      <trkpt lat="47.46335" lon="-2.00761">
        <ele>7</ele>
        <time>2015-04-15T16:33:58Z</time>
      </trkpt>
      <trkpt lat="47.46341" lon="-2.00768">
        <ele>8</ele>
        <time>2015-04-15T16:34:02Z</time>
      </trkpt>
      <trkpt lat="47.46349" lon="-2.00768">
        <ele>10</ele>
        <time>2015-04-15T16:34:07Z</time>
      </trkpt>
      <trkpt lat="47.46347" lon="-2.00772">
        <ele>8</ele>
        <time>2015-04-15T16:34:09Z</time>
      </trkpt>
      <trkpt lat="47.46348" lon="-2.00786">
        <ele>10</ele>
        <time>2015-04-15T16:34:17Z</time>
      </trkpt>
      <trkpt lat="47.46351" lon="-2.00787">
        <ele>11</ele>
        <time>2015-04-15T16:34:19Z</time>
      </trkpt>
      <trkpt lat="47.46363" lon="-2.00793">
        <ele>13</ele>
        <time>2015-04-15T16:34:24Z</time>
      </trkpt>
      <trkpt lat="47.4638" lon="-2.00802">
        <ele>4</ele>
        <time>2015-04-15T16:34:30Z</time>
      </trkpt>
      <trkpt lat="47.46387" lon="-2.00821">
        <ele>1</ele>
        <time>2015-04-15T16:34:38Z</time>
      </trkpt>
      <trkpt lat="47.46387" lon="-2.00822">
        <ele>1</ele>
        <time>2015-04-15T16:34:39Z</time>
      </trkpt>
      <trkpt lat="47.46387" lon="-2.00823">
        <ele>12.1</ele>
        <time>2015-04-15T16:34:44Z</time>
      </trkpt>
      <trkpt lat="47.46387" lon="-2.00823">
        <ele>12.1</ele>
        <time>2015-04-15T16:34:48Z</time>
      </trkpt>
      <trkpt lat="47.46387" lon="-2.00823">
        <ele>12.1</ele>
        <time>2015-04-15T16:34:50Z</time>
      </trkpt>
      <trkpt lat="47.46387" lon="-2.00823">
        <ele>12.1</ele>
        <time>2015-04-15T16:34:53Z</time>
      </trkpt>
      <trkpt lat="47.46387" lon="-2.00823">
        <ele>12.1</ele>
        <time>2015-04-15T16:34:56Z</time>
      </trkpt>
      <trkpt lat="47.46387" lon="-2.00823">
        <ele>12.1</ele>
        <time>2015-04-15T16:34:59Z</time>
      </trkpt>
      <trkpt lat="47.46387" lon="-2.00823">
        <ele>12.1</ele>
        <time>2015-04-15T16:35:02Z</time>
      </trkpt>
      <trkpt lat="47.46387" lon="-2.00823">
        <ele>12.1</ele>
        <time>2015-04-15T16:35:05Z</time>
      </trkpt>
      <trkpt lat="47.46387" lon="-2.00823">
        <ele>12.1</ele>
        <time>2015-04-15T16:35:08Z</time>
      </trkpt>
      <trkpt lat="47.46387" lon="-2.00825">
        <ele>-1</ele>
        <time>2015-04-15T16:35:11Z</time>
      </trkpt>
      <trkpt lat="47.46386" lon="-2.00826">
        <ele>12.1</ele>
        <time>2015-04-15T16:35:14Z</time>
      </trkpt>
      <trkpt lat="47.46386" lon="-2.00826">
        <ele>12.1</ele>
        <time>2015-04-15T16:35:17Z</time>
      </trkpt>
      <trkpt lat="47.46386" lon="-2.00826">
        <ele>1</ele>
        <time>2015-04-15T16:35:20Z</time>
      </trkpt>
      <trkpt lat="47.46386" lon="-2.00826">
        <ele>1</ele>
        <time>2015-04-15T16:35:24Z</time>
      </trkpt>
      <trkpt lat="47.46386" lon="-2.00826">
        <ele>1</ele>
        <time>2015-04-15T16:35:26Z</time>
      </trkpt>
      <trkpt lat="47.46386" lon="-2.00828">
        <ele>2</ele>
        <time>2015-04-15T16:35:31Z</time>
      </trkpt>
      <trkpt lat="47.46386" lon="-2.0083">
        <ele>3</ele>
        <time>2015-04-15T16:35:32Z</time>
      </trkpt>
      <trkpt lat="47.46387" lon="-2.00873">
        <ele>5</ele>
        <time>2015-04-15T16:35:41Z</time>
      </trkpt>
      <trkpt lat="47.4639" lon="-2.00877">
        <ele>4</ele>
        <time>2015-04-15T16:35:42Z</time>
      </trkpt>
      <trkpt lat="47.46416" lon="-2.00889">
        <ele>6</ele>
        <time>2015-04-15T16:35:47Z</time>
      </trkpt>
      <trkpt lat="47.4644" lon="-2.009">
        <ele>4</ele>
        <time>2015-04-15T16:35:52Z</time>
      </trkpt>
      <trkpt lat="47.46467" lon="-2.0091">
        <ele>3</ele>
        <time>2015-04-15T16:35:57Z</time>
      </trkpt>
      <trkpt lat="47.46507" lon="-2.00919">
        <ele>3</ele>
        <time>2015-04-15T16:36:05Z</time>
      </trkpt>
      <trkpt lat="47.46521" lon="-2.00923">
        <ele>2</ele>
        <time>2015-04-15T16:36:08Z</time>
      </trkpt>
      <trkpt lat="47.46542" lon="-2.00929">
        <ele>8.2</ele>
        <time>2015-04-15T16:36:12Z</time>
      </trkpt>
      <trkpt lat="47.46566" lon="-2.00937">
        <ele>-1</ele>
        <time>2015-04-15T16:36:17Z</time>
      </trkpt>
      <trkpt lat="47.46589" lon="-2.00941">
        <ele>-3</ele>
        <time>2015-04-15T16:36:22Z</time>
      </trkpt>
      <trkpt lat="47.46604" lon="-2.00914">
        <ele>-3</ele>
        <time>2015-04-15T16:36:27Z</time>
      </trkpt>
      <trkpt lat="47.46632" lon="-2.00862">
        <ele>-4</ele>
        <time>2015-04-15T16:36:35Z</time>
      </trkpt>
      <trkpt lat="47.46641" lon="-2.0085">
        <ele>-3</ele>
        <time>2015-04-15T16:36:37Z</time>
      </trkpt>
      <trkpt lat="47.46661" lon="-2.00803">
        <ele>-3</ele>
        <time>2015-04-15T16:36:44Z</time>
      </trkpt>
      <trkpt lat="47.46667" lon="-2.0078">
        <ele>-4</ele>
        <time>2015-04-15T16:36:47Z</time>
      </trkpt>
      <trkpt lat="47.46675" lon="-2.00739">
        <ele>-4</ele>
        <time>2015-04-15T16:36:53Z</time>
      </trkpt>
      <trkpt lat="47.46679" lon="-2.00712">
        <ele>-2</ele>
        <time>2015-04-15T16:36:57Z</time>
      </trkpt>
      <trkpt lat="47.46712" lon="-2.00709">
        <ele>-3</ele>
        <time>2015-04-15T16:37:06Z</time>
      </trkpt>
      <trkpt lat="47.46717" lon="-2.00713">
        <ele>-3</ele>
        <time>2015-04-15T16:37:07Z</time>
      </trkpt>
      <trkpt lat="47.4674" lon="-2.00732">
        <ele>-3</ele>
        <time>2015-04-15T16:37:12Z</time>
      </trkpt>
      <trkpt lat="47.46761" lon="-2.00747">
        <ele>1</ele>
        <time>2015-04-15T16:37:17Z</time>
      </trkpt>
      <trkpt lat="47.46781" lon="-2.00764">
        <ele>-1</ele>
        <time>2015-04-15T16:37:22Z</time>
      </trkpt>
      <trkpt lat="47.46807" lon="-2.00783">
        <ele>1</ele>
        <time>2015-04-15T16:37:29Z</time>
      </trkpt>
      <trkpt lat="47.46819" lon="-2.00781">
        <ele>1</ele>
        <time>2015-04-15T16:37:32Z</time>
      </trkpt>
      <trkpt lat="47.46834" lon="-2.00755">
        <ele>-1</ele>
        <time>2015-04-15T16:37:37Z</time>
      </trkpt>
      <trkpt lat="47.46847" lon="-2.00711">
        <ele>2</ele>
        <time>2015-04-15T16:37:43Z</time>
      </trkpt>
      <trkpt lat="47.46864" lon="-2.00651">
        <ele>3</ele>
        <time>2015-04-15T16:37:51Z</time>
      </trkpt>
      <trkpt lat="47.46868" lon="-2.00637">
        <ele>2</ele>
        <time>2015-04-15T16:37:53Z</time>
      </trkpt>
      <trkpt lat="47.46875" lon="-2.00611">
        <ele>1</ele>
        <time>2015-04-15T16:37:57Z</time>
      </trkpt>
      <trkpt lat="47.46888" lon="-2.00577">
        <ele>-1</ele>
        <time>2015-04-15T16:38:06Z</time>
      </trkpt>
      <trkpt lat="47.46904" lon="-2.00577">
        <ele>6</ele>
        <time>2015-04-15T16:38:10Z</time>
      </trkpt>
      <trkpt lat="47.46914" lon="-2.00579">
        <ele>6</ele>
        <time>2015-04-15T16:38:12Z</time>
      </trkpt>
      <trkpt lat="47.46961" lon="-2.00592">
        <ele>-3</ele>
        <time>2015-04-15T16:38:20Z</time>
      </trkpt>
      <trkpt lat="47.46973" lon="-2.00594">
        <ele>-3</ele>
        <time>2015-04-15T16:38:22Z</time>
      </trkpt>
      <trkpt lat="47.47002" lon="-2.00601">
        <ele>-3</ele>
        <time>2015-04-15T16:38:27Z</time>
      </trkpt>
      <trkpt lat="47.47045" lon="-2.00613">
        <ele>-4</ele>
        <time>2015-04-15T16:38:35Z</time>
      </trkpt>
      <trkpt lat="47.4706" lon="-2.00618">
        <ele>-4</ele>
        <time>2015-04-15T16:38:38Z</time>
      </trkpt>
      <trkpt lat="47.47081" lon="-2.00626">
        <ele>-4</ele>
        <time>2015-04-15T16:38:42Z</time>
      </trkpt>
      <trkpt lat="47.47108" lon="-2.00636">
        <ele>-2</ele>
        <time>2015-04-15T16:38:48Z</time>
      </trkpt>
      <trkpt lat="47.47127" lon="-2.00643">
        <ele>-1</ele>
        <time>2015-04-15T16:38:52Z</time>
      </trkpt>
      <trkpt lat="47.47152" lon="-2.00651">
        <ele>-2</ele>
        <time>2015-04-15T16:38:58Z</time>
      </trkpt>
      <trkpt lat="47.4717" lon="-2.00658">
        <ele>-3</ele>
        <time>2015-04-15T16:39:02Z</time>
      </trkpt>
      <trkpt lat="47.47173" lon="-2.00672">
        <ele>-3</ele>
        <time>2015-04-15T16:39:07Z</time>
      </trkpt>
      <trkpt lat="47.47178" lon="-2.00683">
        <ele>2</ele>
        <time>2015-04-15T16:39:12Z</time>
      </trkpt>
      <trkpt lat="47.472" lon="-2.00681">
        <ele>3</ele>
        <time>2015-04-15T16:39:21Z</time>
      </trkpt>
      <trkpt lat="47.47203" lon="-2.00681">
        <ele>4</ele>
        <time>2015-04-15T16:39:22Z</time>
      </trkpt>
      <trkpt lat="47.47212" lon="-2.007">
        <ele>6</ele>
        <time>2015-04-15T16:39:27Z</time>
      </trkpt>
      <trkpt lat="47.47227" lon="-2.00713">
        <ele>3</ele>
        <time>2015-04-15T16:39:32Z</time>
      </trkpt>
      <trkpt lat="47.47237" lon="-2.00728">
        <ele>4</ele>
        <time>2015-04-15T16:39:37Z</time>
      </trkpt>
      <trkpt lat="47.47254" lon="-2.00718">
        <ele>4</ele>
        <time>2015-04-15T16:39:42Z</time>
      </trkpt>
      <trkpt lat="47.47271" lon="-2.00716">
        <ele>9</ele>
        <time>2015-04-15T16:39:51Z</time>
      </trkpt>
      <trkpt lat="47.4727" lon="-2.00721">
        <ele>8</ele>
        <time>2015-04-15T16:39:52Z</time>
      </trkpt>
      <trkpt lat="47.47263" lon="-2.00741">
        <ele>4</ele>
        <time>2015-04-15T16:39:57Z</time>
      </trkpt>
      <trkpt lat="47.47245" lon="-2.00742">
        <ele>3</ele>
        <time>2015-04-15T16:40:06Z</time>
      </trkpt>
      <trkpt lat="47.47245" lon="-2.00749">
        <ele>5</ele>
        <time>2015-04-15T16:40:08Z</time>
      </trkpt>
      <trkpt lat="47.47229" lon="-2.00771">
        <ele>3</ele>
        <time>2015-04-15T16:40:16Z</time>
      </trkpt>
      <trkpt lat="47.47225" lon="-2.00775">
        <ele>1</ele>
        <time>2015-04-15T16:40:17Z</time>
      </trkpt>
      <trkpt lat="47.4719" lon="-2.00816">
        <ele>2</ele>
        <time>2015-04-15T16:40:25Z</time>
      </trkpt>
      <trkpt lat="47.47187" lon="-2.00827">
        <ele>1</ele>
        <time>2015-04-15T16:40:27Z</time>
      </trkpt>
      <trkpt lat="47.4718" lon="-2.00859">
        <ele>1</ele>
        <time>2015-04-15T16:40:32Z</time>
      </trkpt>
      <trkpt lat="47.47184" lon="-2.00889">
        <ele>2</ele>
        <time>2015-04-15T16:40:39Z</time>
      </trkpt>
      <trkpt lat="47.47185" lon="-2.00894">
        <ele>4</ele>
        <time>2015-04-15T16:40:42Z</time>
      </trkpt>
      <trkpt lat="47.47198" lon="-2.00899">
        <ele>3</ele>
        <time>2015-04-15T16:40:48Z</time>
      </trkpt>
      <trkpt lat="47.47221" lon="-2.00913">
        <ele>7</ele>
        <time>2015-04-15T16:40:56Z</time>
      </trkpt>
      <trkpt lat="47.47224" lon="-2.00913">
        <ele>7</ele>
        <time>2015-04-15T16:40:58Z</time>
      </trkpt>
      <trkpt lat="47.47228" lon="-2.00912">
        <ele>9</ele>
        <time>2015-04-15T16:41:04Z</time>
      </trkpt>
      <trkpt lat="47.47229" lon="-2.00912">
        <ele>7</ele>
        <time>2015-04-15T16:41:07Z</time>
      </trkpt>
      <trkpt lat="47.47231" lon="-2.00914">
        <ele>10</ele>
        <time>2015-04-15T16:41:11Z</time>
      </trkpt>
      <trkpt lat="47.47235" lon="-2.00913">
        <ele>9</ele>
        <time>2015-04-15T16:41:15Z</time>
      </trkpt>
      <trkpt lat="47.47248" lon="-2.00912">
        <ele>8</ele>
        <time>2015-04-15T16:41:20Z</time>
      </trkpt>
      <trkpt lat="47.47272" lon="-2.00914">
        <ele>13</ele>
        <time>2015-04-15T16:41:28Z</time>
      </trkpt>
      <trkpt lat="47.47281" lon="-2.00915">
        <ele>11</ele>
        <time>2015-04-15T16:41:30Z</time>
      </trkpt>
      <trkpt lat="47.47295" lon="-2.0095">
        <ele>6</ele>
        <time>2015-04-15T16:41:38Z</time>
      </trkpt>
      <trkpt lat="47.47307" lon="-2.0096">
        <ele>5</ele>
        <time>2015-04-15T16:41:44Z</time>
      </trkpt>
      <trkpt lat="47.47311" lon="-2.0096">
        <ele>6</ele>
        <time>2015-04-15T16:41:45Z</time>
      </trkpt>
      <trkpt lat="47.47332" lon="-2.00961">
        <ele>8</ele>
        <time>2015-04-15T16:41:52Z</time>
      </trkpt>
      <trkpt lat="47.47339" lon="-2.00964">
        <ele>9</ele>
        <time>2015-04-15T16:41:55Z</time>
      </trkpt>
      <trkpt lat="47.47347" lon="-2.00967">
        <ele>12</ele>
        <time>2015-04-15T16:42:04Z</time>
      </trkpt>
      <trkpt lat="47.47358" lon="-2.00976">
        <ele>14</ele>
        <time>2015-04-15T16:42:09Z</time>
      </trkpt>
      <trkpt lat="47.4736" lon="-2.00977">
        <ele>14</ele>
        <time>2015-04-15T16:42:10Z</time>
      </trkpt>
      <trkpt lat="47.47374" lon="-2.00969">
        <ele>6</ele>
        <time>2015-04-15T16:42:18Z</time>
      </trkpt>
      <trkpt lat="47.47375" lon="-2.00969">
        <ele>6</ele>
        <time>2015-04-15T16:42:21Z</time>
      </trkpt>
      <trkpt lat="47.47375" lon="-2.0097">
        <ele>5</ele>
        <time>2015-04-15T16:42:23Z</time>
      </trkpt>
      <trkpt lat="47.47375" lon="-2.00971">
        <ele>3</ele>
        <time>2015-04-15T16:42:28Z</time>
      </trkpt>
      <trkpt lat="47.47375" lon="-2.00972">
        <ele>2</ele>
        <time>2015-04-15T16:42:32Z</time>
      </trkpt>
      <trkpt lat="47.47375" lon="-2.00972">
        <ele>2</ele>
        <time>2015-04-15T16:42:35Z</time>
      </trkpt>
      <trkpt lat="47.47375" lon="-2.00972">
        <ele>2</ele>
        <time>2015-04-15T16:42:38Z</time>
      </trkpt>
      <trkpt lat="47.47375" lon="-2.00972">
        <ele>2</ele>
        <time>2015-04-15T16:42:41Z</time>
      </trkpt>
      <trkpt lat="47.47375" lon="-2.00972">
        <ele>2</ele>
        <time>2015-04-15T16:42:44Z</time>
      </trkpt>
      <trkpt lat="47.47375" lon="-2.00972">
        <ele>2</ele>
        <time>2015-04-15T16:42:48Z</time>
      </trkpt>
      <trkpt lat="47.47375" lon="-2.00972">
        <ele>2</ele>
        <time>2015-04-15T16:42:50Z</time>
      </trkpt>
      <trkpt lat="47.47375" lon="-2.00972">
        <ele>2</ele>
        <time>2015-04-15T16:42:53Z</time>
      </trkpt>
      <trkpt lat="47.47375" lon="-2.00972">
        <ele>2</ele>
        <time>2015-04-15T16:42:56Z</time>
      </trkpt>
      <trkpt lat="47.47375" lon="-2.00972">
        <ele>2</ele>
        <time>2015-04-15T16:42:59Z</time>
      </trkpt>
      <trkpt lat="47.47375" lon="-2.00972">
        <ele>2</ele>
        <time>2015-04-15T16:43:02Z</time>
      </trkpt>
      <trkpt lat="47.47375" lon="-2.00972">
        <ele>2</ele>
        <time>2015-04-15T16:43:05Z</time>
      </trkpt>
      <trkpt lat="47.47375" lon="-2.00972">
        <ele>2</ele>
        <time>2015-04-15T16:43:08Z</time>
      </trkpt>
      <trkpt lat="47.47375" lon="-2.00972">
        <ele>2</ele>
        <time>2015-04-15T16:43:11Z</time>
      </trkpt>
      <trkpt lat="47.47375" lon="-2.00972">
        <ele>2</ele>
        <time>2015-04-15T16:43:14Z</time>
      </trkpt>
      <trkpt lat="47.47375" lon="-2.00972">
        <ele>2</ele>
        <time>2015-04-15T16:43:17Z</time>
      </trkpt>
      <trkpt lat="47.47375" lon="-2.00972">
        <ele>2</ele>
        <time>2015-04-15T16:43:22Z</time>
      </trkpt>
      <trkpt lat="47.47375" lon="-2.00972">
        <ele>2</ele>
        <time>2015-04-15T16:43:25Z</time>
      </trkpt>
      <trkpt lat="47.47375" lon="-2.00972">
        <ele>2</ele>
        <time>2015-04-15T16:43:27Z</time>
      </trkpt>
      <trkpt lat="47.47375" lon="-2.00972">
        <ele>2</ele>
        <time>2015-04-15T16:43:29Z</time>
      </trkpt>
      <trkpt lat="47.47375" lon="-2.00972">
        <ele>2</ele>
        <time>2015-04-15T16:43:33Z</time>
      </trkpt>
      <trkpt lat="47.47375" lon="-2.00972">
        <ele>3</ele>
        <time>2015-04-15T16:43:36Z</time>
      </trkpt>
      <trkpt lat="47.47375" lon="-2.00972">
        <ele>3</ele>
        <time>2015-04-15T16:43:39Z</time>
      </trkpt>
      <trkpt lat="47.47375" lon="-2.00972">
        <ele>3</ele>
        <time>2015-04-15T16:43:42Z</time>
      </trkpt>
      <trkpt lat="47.47375" lon="-2.00972">
        <ele>3</ele>
        <time>2015-04-15T16:43:45Z</time>
      </trkpt>
      <trkpt lat="47.47375" lon="-2.00972">
        <ele>3</ele>
        <time>2015-04-15T16:43:48Z</time>
      </trkpt>
      <trkpt lat="47.47375" lon="-2.00971">
        <ele>3</ele>
        <time>2015-04-15T16:43:51Z</time>
      </trkpt>
      <trkpt lat="47.47375" lon="-2.00962">
        <ele>4</ele>
        <time>2015-04-15T16:43:54Z</time>
      </trkpt>
      <trkpt lat="47.47376" lon="-2.00943">
        <ele>4</ele>
        <time>2015-04-15T16:43:59Z</time>
      </trkpt>
      <trkpt lat="47.47372" lon="-2.00916">
        <ele>2</ele>
        <time>2015-04-15T16:44:05Z</time>
      </trkpt>
      <trkpt lat="47.47366" lon="-2.0088">
        <ele>6</ele>
        <time>2015-04-15T16:44:12Z</time>
      </trkpt>
      <trkpt lat="47.47365" lon="-2.0087">
        <ele>6</ele>
        <time>2015-04-15T16:44:14Z</time>
      </trkpt>
      <trkpt lat="47.47361" lon="-2.00843">
        <ele>-2</ele>
        <time>2015-04-15T16:44:19Z</time>
      </trkpt>
      <trkpt lat="47.47356" lon="-2.00812">
        <ele>-1</ele>
        <time>2015-04-15T16:44:25Z</time>
      </trkpt>
      <trkpt lat="47.47351" lon="-2.0078">
        <ele>-3</ele>
        <time>2015-04-15T16:44:31Z</time>
      </trkpt>
      <trkpt lat="47.47347" lon="-2.00758">
        <ele>-3</ele>
        <time>2015-04-15T16:44:35Z</time>
      </trkpt>
      <trkpt lat="47.47343" lon="-2.00731">
        <ele>-5</ele>
        <time>2015-04-15T16:44:40Z</time>
      </trkpt>
      <trkpt lat="47.47336" lon="-2.00693">
        <ele>-3</ele>
        <time>2015-04-15T16:44:48Z</time>
      </trkpt>
      <trkpt lat="47.47335" lon="-2.00686">
        <ele>-2</ele>
        <time>2015-04-15T16:44:50Z</time>
      </trkpt>
      <trkpt lat="47.47339" lon="-2.00672">
        <ele>-1</ele>
        <time>2015-04-15T16:44:59Z</time>
      </trkpt>
      <trkpt lat="47.4734" lon="-2.00669">
        <ele>-1</ele>
        <time>2015-04-15T16:45:00Z</time>
      </trkpt>
      <trkpt lat="47.47341" lon="-2.00647">
        <ele>-2</ele>
        <time>2015-04-15T16:45:05Z</time>
      </trkpt>
      <trkpt lat="47.47341" lon="-2.00608">
        <ele>6</ele>
        <time>2015-04-15T16:45:12Z</time>
      </trkpt>
      <trkpt lat="47.4734" lon="-2.00593">
        <ele>6</ele>
        <time>2015-04-15T16:45:15Z</time>
      </trkpt>
      <trkpt lat="47.47342" lon="-2.00565">
        <ele>4</ele>
        <time>2015-04-15T16:45:20Z</time>
      </trkpt>
      <trkpt lat="47.47349" lon="-2.0054">
        <ele>5</ele>
        <time>2015-04-15T16:45:25Z</time>
      </trkpt>
      <trkpt lat="47.47368" lon="-2.00537">
        <ele>6</ele>
        <time>2015-04-15T16:45:30Z</time>
      </trkpt>
      <trkpt lat="47.47383" lon="-2.0053">
        <ele>2</ele>
        <time>2015-04-15T16:45:35Z</time>
      </trkpt>
      <trkpt lat="47.47407" lon="-2.00489">
        <ele>4</ele>
        <time>2015-04-15T16:45:44Z</time>
      </trkpt>
      <trkpt lat="47.47408" lon="-2.00483">
        <ele>5</ele>
        <time>2015-04-15T16:45:45Z</time>
      </trkpt>
      <trkpt lat="47.47409" lon="-2.00456">
        <ele>3</ele>
        <time>2015-04-15T16:45:50Z</time>
      </trkpt>
      <trkpt lat="47.4741" lon="-2.00426">
        <ele>3</ele>
        <time>2015-04-15T16:45:55Z</time>
      </trkpt>
      <trkpt lat="47.47412" lon="-2.00396">
        <ele>1</ele>
        <time>2015-04-15T16:46:00Z</time>
      </trkpt>
      <trkpt lat="47.47416" lon="-2.00359">
        <ele>5</ele>
        <time>2015-04-15T16:46:06Z</time>
      </trkpt>
      <trkpt lat="47.47421" lon="-2.00332">
        <ele>3</ele>
        <time>2015-04-15T16:46:10Z</time>
      </trkpt>
      <trkpt lat="47.4742" lon="-2.00278">
        <ele>5</ele>
        <time>2015-04-15T16:46:19Z</time>
      </trkpt>
      <trkpt lat="47.47419" lon="-2.00255">
        <ele>4</ele>
        <time>2015-04-15T16:46:23Z</time>
      </trkpt>
      <trkpt lat="47.47419" lon="-2.00243">
        <ele>4</ele>
        <time>2015-04-15T16:46:25Z</time>
      </trkpt>
      <trkpt lat="47.4742" lon="-2.00182">
        <ele>5</ele>
        <time>2015-04-15T16:46:35Z</time>
      </trkpt>
      <trkpt lat="47.4742" lon="-2.00174">
        <ele>7</ele>
        <time>2015-04-15T16:46:36Z</time>
      </trkpt>
      <trkpt lat="47.4742" lon="-2.00131">
        <ele>4</ele>
        <time>2015-04-15T16:46:42Z</time>
      </trkpt>
      <trkpt lat="47.47418" lon="-2.0011">
        <ele>7</ele>
        <time>2015-04-15T16:46:46Z</time>
      </trkpt>
      <trkpt lat="47.47417" lon="-2.00075">
        <ele>6</ele>
        <time>2015-04-15T16:46:53Z</time>
      </trkpt>
      <trkpt lat="47.47414" lon="-2.0007">
        <ele>3</ele>
        <time>2015-04-15T16:46:57Z</time>
      </trkpt>
      <trkpt lat="47.47401" lon="-2.00078">
        <ele>4</ele>
        <time>2015-04-15T16:47:04Z</time>
      </trkpt>
      <trkpt lat="47.47401" lon="-2.00083">
        <ele>5</ele>
        <time>2015-04-15T16:47:06Z</time>
      </trkpt>
      <trkpt lat="47.47407" lon="-2.00101">
        <ele>3</ele>
        <time>2015-04-15T16:47:15Z</time>
      </trkpt>
      <trkpt lat="47.474" lon="-2.00105">
        <ele>4</ele>
        <time>2015-04-15T16:47:20Z</time>
      </trkpt>
      <trkpt lat="47.47399" lon="-2.00102">
        <ele>3</ele>
        <time>2015-04-15T16:47:21Z</time>
      </trkpt>
      <trkpt lat="47.47386" lon="-2.00079">
        <ele>2</ele>
        <time>2015-04-15T16:47:30Z</time>
      </trkpt>
      <trkpt lat="47.4738" lon="-2.00095">
        <ele>5</ele>
        <time>2015-04-15T16:47:34Z</time>
      </trkpt>
      <trkpt lat="47.47379" lon="-2.00104">
        <ele>3</ele>
        <time>2015-04-15T16:47:36Z</time>
      </trkpt>
      <trkpt lat="47.47349" lon="-2.00109">
        <ele>4</ele>
        <time>2015-04-15T16:47:45Z</time>
      </trkpt>
      <trkpt lat="47.47345" lon="-2.00106">
        <ele>4</ele>
        <time>2015-04-15T16:47:46Z</time>
      </trkpt>
      <trkpt lat="47.4733" lon="-2.00096">
        <ele>5</ele>
        <time>2015-04-15T16:47:51Z</time>
      </trkpt>
      <trkpt lat="47.47312" lon="-2.00087">
        <ele>4</ele>
        <time>2015-04-15T16:48:00Z</time>
      </trkpt>
      <trkpt lat="47.4731" lon="-2.00089">
        <ele>2</ele>
        <time>2015-04-15T16:48:01Z</time>
      </trkpt>
      <trkpt lat="47.47287" lon="-2.00094">
        <ele>6</ele>
        <time>2015-04-15T16:48:09Z</time>
      </trkpt>
      <trkpt lat="47.47281" lon="-2.00092">
        <ele>4</ele>
        <time>2015-04-15T16:48:11Z</time>
      </trkpt>
      <trkpt lat="47.47269" lon="-2.00091">
        <ele>5</ele>
        <time>2015-04-15T16:48:20Z</time>
      </trkpt>
      <trkpt lat="47.47266" lon="-2.00091">
        <ele>3</ele>
        <time>2015-04-15T16:48:21Z</time>
      </trkpt>
      <trkpt lat="47.47241" lon="-2.00091">
        <ele>3</ele>
        <time>2015-04-15T16:48:27Z</time>
      </trkpt>
      <trkpt lat="47.47222" lon="-2.00071">
        <ele>3</ele>
        <time>2015-04-15T16:48:35Z</time>
      </trkpt>
      <trkpt lat="47.47214" lon="-2.00077">
        <ele>2</ele>
        <time>2015-04-15T16:48:37Z</time>
      </trkpt>
      <trkpt lat="47.472" lon="-2.00077">
        <ele>5</ele>
        <time>2015-04-15T16:48:41Z</time>
      </trkpt>
      <trkpt lat="47.47182" lon="-2.00073">
        <ele>3</ele>
        <time>2015-04-15T16:48:49Z</time>
      </trkpt>
      <trkpt lat="47.47176" lon="-2.00072">
        <ele>3</ele>
        <time>2015-04-15T16:48:51Z</time>
      </trkpt>
      <trkpt lat="47.47159" lon="-2.00071">
        <ele>6</ele>
        <time>2015-04-15T16:48:56Z</time>
      </trkpt>
      <trkpt lat="47.47151" lon="-2.00102">
        <ele>7</ele>
        <time>2015-04-15T16:49:04Z</time>
      </trkpt>
      <trkpt lat="47.4715" lon="-2.0011">
        <ele>7</ele>
        <time>2015-04-15T16:49:06Z</time>
      </trkpt>
      <trkpt lat="47.47145" lon="-2.00146">
        <ele>5</ele>
        <time>2015-04-15T16:49:15Z</time>
      </trkpt>
      <trkpt lat="47.47144" lon="-2.0015">
        <ele>4</ele>
        <time>2015-04-15T16:49:16Z</time>
      </trkpt>
      <trkpt lat="47.4714" lon="-2.00172">
        <ele>3</ele>
        <time>2015-04-15T16:49:21Z</time>
      </trkpt>
      <trkpt lat="47.47133" lon="-2.002">
        <ele>4</ele>
        <time>2015-04-15T16:49:28Z</time>
      </trkpt>
      <trkpt lat="47.4713" lon="-2.00218">
        <ele>3</ele>
        <time>2015-04-15T16:49:32Z</time>
      </trkpt>
      <trkpt lat="47.47127" lon="-2.00241">
        <ele>3</ele>
        <time>2015-04-15T16:49:37Z</time>
      </trkpt>
      <trkpt lat="47.47125" lon="-2.00261">
        <ele>3</ele>
        <time>2015-04-15T16:49:41Z</time>
      </trkpt>
      <trkpt lat="47.4712" lon="-2.00283">
        <ele>2</ele>
        <time>2015-04-15T16:49:46Z</time>
      </trkpt>
      <trkpt lat="47.47103" lon="-2.00287">
        <ele>3</ele>
        <time>2015-04-15T16:49:51Z</time>
      </trkpt>
      <trkpt lat="47.47086" lon="-2.00286">
        <ele>2</ele>
        <time>2015-04-15T16:49:56Z</time>
      </trkpt>
      <trkpt lat="47.47067" lon="-2.00285">
        <ele>2</ele>
        <time>2015-04-15T16:50:01Z</time>
      </trkpt>
      <trkpt lat="47.47048" lon="-2.00284">
        <ele>2</ele>
        <time>2015-04-15T16:50:06Z</time>
      </trkpt>
      <trkpt lat="47.47028" lon="-2.00283">
        <ele>1</ele>
        <time>2015-04-15T16:50:11Z</time>
      </trkpt>
      <trkpt lat="47.47006" lon="-2.00282">
        <ele>1</ele>
        <time>2015-04-15T16:50:16Z</time>
      </trkpt>
      <trkpt lat="47.46985" lon="-2.00283">
        <ele>1</ele>
        <time>2015-04-15T16:50:21Z</time>
      </trkpt>
      <trkpt lat="47.46967" lon="-2.00285">
        <ele>1</ele>
        <time>2015-04-15T16:50:26Z</time>
      </trkpt>
      <trkpt lat="47.46947" lon="-2.00287">
        <ele>1</ele>
        <time>2015-04-15T16:50:31Z</time>
      </trkpt>
      <trkpt lat="47.46925" lon="-2.00289">
        <ele>1</ele>
        <time>2015-04-15T16:50:36Z</time>
      </trkpt>
      <trkpt lat="47.46903" lon="-2.00291">
        <ele>1</ele>
        <time>2015-04-15T16:50:41Z</time>
      </trkpt>
      <trkpt lat="47.46882" lon="-2.00293">
        <ele>2</ele>
        <time>2015-04-15T16:50:46Z</time>
      </trkpt>
      <trkpt lat="47.46861" lon="-2.00294">
        <ele>3</ele>
        <time>2015-04-15T16:50:51Z</time>
      </trkpt>
      <trkpt lat="47.4684" lon="-2.00289">
        <ele>4</ele>
        <time>2015-04-15T16:50:56Z</time>
      </trkpt>
      <trkpt lat="47.46819" lon="-2.00277">
        <ele>4</ele>
        <time>2015-04-15T16:51:01Z</time>
      </trkpt>
      <trkpt lat="47.46798" lon="-2.00265">
        <ele>4</ele>
        <time>2015-04-15T16:51:06Z</time>
      </trkpt>
      <trkpt lat="47.46771" lon="-2.0025">
        <ele>4</ele>
        <time>2015-04-15T16:51:12Z</time>
      </trkpt>
      <trkpt lat="47.46752" lon="-2.00239">
        <ele>5</ele>
        <time>2015-04-15T16:51:17Z</time>
      </trkpt>
      <trkpt lat="47.46739" lon="-2.0022">
        <ele>5</ele>
        <time>2015-04-15T16:51:22Z</time>
      </trkpt>
      <trkpt lat="47.46739" lon="-2.00191">
        <ele>3</ele>
        <time>2015-04-15T16:51:27Z</time>
      </trkpt>
      <trkpt lat="47.4674" lon="-2.00155">
        <ele>2</ele>
        <time>2015-04-15T16:51:32Z</time>
      </trkpt>
      <trkpt lat="47.46741" lon="-2.00097">
        <ele>1</ele>
        <time>2015-04-15T16:51:41Z</time>
      </trkpt>
      <trkpt lat="47.46742" lon="-2.00091">
        <ele>1</ele>
        <time>2015-04-15T16:51:42Z</time>
      </trkpt>
      <trkpt lat="47.46748" lon="-2.00044">
        <ele>2</ele>
        <time>2015-04-15T16:51:49Z</time>
      </trkpt>
      <trkpt lat="47.46752" lon="-2.00023">
        <ele>3</ele>
        <time>2015-04-15T16:51:52Z</time>
      </trkpt>
      <trkpt lat="47.46761" lon="-1.99981">
        <ele>3</ele>
        <time>2015-04-15T16:51:58Z</time>
      </trkpt>
      <trkpt lat="47.46766" lon="-1.99954">
        <ele>3</ele>
        <time>2015-04-15T16:52:02Z</time>
      </trkpt>
      <trkpt lat="47.46772" lon="-1.99911">
        <ele>7</ele>
        <time>2015-04-15T16:52:08Z</time>
      </trkpt>
      <trkpt lat="47.46772" lon="-1.99877">
        <ele>-1</ele>
        <time>2015-04-15T16:52:13Z</time>
      </trkpt>
      <trkpt lat="47.46769" lon="-1.99849">
        <ele>-1</ele>
        <time>2015-04-15T16:52:17Z</time>
      </trkpt>
      <trkpt lat="47.46763" lon="-1.99816">
        <ele>-2</ele>
        <time>2015-04-15T16:52:22Z</time>
      </trkpt>
      <trkpt lat="47.46743" lon="-1.99767">
        <ele>7.2</ele>
        <time>2015-04-15T16:52:30Z</time>
      </trkpt>
      <trkpt lat="47.46734" lon="-1.99751">
        <ele>7.6</ele>
        <time>2015-04-15T16:52:33Z</time>
      </trkpt>
      <trkpt lat="47.46718" lon="-1.99721">
        <ele>-1</ele>
        <time>2015-04-15T16:52:38Z</time>
      </trkpt>
      <trkpt lat="47.46706" lon="-1.99698">
        <ele>-1</ele>
        <time>2015-04-15T16:52:42Z</time>
      </trkpt>
      <trkpt lat="47.46679" lon="-1.99662">
        <ele>-2</ele>
        <time>2015-04-15T16:52:50Z</time>
      </trkpt>
      <trkpt lat="47.4667" lon="-1.99653">
        <ele>8</ele>
        <time>2015-04-15T16:52:52Z</time>
      </trkpt>
      <trkpt lat="47.46647" lon="-1.99628">
        <ele>-1</ele>
        <time>2015-04-15T16:52:58Z</time>
      </trkpt>
      <trkpt lat="47.46624" lon="-1.99588">
        <ele>2</ele>
        <time>2015-04-15T16:53:06Z</time>
      </trkpt>
      <trkpt lat="47.46624" lon="-1.99582">
        <ele>2</ele>
        <time>2015-04-15T16:53:07Z</time>
      </trkpt>
      <trkpt lat="47.46632" lon="-1.99542">
        <ele>2</ele>
        <time>2015-04-15T16:53:14Z</time>
      </trkpt>
      <trkpt lat="47.46639" lon="-1.99517">
        <ele>4</ele>
        <time>2015-04-15T16:53:18Z</time>
      </trkpt>
      <trkpt lat="47.46651" lon="-1.99484">
        <ele>5</ele>
        <time>2015-04-15T16:53:23Z</time>
      </trkpt>
      <trkpt lat="47.46662" lon="-1.99465">
        <ele>5</ele>
        <time>2015-04-15T16:53:27Z</time>
      </trkpt>
      <trkpt lat="47.46688" lon="-1.99423">
        <ele>5</ele>
        <time>2015-04-15T16:53:35Z</time>
      </trkpt>
      <trkpt lat="47.46693" lon="-1.9939">
        <ele>6</ele>
        <time>2015-04-15T16:53:40Z</time>
      </trkpt>
      <trkpt lat="47.46693" lon="-1.99377">
        <ele>6</ele>
        <time>2015-04-15T16:53:42Z</time>
      </trkpt>
      <trkpt lat="47.46685" lon="-1.99345">
        <ele>7</ele>
        <time>2015-04-15T16:53:47Z</time>
      </trkpt>
      <trkpt lat="47.46685" lon="-1.99307">
        <ele>8</ele>
        <time>2015-04-15T16:53:53Z</time>
      </trkpt>
      <trkpt lat="47.46689" lon="-1.99301">
        <ele>6</ele>
        <time>2015-04-15T16:53:57Z</time>
      </trkpt>
      <trkpt lat="47.46697" lon="-1.99293">
        <ele>8</ele>
        <time>2015-04-15T16:54:02Z</time>
      </trkpt>
      <trkpt lat="47.46721" lon="-1.99271">
        <ele>5</ele>
        <time>2015-04-15T16:54:10Z</time>
      </trkpt>
      <trkpt lat="47.46728" lon="-1.99266">
        <ele>5</ele>
        <time>2015-04-15T16:54:12Z</time>
      </trkpt>
      <trkpt lat="47.46746" lon="-1.99248">
        <ele>4</ele>
        <time>2015-04-15T16:54:17Z</time>
      </trkpt>
      <trkpt lat="47.46762" lon="-1.99227">
        <ele>4</ele>
        <time>2015-04-15T16:54:22Z</time>
      </trkpt>
      <trkpt lat="47.4678" lon="-1.99198">
        <ele>2</ele>
        <time>2015-04-15T16:54:28Z</time>
      </trkpt>
      <trkpt lat="47.46797" lon="-1.9917">
        <ele>1</ele>
        <time>2015-04-15T16:54:34Z</time>
      </trkpt>
      <trkpt lat="47.46814" lon="-1.99143">
        <ele>1</ele>
        <time>2015-04-15T16:54:40Z</time>
      </trkpt>
      <trkpt lat="47.46821" lon="-1.99133">
        <ele>1</ele>
        <time>2015-04-15T16:54:42Z</time>
      </trkpt>
      <trkpt lat="47.46838" lon="-1.99107">
        <ele>1</ele>
        <time>2015-04-15T16:54:47Z</time>
      </trkpt>
      <trkpt lat="47.46853" lon="-1.9908">
        <ele>2</ele>
        <time>2015-04-15T16:54:52Z</time>
      </trkpt>
      <trkpt lat="47.46865" lon="-1.99056">
        <ele>2</ele>
        <time>2015-04-15T16:54:57Z</time>
      </trkpt>
      <trkpt lat="47.4688" lon="-1.99025">
        <ele>7.3</ele>
        <time>2015-04-15T16:55:03Z</time>
      </trkpt>
      <trkpt lat="47.46884" lon="-1.99003">
        <ele>1</ele>
        <time>2015-04-15T16:55:07Z</time>
      </trkpt>
      <trkpt lat="47.46868" lon="-1.98988">
        <ele>2</ele>
        <time>2015-04-15T16:55:12Z</time>
      </trkpt>
      <trkpt lat="47.46848" lon="-1.98975">
        <ele>3</ele>
        <time>2015-04-15T16:55:17Z</time>
      </trkpt>
      <trkpt lat="47.46823" lon="-1.98957">
        <ele>4</ele>
        <time>2015-04-15T16:55:23Z</time>
      </trkpt>
      <trkpt lat="47.46805" lon="-1.98943">
        <ele>6</ele>
        <time>2015-04-15T16:55:28Z</time>
      </trkpt>
      <trkpt lat="47.46792" lon="-1.98933">
        <ele>6</ele>
        <time>2015-04-15T16:55:32Z</time>
      </trkpt>
      <trkpt lat="47.46775" lon="-1.98921">
        <ele>6</ele>
        <time>2015-04-15T16:55:37Z</time>
      </trkpt>
      <trkpt lat="47.46751" lon="-1.98903">
        <ele>8</ele>
        <time>2015-04-15T16:55:44Z</time>
      </trkpt>
      <trkpt lat="47.46741" lon="-1.98895">
        <ele>8</ele>
        <time>2015-04-15T16:55:47Z</time>
      </trkpt>
      <trkpt lat="47.46724" lon="-1.98882">
        <ele>7</ele>
        <time>2015-04-15T16:55:52Z</time>
      </trkpt>
      <trkpt lat="47.46705" lon="-1.98867">
        <ele>8</ele>
        <time>2015-04-15T16:55:58Z</time>
      </trkpt>
      <trkpt lat="47.46689" lon="-1.98854">
        <ele>8</ele>
        <time>2015-04-15T16:56:03Z</time>
      </trkpt>
      <trkpt lat="47.46669" lon="-1.98838">
        <ele>7</ele>
        <time>2015-04-15T16:56:09Z</time>
      </trkpt>
      <trkpt lat="47.46652" lon="-1.98825">
        <ele>8</ele>
        <time>2015-04-15T16:56:14Z</time>
      </trkpt>
      <trkpt lat="47.46639" lon="-1.98814">
        <ele>10</ele>
        <time>2015-04-15T16:56:18Z</time>
      </trkpt>
      <trkpt lat="47.46621" lon="-1.98799">
        <ele>10</ele>
        <time>2015-04-15T16:56:23Z</time>
      </trkpt>
      <trkpt lat="47.46596" lon="-1.98774">
        <ele>7</ele>
        <time>2015-04-15T16:56:30Z</time>
      </trkpt>
      <trkpt lat="47.46587" lon="-1.98752">
        <ele>4</ele>
        <time>2015-04-15T16:56:34Z</time>
      </trkpt>
      <trkpt lat="47.46586" lon="-1.98713">
        <ele>8</ele>
        <time>2015-04-15T16:56:41Z</time>
      </trkpt>
      <trkpt lat="47.46593" lon="-1.98709">
        <ele>-1</ele>
        <time>2015-04-15T16:56:43Z</time>
      </trkpt>
      <trkpt lat="47.46609" lon="-1.98699">
        <ele>3</ele>
        <time>2015-04-15T16:56:48Z</time>
      </trkpt>
      <trkpt lat="47.4661" lon="-1.98662">
        <ele>6</ele>
        <time>2015-04-15T16:56:54Z</time>
      </trkpt>
      <trkpt lat="47.46617" lon="-1.98649">
        <ele>8</ele>
        <time>2015-04-15T16:57:01Z</time>
      </trkpt>
      <trkpt lat="47.46623" lon="-1.9865">
        <ele>7</ele>
        <time>2015-04-15T16:57:03Z</time>
      </trkpt>
      <trkpt lat="47.46635" lon="-1.98659">
        <ele>8</ele>
        <time>2015-04-15T16:57:08Z</time>
      </trkpt>
      <trkpt lat="47.46665" lon="-1.9867">
        <ele>2</ele>
        <time>2015-04-15T16:57:17Z</time>
      </trkpt>
      <trkpt lat="47.4667" lon="-1.98669">
        <ele>2</ele>
        <time>2015-04-15T16:57:18Z</time>
      </trkpt>
      <trkpt lat="47.46686" lon="-1.98641">
        <ele>3</ele>
        <time>2015-04-15T16:57:25Z</time>
      </trkpt>
      <trkpt lat="47.46686" lon="-1.98629">
        <ele>3</ele>
        <time>2015-04-15T16:57:28Z</time>
      </trkpt>
      <trkpt lat="47.46705" lon="-1.98632">
        <ele>7</ele>
        <time>2015-04-15T16:57:35Z</time>
      </trkpt>
      <trkpt lat="47.46703" lon="-1.9862">
        <ele>8</ele>
        <time>2015-04-15T16:57:38Z</time>
      </trkpt>
      <trkpt lat="47.46703" lon="-1.98598">
        <ele>11</ele>
        <time>2015-04-15T16:57:43Z</time>
      </trkpt>
      <trkpt lat="47.46715" lon="-1.9858">
        <ele>4</ele>
        <time>2015-04-15T16:57:48Z</time>
      </trkpt>
      <trkpt lat="47.46732" lon="-1.98589">
        <ele>-1</ele>
        <time>2015-04-15T16:57:57Z</time>
      </trkpt>
      <trkpt lat="47.46734" lon="-1.98591">
        <ele>6</ele>
        <time>2015-04-15T16:57:58Z</time>
      </trkpt>
      <trkpt lat="47.46749" lon="-1.98562">
        <ele>2</ele>
        <time>2015-04-15T16:58:07Z</time>
      </trkpt>
      <trkpt lat="47.46744" lon="-1.98556">
        <ele>1</ele>
        <time>2015-04-15T16:58:10Z</time>
      </trkpt>
      <trkpt lat="47.46738" lon="-1.98552">
        <ele>2</ele>
        <time>2015-04-15T16:58:13Z</time>
      </trkpt>
      <trkpt lat="47.46727" lon="-1.98547">
        <ele>5.7</ele>
        <time>2015-04-15T16:58:22Z</time>
      </trkpt>
      <trkpt lat="47.46721" lon="-1.98545">
        <ele>-3</ele>
        <time>2015-04-15T16:58:27Z</time>
      </trkpt>
      <trkpt lat="47.4672" lon="-1.98544">
        <ele>-2</ele>
        <time>2015-04-15T16:58:28Z</time>
      </trkpt>
      <trkpt lat="47.46718" lon="-1.98543">
        <ele>-2</ele>
        <time>2015-04-15T16:58:33Z</time>
      </trkpt>
      <trkpt lat="47.46717" lon="-1.98543">
        <ele>-2</ele>
        <time>2015-04-15T16:58:38Z</time>
      </trkpt>
      <trkpt lat="47.46717" lon="-1.98543">
        <ele>-2</ele>
        <time>2015-04-15T16:58:41Z</time>
      </trkpt>
      <trkpt lat="47.46717" lon="-1.98543">
        <ele>-2</ele>
        <time>2015-04-15T16:58:44Z</time>
      </trkpt>
      <trkpt lat="47.46717" lon="-1.98543">
        <ele>-2</ele>
        <time>2015-04-15T16:58:47Z</time>
      </trkpt>
      <trkpt lat="47.46717" lon="-1.98543">
        <ele>-2</ele>
        <time>2015-04-15T16:58:50Z</time>
      </trkpt>
      <trkpt lat="47.46717" lon="-1.98543">
        <ele>-2</ele>
        <time>2015-04-15T16:58:53Z</time>
      </trkpt>
      <trkpt lat="47.46717" lon="-1.98543">
        <ele>-2</ele>
        <time>2015-04-15T16:58:57Z</time>
      </trkpt>
      <trkpt lat="47.46717" lon="-1.98543">
        <ele>-2</ele>
        <time>2015-04-15T16:58:59Z</time>
      </trkpt>
      <trkpt lat="47.46717" lon="-1.98543">
        <ele>-1</ele>
        <time>2015-04-15T16:59:04Z</time>
      </trkpt>
      <trkpt lat="47.46717" lon="-1.98543">
        <ele>-2</ele>
        <time>2015-04-15T16:59:05Z</time>
      </trkpt>
      <trkpt lat="47.46717" lon="-1.98543">
        <ele>-2</ele>
        <time>2015-04-15T16:59:10Z</time>
      </trkpt>
      <trkpt lat="47.46717" lon="-1.98543">
        <ele>-2</ele>
        <time>2015-04-15T16:59:11Z</time>
      </trkpt>
      <trkpt lat="47.46717" lon="-1.98543">
        <ele>-2</ele>
        <time>2015-04-15T16:59:14Z</time>
      </trkpt>
      <trkpt lat="47.46717" lon="-1.98543">
        <ele>-2</ele>
        <time>2015-04-15T16:59:17Z</time>
      </trkpt>
      <trkpt lat="47.46717" lon="-1.98543">
        <ele>-1</ele>
        <time>2015-04-15T16:59:20Z</time>
      </trkpt>
      <trkpt lat="47.46714" lon="-1.98541">
        <ele>5.5</ele>
        <time>2015-04-15T16:59:23Z</time>
      </trkpt>
      <trkpt lat="47.46698" lon="-1.98535">
        <ele>1</ele>
        <time>2015-04-15T16:59:28Z</time>
      </trkpt>
      <trkpt lat="47.46678" lon="-1.9853">
        <ele>3</ele>
        <time>2015-04-15T16:59:34Z</time>
      </trkpt>
      <trkpt lat="47.46664" lon="-1.98529">
        <ele>1</ele>
        <time>2015-04-15T16:59:38Z</time>
      </trkpt>
      <trkpt lat="47.46647" lon="-1.98531">
        <ele>2</ele>
        <time>2015-04-15T16:59:43Z</time>
      </trkpt>
      <trkpt lat="47.46624" lon="-1.98539">
        <ele>5.4</ele>
        <time>2015-04-15T16:59:50Z</time>
      </trkpt>
      <trkpt lat="47.46607" lon="-1.98558">
        <ele>-2</ele>
        <time>2015-04-15T16:59:55Z</time>
      </trkpt>
      <trkpt lat="47.46599" lon="-1.9857">
        <ele>-2</ele>
        <time>2015-04-15T16:59:58Z</time>
      </trkpt>
      <trkpt lat="47.46586" lon="-1.98591">
        <ele>6.2</ele>
        <time>2015-04-15T17:00:03Z</time>
      </trkpt>
      <trkpt lat="47.46577" lon="-1.98616">
        <ele>7</ele>
        <time>2015-04-15T17:00:08Z</time>
      </trkpt>
      <trkpt lat="47.46568" lon="-1.98647">
        <ele>1</ele>
        <time>2015-04-15T17:00:14Z</time>
      </trkpt>
      <trkpt lat="47.46559" lon="-1.98685">
        <ele>4</ele>
        <time>2015-04-15T17:00:21Z</time>
      </trkpt>
      <trkpt lat="47.46544" lon="-1.98708">
        <ele>5</ele>
        <time>2015-04-15T17:00:27Z</time>
      </trkpt>
      <trkpt lat="47.4654" lon="-1.98709">
        <ele>6</ele>
        <time>2015-04-15T17:00:28Z</time>
      </trkpt>
      <trkpt lat="47.46519" lon="-1.9871">
        <ele>4</ele>
        <time>2015-04-15T17:00:34Z</time>
      </trkpt>
      <trkpt lat="47.46504" lon="-1.98712">
        <ele>2</ele>
        <time>2015-04-15T17:00:38Z</time>
      </trkpt>
      <trkpt lat="47.46485" lon="-1.98714">
        <ele>2</ele>
        <time>2015-04-15T17:00:43Z</time>
      </trkpt>
      <trkpt lat="47.46466" lon="-1.98711">
        <ele>2</ele>
        <time>2015-04-15T17:00:48Z</time>
      </trkpt>
      <trkpt lat="47.46449" lon="-1.98702">
        <ele>3</ele>
        <time>2015-04-15T17:00:53Z</time>
      </trkpt>
      <trkpt lat="47.46436" lon="-1.98681">
        <ele>3</ele>
        <time>2015-04-15T17:00:58Z</time>
      </trkpt>
      <trkpt lat="47.46427" lon="-1.98637">
        <ele>3</ele>
        <time>2015-04-15T17:01:06Z</time>
      </trkpt>
      <trkpt lat="47.46428" lon="-1.98624">
        <ele>3</ele>
        <time>2015-04-15T17:01:08Z</time>
      </trkpt>
      <trkpt lat="47.46425" lon="-1.98575">
        <ele>2</ele>
        <time>2015-04-15T17:01:16Z</time>
      </trkpt>
      <trkpt lat="47.46421" lon="-1.98565">
        <ele>3</ele>
        <time>2015-04-15T17:01:18Z</time>
      </trkpt>
      <trkpt lat="47.46407" lon="-1.98544">
        <ele>1</ele>
        <time>2015-04-15T17:01:23Z</time>
      </trkpt>
      <trkpt lat="47.46384" lon="-1.98511">
        <ele>1</ele>
        <time>2015-04-15T17:01:32Z</time>
      </trkpt>
      <trkpt lat="47.46374" lon="-1.98507">
        <ele>4</ele>
        <time>2015-04-15T17:01:36Z</time>
      </trkpt>
      <trkpt lat="47.46367" lon="-1.98525">
        <ele>4</ele>
        <time>2015-04-15T17:01:40Z</time>
      </trkpt>
      <trkpt lat="47.46357" lon="-1.98549">
        <ele>5</ele>
        <time>2015-04-15T17:01:45Z</time>
      </trkpt>
      <trkpt lat="47.46342" lon="-1.98592">
        <ele>5</ele>
        <time>2015-04-15T17:01:53Z</time>
      </trkpt>
      <trkpt lat="47.46339" lon="-1.98603">
        <ele>3</ele>
        <time>2015-04-15T17:01:55Z</time>
      </trkpt>
      <trkpt lat="47.4633" lon="-1.98626">
        <ele>4</ele>
        <time>2015-04-15T17:01:59Z</time>
      </trkpt>
      <trkpt lat="47.4632" lon="-1.98656">
        <ele>3</ele>
        <time>2015-04-15T17:02:04Z</time>
      </trkpt>
      <trkpt lat="47.46311" lon="-1.98684">
        <ele>4</ele>
        <time>2015-04-15T17:02:09Z</time>
      </trkpt>
      <trkpt lat="47.46297" lon="-1.98727">
        <ele>5</ele>
        <time>2015-04-15T17:02:18Z</time>
      </trkpt>
      <trkpt lat="47.46292" lon="-1.98742">
        <ele>3</ele>
        <time>2015-04-15T17:02:21Z</time>
      </trkpt>
      <trkpt lat="47.46287" lon="-1.98756">
        <ele>4</ele>
        <time>2015-04-15T17:02:24Z</time>
      </trkpt>
      <trkpt lat="47.46279" lon="-1.98781">
        <ele>6</ele>
        <time>2015-04-15T17:02:29Z</time>
      </trkpt>
      <trkpt lat="47.46268" lon="-1.98818">
        <ele>5</ele>
        <time>2015-04-15T17:02:36Z</time>
      </trkpt>
      <trkpt lat="47.46261" lon="-1.98838">
        <ele>3</ele>
        <time>2015-04-15T17:02:40Z</time>
      </trkpt>
      <trkpt lat="47.46248" lon="-1.98845">
        <ele>4</ele>
        <time>2015-04-15T17:02:44Z</time>
      </trkpt>
      <trkpt lat="47.46234" lon="-1.98831">
        <ele>3</ele>
        <time>2015-04-15T17:02:49Z</time>
      </trkpt>
      <trkpt lat="47.46219" lon="-1.98817">
        <ele>4</ele>
        <time>2015-04-15T17:02:54Z</time>
      </trkpt>
      <trkpt lat="47.46192" lon="-1.98809">
        <ele>2</ele>
        <time>2015-04-15T17:03:01Z</time>
      </trkpt>
      <trkpt lat="47.46175" lon="-1.98807">
        <ele>2</ele>
        <time>2015-04-15T17:03:05Z</time>
      </trkpt>
      <trkpt lat="47.46158" lon="-1.98803">
        <ele>2</ele>
        <time>2015-04-15T17:03:09Z</time>
      </trkpt>
      <trkpt lat="47.46138" lon="-1.98796">
        <ele>4</ele>
        <time>2015-04-15T17:03:14Z</time>
      </trkpt>
      <trkpt lat="47.46117" lon="-1.98787">
        <ele>7</ele>
        <time>2015-04-15T17:03:19Z</time>
      </trkpt>
      <trkpt lat="47.46096" lon="-1.98779">
        <ele>6</ele>
        <time>2015-04-15T17:03:24Z</time>
      </trkpt>
      <trkpt lat="47.4607" lon="-1.98767">
        <ele>9</ele>
        <time>2015-04-15T17:03:31Z</time>
      </trkpt>
      <trkpt lat="47.4606" lon="-1.98761">
        <ele>8</ele>
        <time>2015-04-15T17:03:34Z</time>
      </trkpt>
      <trkpt lat="47.46038" lon="-1.98751">
        <ele>8</ele>
        <time>2015-04-15T17:03:40Z</time>
      </trkpt>
      <trkpt lat="47.46023" lon="-1.98743">
        <ele>8</ele>
        <time>2015-04-15T17:03:44Z</time>
      </trkpt>
      <trkpt lat="47.46004" lon="-1.98734">
        <ele>8</ele>
        <time>2015-04-15T17:03:49Z</time>
      </trkpt>
      <trkpt lat="47.45968" lon="-1.98719">
        <ele>7</ele>
        <time>2015-04-15T17:03:57Z</time>
      </trkpt>
      <trkpt lat="47.4596" lon="-1.98714">
        <ele>8</ele>
        <time>2015-04-15T17:03:59Z</time>
      </trkpt>
      <trkpt lat="47.45936" lon="-1.98704">
        <ele>9</ele>
        <time>2015-04-15T17:04:06Z</time>
      </trkpt>
      <trkpt lat="47.45926" lon="-1.987">
        <ele>9</ele>
        <time>2015-04-15T17:04:09Z</time>
      </trkpt>
      <trkpt lat="47.45892" lon="-1.9869">
        <ele>9</ele>
        <time>2015-04-15T17:04:18Z</time>
      </trkpt>
      <trkpt lat="47.45888" lon="-1.98689">
        <ele>9</ele>
        <time>2015-04-15T17:04:19Z</time>
      </trkpt>
      <trkpt lat="47.45868" lon="-1.98688">
        <ele>11</ele>
        <time>2015-04-15T17:04:24Z</time>
      </trkpt>
      <trkpt lat="47.45836" lon="-1.98688">
        <ele>13</ele>
        <time>2015-04-15T17:04:32Z</time>
      </trkpt>
      <trkpt lat="47.45831" lon="-1.98688">
        <ele>14</ele>
        <time>2015-04-15T17:04:34Z</time>
      </trkpt>
      <trkpt lat="47.45824" lon="-1.98686">
        <ele>13</ele>
        <time>2015-04-15T17:04:39Z</time>
      </trkpt>
      <trkpt lat="47.45816" lon="-1.98657">
        <ele>11</ele>
        <time>2015-04-15T17:04:48Z</time>
      </trkpt>
      <trkpt lat="47.45813" lon="-1.98657">
        <ele>10</ele>
        <time>2015-04-15T17:04:49Z</time>
      </trkpt>
      <trkpt lat="47.45811" lon="-1.98671">
        <ele>8</ele>
        <time>2015-04-15T17:04:54Z</time>
      </trkpt>
      <trkpt lat="47.45807" lon="-1.98663">
        <ele>12</ele>
        <time>2015-04-15T17:04:59Z</time>
      </trkpt>
      <trkpt lat="47.45822" lon="-1.98641">
        <ele>5</ele>
        <time>2015-04-15T17:05:07Z</time>
      </trkpt>
      <trkpt lat="47.45816" lon="-1.98635">
        <ele>5</ele>
        <time>2015-04-15T17:05:12Z</time>
      </trkpt>
      <trkpt lat="47.45809" lon="-1.98633">
        <ele>5</ele>
        <time>2015-04-15T17:05:18Z</time>
      </trkpt>
      <trkpt lat="47.45811" lon="-1.98631">
        <ele>6</ele>
        <time>2015-04-15T17:05:19Z</time>
      </trkpt>
      <trkpt lat="47.45817" lon="-1.9863">
        <ele>11</ele>
        <time>2015-04-15T17:05:24Z</time>
      </trkpt>
      <trkpt lat="47.45807" lon="-1.98615">
        <ele>10</ele>
        <time>2015-04-15T17:05:33Z</time>
      </trkpt>
      <trkpt lat="47.45806" lon="-1.98612">
        <ele>10</ele>
        <time>2015-04-15T17:05:34Z</time>
      </trkpt>
      <trkpt lat="47.45819" lon="-1.98608">
        <ele>9</ele>
        <time>2015-04-15T17:05:39Z</time>
      </trkpt>
      <trkpt lat="47.4583" lon="-1.98604">
        <ele>8</ele>
        <time>2015-04-15T17:05:46Z</time>
      </trkpt>
      <trkpt lat="47.45829" lon="-1.986">
        <ele>5</ele>
        <time>2015-04-15T17:05:50Z</time>
      </trkpt>
      <trkpt lat="47.45828" lon="-1.98601">
        <ele>6</ele>
        <time>2015-04-15T17:05:55Z</time>
      </trkpt>
      <trkpt lat="47.45821" lon="-1.98604">
        <ele>8</ele>
        <time>2015-04-15T17:05:59Z</time>
      </trkpt>
      <trkpt lat="47.45813" lon="-1.98599">
        <ele>7</ele>
        <time>2015-04-15T17:06:03Z</time>
      </trkpt>
      <trkpt lat="47.45801" lon="-1.98598">
        <ele>8</ele>
        <time>2015-04-15T17:06:07Z</time>
      </trkpt>
      <trkpt lat="47.45794" lon="-1.98605">
        <ele>7</ele>
        <time>2015-04-15T17:06:14Z</time>
      </trkpt>
      <trkpt lat="47.45796" lon="-1.98612">
        <ele>5</ele>
        <time>2015-04-15T17:06:17Z</time>
      </trkpt>
      <trkpt lat="47.45792" lon="-1.98616">
        <ele>6</ele>
        <time>2015-04-15T17:06:22Z</time>
      </trkpt>
      <trkpt lat="47.45792" lon="-1.98633">
        <ele>7</ele>
        <time>2015-04-15T17:06:30Z</time>
      </trkpt>
      <trkpt lat="47.45795" lon="-1.98638">
        <ele>7</ele>
        <time>2015-04-15T17:06:33Z</time>
      </trkpt>
      <trkpt lat="47.45797" lon="-1.98639">
        <ele>7</ele>
        <time>2015-04-15T17:06:37Z</time>
      </trkpt>
      <trkpt lat="47.45797" lon="-1.98645">
        <ele>8</ele>
        <time>2015-04-15T17:06:43Z</time>
      </trkpt>
      <trkpt lat="47.45798" lon="-1.98646">
        <ele>9</ele>
        <time>2015-04-15T17:06:47Z</time>
      </trkpt>
      <trkpt lat="47.45798" lon="-1.98646">
        <ele>9</ele>
        <time>2015-04-15T17:06:50Z</time>
      </trkpt>
      <trkpt lat="47.45798" lon="-1.98646">
        <ele>9</ele>
        <time>2015-04-15T17:06:53Z</time>
      </trkpt>
      <trkpt lat="47.45798" lon="-1.98646">
        <ele>9</ele>
        <time>2015-04-15T17:06:56Z</time>
      </trkpt>
      <trkpt lat="47.45798" lon="-1.98647">
        <ele>9</ele>
        <time>2015-04-15T17:06:59Z</time>
      </trkpt>
      <trkpt lat="47.45791" lon="-1.9867">
        <ele>7</ele>
        <time>2015-04-15T17:07:05Z</time>
      </trkpt>
      <trkpt lat="47.45788" lon="-1.98677">
        <ele>8</ele>
        <time>2015-04-15T17:07:07Z</time>
      </trkpt>
      <trkpt lat="47.45772" lon="-1.98677">
        <ele>8</ele>
        <time>2015-04-15T17:07:12Z</time>
      </trkpt>
      <trkpt lat="47.45766" lon="-1.98679">
        <ele>7</ele>
        <time>2015-04-15T17:07:19Z</time>
      </trkpt>
      <trkpt lat="47.45767" lon="-1.9868">
        <ele>8</ele>
        <time>2015-04-15T17:07:22Z</time>
      </trkpt>
      <trkpt lat="47.45767" lon="-1.98679">
        <ele>9</ele>
        <time>2015-04-15T17:07:25Z</time>
      </trkpt>
      <trkpt lat="47.45766" lon="-1.98679">
        <ele>10</ele>
        <time>2015-04-15T17:07:28Z</time>
      </trkpt>
      <trkpt lat="47.45765" lon="-1.98679">
        <ele>10</ele>
        <time>2015-04-15T17:07:32Z</time>
      </trkpt>
      <trkpt lat="47.45765" lon="-1.98679">
        <ele>9</ele>
        <time>2015-04-15T17:07:34Z</time>
      </trkpt>
      <trkpt lat="47.45765" lon="-1.9868">
        <ele>9</ele>
        <time>2015-04-15T17:07:37Z</time>
      </trkpt>
      <trkpt lat="47.45765" lon="-1.9868">
        <ele>9</ele>
        <time>2015-04-15T17:07:41Z</time>
      </trkpt>
      <trkpt lat="47.45766" lon="-1.9868">
        <ele>9</ele>
        <time>2015-04-15T17:07:43Z</time>
      </trkpt>
      <trkpt lat="47.45766" lon="-1.9868">
        <ele>9</ele>
        <time>2015-04-15T17:07:46Z</time>
      </trkpt>
      <trkpt lat="47.45766" lon="-1.9868">
        <ele>9</ele>
        <time>2015-04-15T17:07:49Z</time>
      </trkpt>
      <trkpt lat="47.45766" lon="-1.9868">
        <ele>9</ele>
        <time>2015-04-15T17:07:52Z</time>
      </trkpt>
      <trkpt lat="47.45766" lon="-1.9868">
        <ele>9</ele>
        <time>2015-04-15T17:07:55Z</time>
      </trkpt>
      <trkpt lat="47.45766" lon="-1.9868">
        <ele>9</ele>
        <time>2015-04-15T17:07:58Z</time>
      </trkpt>
      <trkpt lat="47.45766" lon="-1.9868">
        <ele>9</ele>
        <time>2015-04-15T17:08:01Z</time>
      </trkpt>
      <trkpt lat="47.45766" lon="-1.9868">
        <ele>9</ele>
        <time>2015-04-15T17:08:04Z</time>
      </trkpt>
      <trkpt lat="47.45766" lon="-1.9868">
        <ele>9</ele>
        <time>2015-04-15T17:08:07Z</time>
      </trkpt>
      <trkpt lat="47.45766" lon="-1.9868">
        <ele>9</ele>
        <time>2015-04-15T17:08:10Z</time>
      </trkpt>
      <trkpt lat="47.45766" lon="-1.98681">
        <ele>9</ele>
        <time>2015-04-15T17:08:13Z</time>
      </trkpt>
      <trkpt lat="47.45766" lon="-1.9868">
        <ele>9</ele>
        <time>2015-04-15T17:08:16Z</time>
      </trkpt>
      <trkpt lat="47.45766" lon="-1.9868">
        <ele>9</ele>
        <time>2015-04-15T17:08:19Z</time>
      </trkpt>
      <trkpt lat="47.45766" lon="-1.9868">
        <ele>9</ele>
        <time>2015-04-15T17:08:22Z</time>
      </trkpt>
      <trkpt lat="47.45766" lon="-1.9868">
        <ele>9</ele>
        <time>2015-04-15T17:08:25Z</time>
      </trkpt>
      <trkpt lat="47.45766" lon="-1.9868">
        <ele>9</ele>
        <time>2015-04-15T17:08:28Z</time>
      </trkpt>
      <trkpt lat="47.45766" lon="-1.9868">
        <ele>9</ele>
        <time>2015-04-15T17:08:31Z</time>
      </trkpt>
      <trkpt lat="47.45766" lon="-1.9868">
        <ele>9</ele>
        <time>2015-04-15T17:08:34Z</time>
      </trkpt>
      <trkpt lat="47.45766" lon="-1.9868">
        <ele>9</ele>
        <time>2015-04-15T17:08:37Z</time>
      </trkpt>
      <trkpt lat="47.45766" lon="-1.9868">
        <ele>9</ele>
        <time>2015-04-15T17:08:42Z</time>
      </trkpt>
      <trkpt lat="47.45766" lon="-1.9868">
        <ele>9</ele>
        <time>2015-04-15T17:08:43Z</time>
      </trkpt>
      <trkpt lat="47.45766" lon="-1.9868">
        <ele>9</ele>
        <time>2015-04-15T17:08:46Z</time>
      </trkpt>
      <trkpt lat="47.45766" lon="-1.9868">
        <ele>9</ele>
        <time>2015-04-15T17:08:49Z</time>
      </trkpt>
      <trkpt lat="47.45766" lon="-1.9868">
        <ele>9</ele>
        <time>2015-04-15T17:08:52Z</time>
      </trkpt>
      <trkpt lat="47.45766" lon="-1.9868">
        <ele>9</ele>
        <time>2015-04-15T17:08:55Z</time>
      </trkpt>
      <trkpt lat="47.45766" lon="-1.9868">
        <ele>9</ele>
        <time>2015-04-15T17:08:58Z</time>
      </trkpt>
      <trkpt lat="47.45766" lon="-1.9868">
        <ele>9</ele>
        <time>2015-04-15T17:09:01Z</time>
      </trkpt>
      <trkpt lat="47.45766" lon="-1.9868">
        <ele>9</ele>
        <time>2015-04-15T17:09:04Z</time>
      </trkpt>
      <trkpt lat="47.45766" lon="-1.9868">
        <ele>9</ele>
        <time>2015-04-15T17:09:07Z</time>
      </trkpt>
      <trkpt lat="47.45766" lon="-1.9868">
        <ele>9</ele>
        <time>2015-04-15T17:09:10Z</time>
      </trkpt>
      <trkpt lat="47.45766" lon="-1.9868">
        <ele>9</ele>
        <time>2015-04-15T17:09:15Z</time>
      </trkpt>
      <trkpt lat="47.45766" lon="-1.9868">
        <ele>9</ele>
        <time>2015-04-15T17:09:16Z</time>
      </trkpt>
      <trkpt lat="47.45767" lon="-1.9868">
        <ele>9</ele>
        <time>2015-04-15T17:09:19Z</time>
      </trkpt>
      <trkpt lat="47.45767" lon="-1.98681">
        <ele>9</ele>
        <time>2015-04-15T17:09:22Z</time>
      </trkpt>
      <trkpt lat="47.45767" lon="-1.98681">
        <ele>9</ele>
        <time>2015-04-15T17:09:25Z</time>
      </trkpt>
      <trkpt lat="47.45768" lon="-1.98681">
        <ele>10</ele>
        <time>2015-04-15T17:09:28Z</time>
      </trkpt>
      <trkpt lat="47.45767" lon="-1.98682">
        <ele>10</ele>
        <time>2015-04-15T17:09:31Z</time>
      </trkpt>
      <trkpt lat="47.45767" lon="-1.98682">
        <ele>10</ele>
        <time>2015-04-15T17:09:34Z</time>
      </trkpt>
      <trkpt lat="47.45767" lon="-1.98682">
        <ele>10</ele>
        <time>2015-04-15T17:09:38Z</time>
      </trkpt>
      <trkpt lat="47.45767" lon="-1.98682">
        <ele>10</ele>
        <time>2015-04-15T17:09:40Z</time>
      </trkpt>
      <trkpt lat="47.45767" lon="-1.98682">
        <ele>10</ele>
        <time>2015-04-15T17:09:43Z</time>
      </trkpt>
      <trkpt lat="47.45767" lon="-1.98682">
        <ele>10</ele>
        <time>2015-04-15T17:09:46Z</time>
      </trkpt>
      <trkpt lat="47.45766" lon="-1.98683">
        <ele>9</ele>
        <time>2015-04-15T17:09:49Z</time>
      </trkpt>
      <trkpt lat="47.45766" lon="-1.98683">
        <ele>9</ele>
        <time>2015-04-15T17:09:52Z</time>
      </trkpt>
      <trkpt lat="47.45766" lon="-1.98683">
        <ele>9</ele>
        <time>2015-04-15T17:09:55Z</time>
      </trkpt>
      <trkpt lat="47.45766" lon="-1.98683">
        <ele>9</ele>
        <time>2015-04-15T17:09:58Z</time>
      </trkpt>
      <trkpt lat="47.45766" lon="-1.98683">
        <ele>9</ele>
        <time>2015-04-15T17:10:01Z</time>
      </trkpt>
      <trkpt lat="47.45765" lon="-1.98682">
        <ele>9</ele>
        <time>2015-04-15T17:10:06Z</time>
      </trkpt>
      <trkpt lat="47.45765" lon="-1.98682">
        <ele>8</ele>
        <time>2015-04-15T17:10:07Z</time>
      </trkpt>
      <trkpt lat="47.45764" lon="-1.98682">
        <ele>9</ele>
        <time>2015-04-15T17:10:12Z</time>
      </trkpt>
      <trkpt lat="47.45765" lon="-1.98683">
        <ele>8</ele>
        <time>2015-04-15T17:10:15Z</time>
      </trkpt>
      <trkpt lat="47.45765" lon="-1.98683">
        <ele>8</ele>
        <time>2015-04-15T17:10:18Z</time>
      </trkpt>
      <trkpt lat="47.45765" lon="-1.98683">
        <ele>8</ele>
        <time>2015-04-15T17:10:21Z</time>
      </trkpt>
      <trkpt lat="47.45765" lon="-1.98683">
        <ele>8</ele>
        <time>2015-04-15T17:10:24Z</time>
      </trkpt>
      <trkpt lat="47.45765" lon="-1.98683">
        <ele>8</ele>
        <time>2015-04-15T17:10:27Z</time>
      </trkpt>
      <trkpt lat="47.45765" lon="-1.98683">
        <ele>8</ele>
        <time>2015-04-15T17:10:30Z</time>
      </trkpt>
      <trkpt lat="47.45765" lon="-1.98683">
        <ele>8</ele>
        <time>2015-04-15T17:10:33Z</time>
      </trkpt>
      <trkpt lat="47.45765" lon="-1.98683">
        <ele>8</ele>
        <time>2015-04-15T17:10:36Z</time>
      </trkpt>
      <trkpt lat="47.45765" lon="-1.98683">
        <ele>8</ele>
        <time>2015-04-15T17:10:39Z</time>
      </trkpt>
      <trkpt lat="47.45765" lon="-1.98683">
        <ele>8</ele>
        <time>2015-04-15T17:10:42Z</time>
      </trkpt>
      <trkpt lat="47.45765" lon="-1.98683">
        <ele>8</ele>
        <time>2015-04-15T17:10:45Z</time>
      </trkpt>
      <trkpt lat="47.45765" lon="-1.98683">
        <ele>8</ele>
        <time>2015-04-15T17:10:48Z</time>
      </trkpt>
      <trkpt lat="47.45765" lon="-1.98683">
        <ele>8</ele>
        <time>2015-04-15T17:10:51Z</time>
      </trkpt>
      <trkpt lat="47.45765" lon="-1.98683">
        <ele>8</ele>
        <time>2015-04-15T17:10:54Z</time>
      </trkpt>
      <trkpt lat="47.45765" lon="-1.98683">
        <ele>8</ele>
        <time>2015-04-15T17:10:57Z</time>
      </trkpt>
      <trkpt lat="47.45765" lon="-1.98683">
        <ele>8</ele>
        <time>2015-04-15T17:11:00Z</time>
      </trkpt>
      <trkpt lat="47.45765" lon="-1.98683">
        <ele>8</ele>
        <time>2015-04-15T17:11:03Z</time>
      </trkpt>
      <trkpt lat="47.45765" lon="-1.98683">
        <ele>8</ele>
        <time>2015-04-15T17:11:06Z</time>
      </trkpt>
      <trkpt lat="47.45765" lon="-1.98683">
        <ele>8</ele>
        <time>2015-04-15T17:11:09Z</time>
      </trkpt>
      <trkpt lat="47.45765" lon="-1.98683">
        <ele>8</ele>
        <time>2015-04-15T17:11:12Z</time>
      </trkpt>
      <trkpt lat="47.45765" lon="-1.98683">
        <ele>8</ele>
        <time>2015-04-15T17:11:15Z</time>
      </trkpt>
      <trkpt lat="47.45765" lon="-1.98683">
        <ele>8</ele>
        <time>2015-04-15T17:11:18Z</time>
      </trkpt>
      <trkpt lat="47.45765" lon="-1.98683">
        <ele>8</ele>
        <time>2015-04-15T17:11:21Z</time>
      </trkpt>
      <trkpt lat="47.45765" lon="-1.98683">
        <ele>8</ele>
        <time>2015-04-15T17:11:24Z</time>
      </trkpt>
      <trkpt lat="47.45765" lon="-1.98683">
        <ele>8</ele>
        <time>2015-04-15T17:11:27Z</time>
      </trkpt>
      <trkpt lat="47.45765" lon="-1.98683">
        <ele>8</ele>
        <time>2015-04-15T17:11:30Z</time>
      </trkpt>
      <trkpt lat="47.45765" lon="-1.98683">
        <ele>8</ele>
        <time>2015-04-15T17:11:33Z</time>
      </trkpt>
      <trkpt lat="47.45765" lon="-1.98683">
        <ele>8</ele>
        <time>2015-04-15T17:11:36Z</time>
      </trkpt>
      <trkpt lat="47.45765" lon="-1.98683">
        <ele>8</ele>
        <time>2015-04-15T17:11:39Z</time>
      </trkpt>
      <trkpt lat="47.45765" lon="-1.98683">
        <ele>8</ele>
        <time>2015-04-15T17:11:42Z</time>
      </trkpt>
      <trkpt lat="47.45765" lon="-1.98683">
        <ele>8</ele>
        <time>2015-04-15T17:11:45Z</time>
      </trkpt>
      <trkpt lat="47.45765" lon="-1.98683">
        <ele>8</ele>
        <time>2015-04-15T17:11:48Z</time>
      </trkpt>
      <trkpt lat="47.45765" lon="-1.98683">
        <ele>8</ele>
        <time>2015-04-15T17:11:51Z</time>
      </trkpt>
      <trkpt lat="47.45765" lon="-1.98683">
        <ele>8</ele>
        <time>2015-04-15T17:11:54Z</time>
      </trkpt>
      <trkpt lat="47.45765" lon="-1.98683">
        <ele>8</ele>
        <time>2015-04-15T17:11:57Z</time>
      </trkpt>
      <trkpt lat="47.45765" lon="-1.98683">
        <ele>8</ele>
        <time>2015-04-15T17:12:00Z</time>
      </trkpt>
      <trkpt lat="47.45765" lon="-1.98683">
        <ele>8</ele>
        <time>2015-04-15T17:12:03Z</time>
      </trkpt>
      <trkpt lat="47.45765" lon="-1.98683">
        <ele>8</ele>
        <time>2015-04-15T17:12:06Z</time>
      </trkpt>
      <trkpt lat="47.45765" lon="-1.98683">
        <ele>8</ele>
        <time>2015-04-15T17:12:11Z</time>
      </trkpt>
      <trkpt lat="47.45765" lon="-1.98683">
        <ele>8</ele>
        <time>2015-04-15T17:12:12Z</time>
      </trkpt>
      <trkpt lat="47.45765" lon="-1.98683">
        <ele>8</ele>
        <time>2015-04-15T17:12:15Z</time>
      </trkpt>
      <trkpt lat="47.45765" lon="-1.98683">
        <ele>8</ele>
        <time>2015-04-15T17:12:18Z</time>
      </trkpt>
      <trkpt lat="47.45765" lon="-1.98683">
        <ele>8</ele>
        <time>2015-04-15T17:12:21Z</time>
      </trkpt>
      <trkpt lat="47.45765" lon="-1.98683">
        <ele>8</ele>
        <time>2015-04-15T17:12:24Z</time>
      </trkpt>
      <trkpt lat="47.45765" lon="-1.98683">
        <ele>8</ele>
        <time>2015-04-15T17:12:27Z</time>
      </trkpt>
      <trkpt lat="47.45765" lon="-1.98683">
        <ele>8</ele>
        <time>2015-04-15T17:12:30Z</time>
      </trkpt>
      <trkpt lat="47.45765" lon="-1.98683">
        <ele>8</ele>
        <time>2015-04-15T17:12:33Z</time>
      </trkpt>
      <trkpt lat="47.45765" lon="-1.98683">
        <ele>8</ele>
        <time>2015-04-15T17:12:36Z</time>
      </trkpt>
      <trkpt lat="47.45765" lon="-1.98683">
        <ele>8</ele>
        <time>2015-04-15T17:12:41Z</time>
      </trkpt>
      <trkpt lat="47.45765" lon="-1.98683">
        <ele>8</ele>
        <time>2015-04-15T17:12:42Z</time>
      </trkpt>
      <trkpt lat="47.45766" lon="-1.98683">
        <ele>8</ele>
        <time>2015-04-15T17:12:45Z</time>
      </trkpt>
      <trkpt lat="47.45766" lon="-1.98682">
        <ele>8</ele>
        <time>2015-04-15T17:12:48Z</time>
      </trkpt>
      <trkpt lat="47.45766" lon="-1.98682">
        <ele>8</ele>
        <time>2015-04-15T17:12:51Z</time>
      </trkpt>
      <trkpt lat="47.45766" lon="-1.98682">
        <ele>8</ele>
        <time>2015-04-15T17:12:54Z</time>
      </trkpt>
      <trkpt lat="47.45766" lon="-1.98682">
        <ele>9</ele>
        <time>2015-04-15T17:12:57Z</time>
      </trkpt>
      <trkpt lat="47.45766" lon="-1.98682">
        <ele>9</ele>
        <time>2015-04-15T17:13:00Z</time>
      </trkpt>
      <trkpt lat="47.45766" lon="-1.98682">
        <ele>9</ele>
        <time>2015-04-15T17:13:03Z</time>
      </trkpt>
      <trkpt lat="47.45766" lon="-1.98682">
        <ele>10</ele>
        <time>2015-04-15T17:13:06Z</time>
      </trkpt>
      <trkpt lat="47.45766" lon="-1.98683">
        <ele>10</ele>
        <time>2015-04-15T17:13:09Z</time>
      </trkpt>
      <trkpt lat="47.45765" lon="-1.98683">
        <ele>8</ele>
        <time>2015-04-15T17:13:13Z</time>
      </trkpt>
      <trkpt lat="47.45764" lon="-1.98683">
        <ele>7</ele>
        <time>2015-04-15T17:13:15Z</time>
      </trkpt>
      <trkpt lat="47.45763" lon="-1.98683">
        <ele>6</ele>
        <time>2015-04-15T17:13:18Z</time>
      </trkpt>
      <trkpt lat="47.45763" lon="-1.98683">
        <ele>6</ele>
        <time>2015-04-15T17:13:21Z</time>
      </trkpt>
      <trkpt lat="47.45763" lon="-1.98683">
        <ele>5</ele>
        <time>2015-04-15T17:13:24Z</time>
      </trkpt>
      <trkpt lat="47.45762" lon="-1.98683">
        <ele>5</ele>
        <time>2015-04-15T17:13:27Z</time>
      </trkpt>
      <trkpt lat="47.45762" lon="-1.98683">
        <ele>5</ele>
        <time>2015-04-15T17:13:30Z</time>
      </trkpt>
      <trkpt lat="47.45762" lon="-1.98683">
        <ele>5</ele>
        <time>2015-04-15T17:13:34Z</time>
      </trkpt>
      <trkpt lat="47.45762" lon="-1.98683">
        <ele>5</ele>
        <time>2015-04-15T17:13:36Z</time>
      </trkpt>
      <trkpt lat="47.45762" lon="-1.98683">
        <ele>5</ele>
        <time>2015-04-15T17:13:39Z</time>
      </trkpt>
      <trkpt lat="47.45762" lon="-1.98683">
        <ele>5</ele>
        <time>2015-04-15T17:13:42Z</time>
      </trkpt>
      <trkpt lat="47.45762" lon="-1.98683">
        <ele>5</ele>
        <time>2015-04-15T17:13:45Z</time>
      </trkpt>
      <trkpt lat="47.45762" lon="-1.98683">
        <ele>5</ele>
        <time>2015-04-15T17:13:48Z</time>
      </trkpt>
      <trkpt lat="47.45762" lon="-1.98683">
        <ele>5</ele>
        <time>2015-04-15T17:13:51Z</time>
      </trkpt>
      <trkpt lat="47.45762" lon="-1.98683">
        <ele>5</ele>
        <time>2015-04-15T17:13:54Z</time>
      </trkpt>
      <trkpt lat="47.45762" lon="-1.98683">
        <ele>5</ele>
        <time>2015-04-15T17:13:57Z</time>
      </trkpt>
      <trkpt lat="47.45762" lon="-1.98683">
        <ele>5</ele>
        <time>2015-04-15T17:14:00Z</time>
      </trkpt>
      <trkpt lat="47.45762" lon="-1.98683">
        <ele>5</ele>
        <time>2015-04-15T17:14:03Z</time>
      </trkpt>
      <trkpt lat="47.45761" lon="-1.98683">
        <ele>7</ele>
        <time>2015-04-15T17:14:08Z</time>
      </trkpt>
      <trkpt lat="47.45755" lon="-1.98684">
        <ele>8</ele>
        <time>2015-04-15T17:14:12Z</time>
      </trkpt>
      <trkpt lat="47.45748" lon="-1.98684">
        <ele>9</ele>
        <time>2015-04-15T17:14:16Z</time>
      </trkpt>
      <trkpt lat="47.45736" lon="-1.98687">
        <ele>10</ele>
        <time>2015-04-15T17:14:21Z</time>
      </trkpt>
      <trkpt lat="47.45723" lon="-1.9869">
        <ele>10</ele>
        <time>2015-04-15T17:14:26Z</time>
      </trkpt>
      <trkpt lat="47.45711" lon="-1.98695">
        <ele>10</ele>
        <time>2015-04-15T17:14:31Z</time>
      </trkpt>
      <trkpt lat="47.45699" lon="-1.98702">
        <ele>9</ele>
        <time>2015-04-15T17:14:36Z</time>
      </trkpt>
      <trkpt lat="47.45685" lon="-1.98708">
        <ele>12</ele>
        <time>2015-04-15T17:14:42Z</time>
      </trkpt>
      <trkpt lat="47.45675" lon="-1.98711">
        <ele>11</ele>
        <time>2015-04-15T17:14:46Z</time>
      </trkpt>
      <trkpt lat="47.45659" lon="-1.98716">
        <ele>9</ele>
        <time>2015-04-15T17:14:52Z</time>
      </trkpt>
      <trkpt lat="47.45647" lon="-1.9872">
        <ele>10</ele>
        <time>2015-04-15T17:14:56Z</time>
      </trkpt>
      <trkpt lat="47.45627" lon="-1.98721">
        <ele>11</ele>
        <time>2015-04-15T17:15:02Z</time>
      </trkpt>
      <trkpt lat="47.45611" lon="-1.98721">
        <ele>7</ele>
        <time>2015-04-15T17:15:06Z</time>
      </trkpt>
      <trkpt lat="47.45578" lon="-1.98722">
        <ele>7</ele>
        <time>2015-04-15T17:15:15Z</time>
      </trkpt>
      <trkpt lat="47.45574" lon="-1.98722">
        <ele>6</ele>
        <time>2015-04-15T17:15:16Z</time>
      </trkpt>
      <trkpt lat="47.45563" lon="-1.98734">
        <ele>6</ele>
        <time>2015-04-15T17:15:21Z</time>
      </trkpt>
      <trkpt lat="47.45561" lon="-1.98763">
        <ele>5</ele>
        <time>2015-04-15T17:15:27Z</time>
      </trkpt>
      <trkpt lat="47.45561" lon="-1.98782">
        <ele>5</ele>
        <time>2015-04-15T17:15:31Z</time>
      </trkpt>
      <trkpt lat="47.45562" lon="-1.98805">
        <ele>7</ele>
        <time>2015-04-15T17:15:36Z</time>
      </trkpt>
      <trkpt lat="47.45563" lon="-1.98828">
        <ele>8</ele>
        <time>2015-04-15T17:15:41Z</time>
      </trkpt>
      <trkpt lat="47.45568" lon="-1.98871">
        <ele>10</ele>
        <time>2015-04-15T17:15:50Z</time>
      </trkpt>
      <trkpt lat="47.45569" lon="-1.98876">
        <ele>11</ele>
        <time>2015-04-15T17:15:51Z</time>
      </trkpt>
      <trkpt lat="47.4557" lon="-1.98913">
        <ele>10</ele>
        <time>2015-04-15T17:16:00Z</time>
      </trkpt>
      <trkpt lat="47.45574" lon="-1.9894">
        <ele>9</ele>
        <time>2015-04-15T17:16:05Z</time>
      </trkpt>
      <trkpt lat="47.45575" lon="-1.98945">
        <ele>9</ele>
        <time>2015-04-15T17:16:06Z</time>
      </trkpt>
      <trkpt lat="47.45579" lon="-1.9897">
        <ele>10</ele>
        <time>2015-04-15T17:16:11Z</time>
      </trkpt>
      <trkpt lat="47.45581" lon="-1.98993">
        <ele>11</ele>
        <time>2015-04-15T17:16:16Z</time>
      </trkpt>
      <trkpt lat="47.45582" lon="-1.99016">
        <ele>14</ele>
        <time>2015-04-15T17:16:21Z</time>
      </trkpt>
      <trkpt lat="47.45583" lon="-1.99046">
        <ele>14</ele>
        <time>2015-04-15T17:16:28Z</time>
      </trkpt>
      <trkpt lat="47.45583" lon="-1.99057">
        <ele>13</ele>
        <time>2015-04-15T17:16:31Z</time>
      </trkpt>
      <trkpt lat="47.45583" lon="-1.9908">
        <ele>13</ele>
        <time>2015-04-15T17:16:36Z</time>
      </trkpt>
      <trkpt lat="47.45583" lon="-1.99108">
        <ele>13</ele>
        <time>2015-04-15T17:16:41Z</time>
      </trkpt>
      <trkpt lat="47.45583" lon="-1.99135">
        <ele>13</ele>
        <time>2015-04-15T17:16:46Z</time>
      </trkpt>
      <trkpt lat="47.45584" lon="-1.99161">
        <ele>13</ele>
        <time>2015-04-15T17:16:51Z</time>
      </trkpt>
      <trkpt lat="47.45584" lon="-1.99186">
        <ele>14</ele>
        <time>2015-04-15T17:16:56Z</time>
      </trkpt>
      <trkpt lat="47.45582" lon="-1.99222">
        <ele>14</ele>
        <time>2015-04-15T17:17:03Z</time>
      </trkpt>
      <trkpt lat="47.45579" lon="-1.99237">
        <ele>14</ele>
        <time>2015-04-15T17:17:06Z</time>
      </trkpt>
      <trkpt lat="47.45571" lon="-1.99259">
        <ele>15</ele>
        <time>2015-04-15T17:17:11Z</time>
      </trkpt>
      <trkpt lat="47.4556" lon="-1.99281">
        <ele>15</ele>
        <time>2015-04-15T17:17:16Z</time>
      </trkpt>
      <trkpt lat="47.45549" lon="-1.99303">
        <ele>17</ele>
        <time>2015-04-15T17:17:21Z</time>
      </trkpt>
      <trkpt lat="47.45539" lon="-1.99322">
        <ele>17</ele>
        <time>2015-04-15T17:17:26Z</time>
      </trkpt>
      <trkpt lat="47.45511" lon="-1.99337">
        <ele>18</ele>
        <time>2015-04-15T17:17:35Z</time>
      </trkpt>
      <trkpt lat="47.45507" lon="-1.99337">
        <ele>19</ele>
        <time>2015-04-15T17:17:36Z</time>
      </trkpt>
      <trkpt lat="47.45487" lon="-1.99336">
        <ele>19</ele>
        <time>2015-04-15T17:17:42Z</time>
      </trkpt>
      <trkpt lat="47.45473" lon="-1.99337">
        <ele>19</ele>
        <time>2015-04-15T17:17:46Z</time>
      </trkpt>
      <trkpt lat="47.45455" lon="-1.99337">
        <ele>19</ele>
        <time>2015-04-15T17:17:51Z</time>
      </trkpt>
      <trkpt lat="47.45424" lon="-1.99337">
        <ele>20</ele>
        <time>2015-04-15T17:18:00Z</time>
      </trkpt>
      <trkpt lat="47.4542" lon="-1.99337">
        <ele>20</ele>
        <time>2015-04-15T17:18:01Z</time>
      </trkpt>
      <trkpt lat="47.45403" lon="-1.99338">
        <ele>20</ele>
        <time>2015-04-15T17:18:06Z</time>
      </trkpt>
      <trkpt lat="47.45371" lon="-1.99338">
        <ele>18</ele>
        <time>2015-04-15T17:18:14Z</time>
      </trkpt>
      <trkpt lat="47.45352" lon="-1.99339">
        <ele>18</ele>
        <time>2015-04-15T17:18:19Z</time>
      </trkpt>
      <trkpt lat="47.45341" lon="-1.99338">
        <ele>18</ele>
        <time>2015-04-15T17:18:22Z</time>
      </trkpt>
      <trkpt lat="47.45324" lon="-1.99336">
        <ele>19</ele>
        <time>2015-04-15T17:18:27Z</time>
      </trkpt>
      <trkpt lat="47.4531" lon="-1.99333">
        <ele>18</ele>
        <time>2015-04-15T17:18:31Z</time>
      </trkpt>
      <trkpt lat="47.45293" lon="-1.99327">
        <ele>18</ele>
        <time>2015-04-15T17:18:36Z</time>
      </trkpt>
      <trkpt lat="47.45276" lon="-1.99318">
        <ele>18</ele>
        <time>2015-04-15T17:18:41Z</time>
      </trkpt>
      <trkpt lat="47.45248" lon="-1.99296">
        <ele>19</ele>
        <time>2015-04-15T17:18:50Z</time>
      </trkpt>
      <trkpt lat="47.45245" lon="-1.99293">
        <ele>19</ele>
        <time>2015-04-15T17:18:51Z</time>
      </trkpt>
      <trkpt lat="47.45227" lon="-1.99278">
        <ele>20</ele>
        <time>2015-04-15T17:18:57Z</time>
      </trkpt>
      <trkpt lat="47.45216" lon="-1.99267">
        <ele>21</ele>
        <time>2015-04-15T17:19:01Z</time>
      </trkpt>
      <trkpt lat="47.45191" lon="-1.99247">
        <ele>18</ele>
        <time>2015-04-15T17:19:09Z</time>
      </trkpt>
      <trkpt lat="47.45184" lon="-1.99242">
        <ele>17</ele>
        <time>2015-04-15T17:19:11Z</time>
      </trkpt>
      <trkpt lat="47.45164" lon="-1.99229">
        <ele>17</ele>
        <time>2015-04-15T17:19:16Z</time>
      </trkpt>
      <trkpt lat="47.45143" lon="-1.99222">
        <ele>17</ele>
        <time>2015-04-15T17:19:21Z</time>
      </trkpt>
      <trkpt lat="47.45129" lon="-1.99219">
        <ele>17</ele>
        <time>2015-04-15T17:19:26Z</time>
      </trkpt>
      <trkpt lat="47.45122" lon="-1.99204">
        <ele>16</ele>
        <time>2015-04-15T17:19:31Z</time>
      </trkpt>
      <trkpt lat="47.45123" lon="-1.99181">
        <ele>16</ele>
        <time>2015-04-15T17:19:36Z</time>
      </trkpt>
      <trkpt lat="47.45125" lon="-1.99158">
        <ele>18</ele>
        <time>2015-04-15T17:19:41Z</time>
      </trkpt>
      <trkpt lat="47.45123" lon="-1.99132">
        <ele>17</ele>
        <time>2015-04-15T17:19:46Z</time>
      </trkpt>
      <trkpt lat="47.45111" lon="-1.99115">
        <ele>18</ele>
        <time>2015-04-15T17:19:51Z</time>
      </trkpt>
      <trkpt lat="47.45095" lon="-1.99114">
        <ele>18</ele>
        <time>2015-04-15T17:19:56Z</time>
      </trkpt>
      <trkpt lat="47.45079" lon="-1.99113">
        <ele>19</ele>
        <time>2015-04-15T17:20:01Z</time>
      </trkpt>
      <trkpt lat="47.45062" lon="-1.99111">
        <ele>22</ele>
        <time>2015-04-15T17:20:06Z</time>
      </trkpt>
      <trkpt lat="47.45047" lon="-1.99108">
        <ele>23</ele>
        <time>2015-04-15T17:20:11Z</time>
      </trkpt>
      <trkpt lat="47.45027" lon="-1.99106">
        <ele>23</ele>
        <time>2015-04-15T17:20:17Z</time>
      </trkpt>
      <trkpt lat="47.45014" lon="-1.99104">
        <ele>24</ele>
        <time>2015-04-15T17:20:21Z</time>
      </trkpt>
      <trkpt lat="47.4499" lon="-1.99103">
        <ele>21</ele>
        <time>2015-04-15T17:20:28Z</time>
      </trkpt>
      <trkpt lat="47.44977" lon="-1.99102">
        <ele>20</ele>
        <time>2015-04-15T17:20:32Z</time>
      </trkpt>
      <trkpt lat="47.44964" lon="-1.991">
        <ele>21</ele>
        <time>2015-04-15T17:20:36Z</time>
      </trkpt>
      <trkpt lat="47.44948" lon="-1.99099">
        <ele>22</ele>
        <time>2015-04-15T17:20:41Z</time>
      </trkpt>
      <trkpt lat="47.44921" lon="-1.99094">
        <ele>21</ele>
        <time>2015-04-15T17:20:50Z</time>
      </trkpt>
      <trkpt lat="47.4491" lon="-1.99089">
        <ele>23</ele>
        <time>2015-04-15T17:20:54Z</time>
      </trkpt>
      <trkpt lat="47.44902" lon="-1.99085">
        <ele>23</ele>
        <time>2015-04-15T17:20:57Z</time>
      </trkpt>
      <trkpt lat="47.44884" lon="-1.99077">
        <ele>21</ele>
        <time>2015-04-15T17:21:03Z</time>
      </trkpt>
      <trkpt lat="47.44861" lon="-1.99071">
        <ele>23</ele>
        <time>2015-04-15T17:21:11Z</time>
      </trkpt>
      <trkpt lat="47.44857" lon="-1.99071">
        <ele>22</ele>
        <time>2015-04-15T17:21:12Z</time>
      </trkpt>
      <trkpt lat="47.44833" lon="-1.99065">
        <ele>21</ele>
        <time>2015-04-15T17:21:18Z</time>
      </trkpt>
      <trkpt lat="47.44799" lon="-1.99051">
        <ele>23</ele>
        <time>2015-04-15T17:21:26Z</time>
      </trkpt>
      <trkpt lat="47.44798" lon="-1.9905">
        <ele>21</ele>
        <time>2015-04-15T17:21:27Z</time>
      </trkpt>
      <trkpt lat="47.44796" lon="-1.99043">
        <ele>21</ele>
        <time>2015-04-15T17:21:32Z</time>
      </trkpt>
      <trkpt lat="47.44798" lon="-1.99035">
        <ele>25</ele>
        <time>2015-04-15T17:21:39Z</time>
      </trkpt>
      <trkpt lat="47.44798" lon="-1.99031">
        <ele>24</ele>
        <time>2015-04-15T17:21:42Z</time>
      </trkpt>
      <trkpt lat="47.44802" lon="-1.99016">
        <ele>24</ele>
        <time>2015-04-15T17:21:50Z</time>
      </trkpt>
      <trkpt lat="47.44797" lon="-1.99005">
        <ele>22</ele>
        <time>2015-04-15T17:21:54Z</time>
      </trkpt>
      <trkpt lat="47.44795" lon="-1.98998">
        <ele>21</ele>
        <time>2015-04-15T17:21:57Z</time>
      </trkpt>
      <trkpt lat="47.44809" lon="-1.9898">
        <ele>23</ele>
        <time>2015-04-15T17:22:06Z</time>
      </trkpt>
      <trkpt lat="47.44809" lon="-1.98977">
        <ele>26</ele>
        <time>2015-04-15T17:22:07Z</time>
      </trkpt>
      <trkpt lat="47.44802" lon="-1.98962">
        <ele>25</ele>
        <time>2015-04-15T17:22:12Z</time>
      </trkpt>
      <trkpt lat="47.44821" lon="-1.98917">
        <ele>25</ele>
        <time>2015-04-15T17:22:21Z</time>
      </trkpt>
      <trkpt lat="47.44821" lon="-1.98913">
        <ele>25</ele>
        <time>2015-04-15T17:22:22Z</time>
      </trkpt>
      <trkpt lat="47.44845" lon="-1.98915">
        <ele>32</ele>
        <time>2015-04-15T17:22:31Z</time>
      </trkpt>
      <trkpt lat="47.44839" lon="-1.98924">
        <ele>33</ele>
        <time>2015-04-15T17:22:36Z</time>
      </trkpt>
      <trkpt lat="47.44837" lon="-1.98918">
        <ele>31</ele>
        <time>2015-04-15T17:22:40Z</time>
      </trkpt>
      <trkpt lat="47.4483" lon="-1.98925">
        <ele>33</ele>
        <time>2015-04-15T17:22:45Z</time>
      </trkpt>
      <trkpt lat="47.44826" lon="-1.98939">
        <ele>32</ele>
        <time>2015-04-15T17:22:50Z</time>
      </trkpt>
      <trkpt lat="47.44824" lon="-1.98947">
        <ele>31</ele>
        <time>2015-04-15T17:22:52Z</time>
      </trkpt>
      <trkpt lat="47.44839" lon="-1.98954">
        <ele>30</ele>
        <time>2015-04-15T17:23:00Z</time>
      </trkpt>
      <trkpt lat="47.44844" lon="-1.98968">
        <ele>30</ele>
        <time>2015-04-15T17:23:05Z</time>
      </trkpt>
      <trkpt lat="47.44852" lon="-1.98963">
        <ele>32</ele>
        <time>2015-04-15T17:23:09Z</time>
      </trkpt>
      <trkpt lat="47.44856" lon="-1.98951">
        <ele>29</ele>
        <time>2015-04-15T17:23:15Z</time>
      </trkpt>
      <trkpt lat="47.44861" lon="-1.98949">
        <ele>25</ele>
        <time>2015-04-15T17:23:17Z</time>
      </trkpt>
      <trkpt lat="47.44869" lon="-1.98934">
        <ele>29</ele>
        <time>2015-04-15T17:23:23Z</time>
      </trkpt>
      <trkpt lat="47.4486" lon="-1.98923">
        <ele>28</ele>
        <time>2015-04-15T17:23:27Z</time>
      </trkpt>
      <trkpt lat="47.44853" lon="-1.98902">
        <ele>26</ele>
        <time>2015-04-15T17:23:32Z</time>
      </trkpt>
      <trkpt lat="47.4485" lon="-1.98879">
        <ele>24</ele>
        <time>2015-04-15T17:23:38Z</time>
      </trkpt>
      <trkpt lat="47.44851" lon="-1.98873">
        <ele>20</ele>
        <time>2015-04-15T17:23:42Z</time>
      </trkpt>
      <trkpt lat="47.44836" lon="-1.98853">
        <ele>20</ele>
        <time>2015-04-15T17:23:49Z</time>
      </trkpt>
      <trkpt lat="47.44817" lon="-1.98853">
        <ele>24</ele>
        <time>2015-04-15T17:23:55Z</time>
      </trkpt>
      <trkpt lat="47.44811" lon="-1.98855">
        <ele>25</ele>
        <time>2015-04-15T17:23:57Z</time>
      </trkpt>
      <trkpt lat="47.44778" lon="-1.98816">
        <ele>12</ele>
        <time>2015-04-15T17:24:06Z</time>
      </trkpt>
      <trkpt lat="47.44781" lon="-1.98816">
        <ele>11</ele>
        <time>2015-04-15T17:24:07Z</time>
      </trkpt>
      <trkpt lat="47.44797" lon="-1.98819">
        <ele>12</ele>
        <time>2015-04-15T17:24:13Z</time>
      </trkpt>
      <trkpt lat="47.44814" lon="-1.98833">
        <ele>10</ele>
        <time>2015-04-15T17:24:19Z</time>
      </trkpt>
      <trkpt lat="47.44826" lon="-1.98837">
        <ele>13</ele>
        <time>2015-04-15T17:24:22Z</time>
      </trkpt>
      <trkpt lat="47.44855" lon="-1.98837">
        <ele>20</ele>
        <time>2015-04-15T17:24:30Z</time>
      </trkpt>
      <trkpt lat="47.44857" lon="-1.98828">
        <ele>21</ele>
        <time>2015-04-15T17:24:32Z</time>
      </trkpt>
      <trkpt lat="47.44825" lon="-1.98811">
        <ele>19</ele>
        <time>2015-04-15T17:24:40Z</time>
      </trkpt>
      <trkpt lat="47.44807" lon="-1.98805">
        <ele>17</ele>
        <time>2015-04-15T17:24:44Z</time>
      </trkpt>
      <trkpt lat="47.44795" lon="-1.98797">
        <ele>16</ele>
        <time>2015-04-15T17:24:47Z</time>
      </trkpt>
      <trkpt lat="47.44785" lon="-1.98783">
        <ele>15</ele>
        <time>2015-04-15T17:24:52Z</time>
      </trkpt>
      <trkpt lat="47.44773" lon="-1.98782">
        <ele>14</ele>
        <time>2015-04-15T17:25:01Z</time>
      </trkpt>
      <trkpt lat="47.44773" lon="-1.98783">
        <ele>14</ele>
        <time>2015-04-15T17:25:02Z</time>
      </trkpt>
      <trkpt lat="47.44773" lon="-1.98783">
        <ele>16</ele>
        <time>2015-04-15T17:25:05Z</time>
      </trkpt>
      <trkpt lat="47.44772" lon="-1.98783">
        <ele>14</ele>
        <time>2015-04-15T17:25:08Z</time>
      </trkpt>
      <trkpt lat="47.44771" lon="-1.98783">
        <ele>13</ele>
        <time>2015-04-15T17:25:11Z</time>
      </trkpt>
      <trkpt lat="47.44767" lon="-1.98789">
        <ele>17</ele>
        <time>2015-04-15T17:25:16Z</time>
      </trkpt>
      <trkpt lat="47.44761" lon="-1.98783">
        <ele>15</ele>
        <time>2015-04-15T17:25:19Z</time>
      </trkpt>
      <trkpt lat="47.44754" lon="-1.98794">
        <ele>19</ele>
        <time>2015-04-15T17:25:24Z</time>
      </trkpt>
      <trkpt lat="47.44743" lon="-1.98813">
        <ele>17</ele>
        <time>2015-04-15T17:25:30Z</time>
      </trkpt>
      <trkpt lat="47.44747" lon="-1.98833">
        <ele>16</ele>
        <time>2015-04-15T17:25:35Z</time>
      </trkpt>
      <trkpt lat="47.4476" lon="-1.98851">
        <ele>16</ele>
        <time>2015-04-15T17:25:39Z</time>
      </trkpt>
      <trkpt lat="47.44777" lon="-1.98872">
        <ele>19</ele>
        <time>2015-04-15T17:25:48Z</time>
      </trkpt>
      <trkpt lat="47.44774" lon="-1.98872">
        <ele>17</ele>
        <time>2015-04-15T17:25:51Z</time>
      </trkpt>
      <trkpt lat="47.44768" lon="-1.98868">
        <ele>18</ele>
        <time>2015-04-15T17:25:54Z</time>
      </trkpt>
      <trkpt lat="47.44753" lon="-1.98864">
        <ele>18</ele>
        <time>2015-04-15T17:25:59Z</time>
      </trkpt>
      <trkpt lat="47.44727" lon="-1.98859">
        <ele>15</ele>
        <time>2015-04-15T17:26:07Z</time>
      </trkpt>
      <trkpt lat="47.44728" lon="-1.98862">
        <ele>15</ele>
        <time>2015-04-15T17:26:09Z</time>
      </trkpt>
      <trkpt lat="47.44737" lon="-1.98875">
        <ele>20</ele>
        <time>2015-04-15T17:26:15Z</time>
      </trkpt>
      <trkpt lat="47.44741" lon="-1.9889">
        <ele>22</ele>
        <time>2015-04-15T17:26:20Z</time>
      </trkpt>
      <trkpt lat="47.4475" lon="-1.98893">
        <ele>20</ele>
        <time>2015-04-15T17:26:24Z</time>
      </trkpt>
      <trkpt lat="47.44766" lon="-1.98899">
        <ele>23</ele>
        <time>2015-04-15T17:26:30Z</time>
      </trkpt>
      <trkpt lat="47.44787" lon="-1.98896">
        <ele>20</ele>
        <time>2015-04-15T17:26:37Z</time>
      </trkpt>
      <trkpt lat="47.4479" lon="-1.989">
        <ele>22</ele>
        <time>2015-04-15T17:26:41Z</time>
      </trkpt>
      <trkpt lat="47.44791" lon="-1.98899">
        <ele>24</ele>
        <time>2015-04-15T17:26:44Z</time>
      </trkpt>
      <trkpt lat="47.44791" lon="-1.98899">
        <ele>25</ele>
        <time>2015-04-15T17:26:49Z</time>
      </trkpt>
      <trkpt lat="47.44791" lon="-1.98898">
        <ele>24</ele>
        <time>2015-04-15T17:26:50Z</time>
      </trkpt>
      <trkpt lat="47.44791" lon="-1.98898">
        <ele>24</ele>
        <time>2015-04-15T17:26:53Z</time>
      </trkpt>
      <trkpt lat="47.44791" lon="-1.98898">
        <ele>24</ele>
        <time>2015-04-15T17:26:56Z</time>
      </trkpt>
      <trkpt lat="47.4479" lon="-1.98897">
        <ele>26</ele>
        <time>2015-04-15T17:26:59Z</time>
      </trkpt>
      <trkpt lat="47.44789" lon="-1.98897">
        <ele>23</ele>
        <time>2015-04-15T17:27:02Z</time>
      </trkpt>
      <trkpt lat="47.44788" lon="-1.98895">
        <ele>26</ele>
        <time>2015-04-15T17:27:07Z</time>
      </trkpt>
      <trkpt lat="47.44788" lon="-1.98894">
        <ele>27</ele>
        <time>2015-04-15T17:27:10Z</time>
      </trkpt>
      <trkpt lat="47.44788" lon="-1.98894">
        <ele>27</ele>
        <time>2015-04-15T17:27:13Z</time>
      </trkpt>
      <trkpt lat="47.44788" lon="-1.98894">
        <ele>27</ele>
        <time>2015-04-15T17:27:17Z</time>
      </trkpt>
      <trkpt lat="47.44788" lon="-1.98894">
        <ele>27</ele>
        <time>2015-04-15T17:27:19Z</time>
      </trkpt>
      <trkpt lat="47.44788" lon="-1.98894">
        <ele>27</ele>
        <time>2015-04-15T17:27:22Z</time>
      </trkpt>
      <trkpt lat="47.44788" lon="-1.98894">
        <ele>27</ele>
        <time>2015-04-15T17:27:25Z</time>
      </trkpt>
      <trkpt lat="47.44788" lon="-1.98894">
        <ele>28</ele>
        <time>2015-04-15T17:27:28Z</time>
      </trkpt>
      <trkpt lat="47.44788" lon="-1.98894">
        <ele>28</ele>
        <time>2015-04-15T17:27:31Z</time>
      </trkpt>
      <trkpt lat="47.44788" lon="-1.98894">
        <ele>28</ele>
        <time>2015-04-15T17:27:36Z</time>
      </trkpt>
      <trkpt lat="47.44788" lon="-1.98894">
        <ele>28</ele>
        <time>2015-04-15T17:27:37Z</time>
      </trkpt>
      <trkpt lat="47.44788" lon="-1.98894">
        <ele>28</ele>
        <time>2015-04-15T17:27:41Z</time>
      </trkpt>
      <trkpt lat="47.44788" lon="-1.98894">
        <ele>28</ele>
        <time>2015-04-15T17:27:45Z</time>
      </trkpt>
      <trkpt lat="47.44788" lon="-1.98894">
        <ele>28</ele>
        <time>2015-04-15T17:27:46Z</time>
      </trkpt>
      <trkpt lat="47.44788" lon="-1.98894">
        <ele>28</ele>
        <time>2015-04-15T17:27:49Z</time>
      </trkpt>
      <trkpt lat="47.44788" lon="-1.98894">
        <ele>28</ele>
        <time>2015-04-15T17:27:52Z</time>
      </trkpt>
      <trkpt lat="47.44788" lon="-1.98894">
        <ele>25</ele>
        <time>2015-04-15T17:27:57Z</time>
      </trkpt>
      <trkpt lat="47.44788" lon="-1.98895">
        <ele>24</ele>
        <time>2015-04-15T17:28:02Z</time>
      </trkpt>
      <trkpt lat="47.44788" lon="-1.98895">
        <ele>24</ele>
        <time>2015-04-15T17:28:03Z</time>
      </trkpt>
      <trkpt lat="47.44788" lon="-1.98896">
        <ele>25</ele>
        <time>2015-04-15T17:28:06Z</time>
      </trkpt>
      <trkpt lat="47.4479" lon="-1.98897">
        <ele>25</ele>
        <time>2015-04-15T17:28:09Z</time>
      </trkpt>
      <trkpt lat="47.4479" lon="-1.98898">
        <ele>25</ele>
        <time>2015-04-15T17:28:15Z</time>
      </trkpt>
      <trkpt lat="47.4479" lon="-1.98898">
        <ele>25</ele>
        <time>2015-04-15T17:28:17Z</time>
      </trkpt>
      <trkpt lat="47.4479" lon="-1.98898">
        <ele>25</ele>
        <time>2015-04-15T17:28:20Z</time>
      </trkpt>
      <trkpt lat="47.4479" lon="-1.98898">
        <ele>25</ele>
        <time>2015-04-15T17:28:23Z</time>
      </trkpt>
      <trkpt lat="47.4479" lon="-1.98897">
        <ele>25</ele>
        <time>2015-04-15T17:28:26Z</time>
      </trkpt>
      <trkpt lat="47.44792" lon="-1.989">
        <ele>25</ele>
        <time>2015-04-15T17:28:32Z</time>
      </trkpt>
      <trkpt lat="47.44792" lon="-1.98901">
        <ele>25</ele>
        <time>2015-04-15T17:28:34Z</time>
      </trkpt>
      <trkpt lat="47.44793" lon="-1.98901">
        <ele>24</ele>
        <time>2015-04-15T17:28:37Z</time>
      </trkpt>
      <trkpt lat="47.44793" lon="-1.98901">
        <ele>24</ele>
        <time>2015-04-15T17:28:40Z</time>
      </trkpt>
      <trkpt lat="47.44793" lon="-1.98901">
        <ele>24</ele>
        <time>2015-04-15T17:28:43Z</time>
      </trkpt>
      <trkpt lat="47.44793" lon="-1.98901">
        <ele>24</ele>
        <time>2015-04-15T17:28:46Z</time>
      </trkpt>
      <trkpt lat="47.44793" lon="-1.98901">
        <ele>24</ele>
        <time>2015-04-15T17:28:51Z</time>
      </trkpt>
      <trkpt lat="47.44793" lon="-1.98901">
        <ele>24</ele>
        <time>2015-04-15T17:28:52Z</time>
      </trkpt>
      <trkpt lat="47.44793" lon="-1.98901">
        <ele>24</ele>
        <time>2015-04-15T17:28:55Z</time>
      </trkpt>
      <trkpt lat="47.44793" lon="-1.98901">
        <ele>24</ele>
        <time>2015-04-15T17:28:58Z</time>
      </trkpt>
      <trkpt lat="47.44793" lon="-1.98901">
        <ele>24</ele>
        <time>2015-04-15T17:29:01Z</time>
      </trkpt>
      <trkpt lat="47.44793" lon="-1.98901">
        <ele>24</ele>
        <time>2015-04-15T17:29:04Z</time>
      </trkpt>
      <trkpt lat="47.44793" lon="-1.98901">
        <ele>24</ele>
        <time>2015-04-15T17:29:07Z</time>
      </trkpt>
      <trkpt lat="47.44793" lon="-1.98901">
        <ele>24</ele>
        <time>2015-04-15T17:29:10Z</time>
      </trkpt>
      <trkpt lat="47.44793" lon="-1.98901">
        <ele>24</ele>
        <time>2015-04-15T17:29:13Z</time>
      </trkpt>
      <trkpt lat="47.44793" lon="-1.98901">
        <ele>24</ele>
        <time>2015-04-15T17:29:16Z</time>
      </trkpt>
      <trkpt lat="47.44793" lon="-1.98903">
        <ele>24</ele>
        <time>2015-04-15T17:29:19Z</time>
      </trkpt>
      <trkpt lat="47.44792" lon="-1.98915">
        <ele>22</ele>
        <time>2015-04-15T17:29:24Z</time>
      </trkpt>
      <trkpt lat="47.44787" lon="-1.98944">
        <ele>22</ele>
        <time>2015-04-15T17:29:33Z</time>
      </trkpt>
      <trkpt lat="47.44783" lon="-1.98964">
        <ele>19</ele>
        <time>2015-04-15T17:29:37Z</time>
      </trkpt>
      <trkpt lat="47.44776" lon="-1.98994">
        <ele>16</ele>
        <time>2015-04-15T17:29:43Z</time>
      </trkpt>
      <trkpt lat="47.44772" lon="-1.9902">
        <ele>18</ele>
        <time>2015-04-15T17:29:48Z</time>
      </trkpt>
      <trkpt lat="47.44768" lon="-1.99034">
        <ele>18</ele>
        <time>2015-04-15T17:29:52Z</time>
      </trkpt>
      <trkpt lat="47.44768" lon="-1.99032">
        <ele>18</ele>
        <time>2015-04-15T17:29:55Z</time>
      </trkpt>
      <trkpt lat="47.44768" lon="-1.99032">
        <ele>17</ele>
        <time>2015-04-15T17:29:57Z</time>
      </trkpt>
      <trkpt lat="47.44768" lon="-1.99033">
        <ele>18</ele>
        <time>2015-04-15T17:30:00Z</time>
      </trkpt>
      <trkpt lat="47.44768" lon="-1.99034">
        <ele>18</ele>
        <time>2015-04-15T17:30:03Z</time>
      </trkpt>
      <trkpt lat="47.44768" lon="-1.99036">
        <ele>18</ele>
        <time>2015-04-15T17:30:06Z</time>
      </trkpt>
      <trkpt lat="47.44768" lon="-1.99037">
        <ele>18</ele>
        <time>2015-04-15T17:30:11Z</time>
      </trkpt>
      <trkpt lat="47.44767" lon="-1.99037">
        <ele>18</ele>
        <time>2015-04-15T17:30:14Z</time>
      </trkpt>
      <trkpt lat="47.44764" lon="-1.99035">
        <ele>19</ele>
        <time>2015-04-15T17:30:17Z</time>
      </trkpt>
      <trkpt lat="47.44743" lon="-1.99025">
        <ele>16</ele>
        <time>2015-04-15T17:30:22Z</time>
      </trkpt>
      <trkpt lat="47.44723" lon="-1.99015">
        <ele>15</ele>
        <time>2015-04-15T17:30:27Z</time>
      </trkpt>
      <trkpt lat="47.4469" lon="-1.98996">
        <ele>16</ele>
        <time>2015-04-15T17:30:33Z</time>
      </trkpt>
      <trkpt lat="47.44669" lon="-1.98988">
        <ele>13</ele>
        <time>2015-04-15T17:30:37Z</time>
      </trkpt>
      <trkpt lat="47.44649" lon="-1.98975">
        <ele>10</ele>
        <time>2015-04-15T17:30:42Z</time>
      </trkpt>
      <trkpt lat="47.44626" lon="-1.98961">
        <ele>9</ele>
        <time>2015-04-15T17:30:47Z</time>
      </trkpt>
      <trkpt lat="47.44601" lon="-1.98943">
        <ele>16</ele>
        <time>2015-04-15T17:30:53Z</time>
      </trkpt>
      <trkpt lat="47.44578" lon="-1.98933">
        <ele>16</ele>
        <time>2015-04-15T17:30:57Z</time>
      </trkpt>
      <trkpt lat="47.44549" lon="-1.98915">
        <ele>14</ele>
        <time>2015-04-15T17:31:02Z</time>
      </trkpt>
      <trkpt lat="47.44509" lon="-1.98894">
        <ele>15</ele>
        <time>2015-04-15T17:31:10Z</time>
      </trkpt>
      <trkpt lat="47.44499" lon="-1.98888">
        <ele>15</ele>
        <time>2015-04-15T17:31:12Z</time>
      </trkpt>
      <trkpt lat="47.44476" lon="-1.98874">
        <ele>17</ele>
        <time>2015-04-15T17:31:17Z</time>
      </trkpt>
      <trkpt lat="47.44453" lon="-1.98859">
        <ele>13</ele>
        <time>2015-04-15T17:31:22Z</time>
      </trkpt>
      <trkpt lat="47.44418" lon="-1.9884">
        <ele>11</ele>
        <time>2015-04-15T17:31:30Z</time>
      </trkpt>
      <trkpt lat="47.44399" lon="-1.98837">
        <ele>15</ele>
        <time>2015-04-15T17:31:35Z</time>
      </trkpt>
      <trkpt lat="47.44396" lon="-1.98846">
        <ele>17</ele>
        <time>2015-04-15T17:31:37Z</time>
      </trkpt>
      <trkpt lat="47.44389" lon="-1.98876">
        <ele>17</ele>
        <time>2015-04-15T17:31:42Z</time>
      </trkpt>
      <trkpt lat="47.44383" lon="-1.98906">
        <ele>14</ele>
        <time>2015-04-15T17:31:47Z</time>
      </trkpt>
      <trkpt lat="47.44379" lon="-1.98929">
        <ele>14</ele>
        <time>2015-04-15T17:31:52Z</time>
      </trkpt>
      <trkpt lat="47.44386" lon="-1.98955">
        <ele>16</ele>
        <time>2015-04-15T17:32:00Z</time>
      </trkpt>
      <trkpt lat="47.44391" lon="-1.98955">
        <ele>19</ele>
        <time>2015-04-15T17:32:02Z</time>
      </trkpt>
      <trkpt lat="47.44408" lon="-1.98953">
        <ele>34</ele>
        <time>2015-04-15T17:32:10Z</time>
      </trkpt>
      <trkpt lat="47.44408" lon="-1.98948">
        <ele>39</ele>
        <time>2015-04-15T17:32:13Z</time>
      </trkpt>
      <trkpt lat="47.44422" lon="-1.98928">
        <ele>38</ele>
        <time>2015-04-15T17:32:21Z</time>
      </trkpt>
      <trkpt lat="47.44425" lon="-1.98927">
        <ele>39</ele>
        <time>2015-04-15T17:32:22Z</time>
      </trkpt>
      <trkpt lat="47.44437" lon="-1.98924">
        <ele>43</ele>
        <time>2015-04-15T17:32:27Z</time>
      </trkpt>
      <trkpt lat="47.44453" lon="-1.98925">
        <ele>42</ele>
        <time>2015-04-15T17:32:33Z</time>
      </trkpt>
      <trkpt lat="47.44453" lon="-1.98954">
        <ele>34</ele>
        <time>2015-04-15T17:32:37Z</time>
      </trkpt>
      <trkpt lat="47.44452" lon="-1.98972">
        <ele>34</ele>
        <time>2015-04-15T17:32:42Z</time>
      </trkpt>
      <trkpt lat="47.44449" lon="-1.98992">
        <ele>30</ele>
        <time>2015-04-15T17:32:50Z</time>
      </trkpt>
      <trkpt lat="47.44449" lon="-1.98999">
        <ele>32</ele>
        <time>2015-04-15T17:32:52Z</time>
      </trkpt>
      <trkpt lat="47.44439" lon="-1.99021">
        <ele>28</ele>
        <time>2015-04-15T17:33:01Z</time>
      </trkpt>
      <trkpt lat="47.44438" lon="-1.99023">
        <ele>32</ele>
        <time>2015-04-15T17:33:02Z</time>
      </trkpt>
      <trkpt lat="47.44439" lon="-1.99037">
        <ele>30</ele>
        <time>2015-04-15T17:33:07Z</time>
      </trkpt>
      <trkpt lat="47.44433" lon="-1.99037">
        <ele>25</ele>
        <time>2015-04-15T17:33:12Z</time>
      </trkpt>
      <trkpt lat="47.44418" lon="-1.99043">
        <ele>19</ele>
        <time>2015-04-15T17:33:21Z</time>
      </trkpt>
      <trkpt lat="47.44416" lon="-1.99043">
        <ele>19</ele>
        <time>2015-04-15T17:33:22Z</time>
      </trkpt>
      <trkpt lat="47.44404" lon="-1.9903">
        <ele>24</ele>
        <time>2015-04-15T17:33:30Z</time>
      </trkpt>
      <trkpt lat="47.44386" lon="-1.99027">
        <ele>21</ele>
        <time>2015-04-15T17:33:36Z</time>
      </trkpt>
      <trkpt lat="47.44384" lon="-1.99029">
        <ele>21</ele>
        <time>2015-04-15T17:33:37Z</time>
      </trkpt>
      <trkpt lat="47.44372" lon="-1.9901">
        <ele>28</ele>
        <time>2015-04-15T17:33:46Z</time>
      </trkpt>
      <trkpt lat="47.44369" lon="-1.99009">
        <ele>28</ele>
        <time>2015-04-15T17:33:47Z</time>
      </trkpt>
      <trkpt lat="47.44362" lon="-1.99006">
        <ele>23</ele>
        <time>2015-04-15T17:33:52Z</time>
      </trkpt>
      <trkpt lat="47.4435" lon="-1.99003">
        <ele>22</ele>
        <time>2015-04-15T17:33:57Z</time>
      </trkpt>
      <trkpt lat="47.44338" lon="-1.98995">
        <ele>17</ele>
        <time>2015-04-15T17:34:03Z</time>
      </trkpt>
      <trkpt lat="47.44316" lon="-1.99">
        <ele>16</ele>
        <time>2015-04-15T17:34:10Z</time>
      </trkpt>
      <trkpt lat="47.44313" lon="-1.98991">
        <ele>15</ele>
        <time>2015-04-15T17:34:12Z</time>
      </trkpt>
      <trkpt lat="47.44316" lon="-1.98974">
        <ele>17</ele>
        <time>2015-04-15T17:34:18Z</time>
      </trkpt>
      <trkpt lat="47.44327" lon="-1.98979">
        <ele>16</ele>
        <time>2015-04-15T17:34:24Z</time>
      </trkpt>
      <trkpt lat="47.44339" lon="-1.98971">
        <ele>19</ele>
        <time>2015-04-15T17:34:31Z</time>
      </trkpt>
      <trkpt lat="47.44336" lon="-1.98968">
        <ele>20</ele>
        <time>2015-04-15T17:34:32Z</time>
      </trkpt>
      <trkpt lat="47.44318" lon="-1.98969">
        <ele>23</ele>
        <time>2015-04-15T17:34:37Z</time>
      </trkpt>
      <trkpt lat="47.443" lon="-1.98964">
        <ele>24</ele>
        <time>2015-04-15T17:34:44Z</time>
      </trkpt>
      <trkpt lat="47.44287" lon="-1.98968">
        <ele>18</ele>
        <time>2015-04-15T17:34:47Z</time>
      </trkpt>
      <trkpt lat="47.44273" lon="-1.98956">
        <ele>18</ele>
        <time>2015-04-15T17:34:54Z</time>
      </trkpt>
      <trkpt lat="47.44281" lon="-1.98953">
        <ele>17</ele>
        <time>2015-04-15T17:34:57Z</time>
      </trkpt>
      <trkpt lat="47.44294" lon="-1.98928">
        <ele>19</ele>
        <time>2015-04-15T17:35:06Z</time>
      </trkpt>
      <trkpt lat="47.44295" lon="-1.98924">
        <ele>20</ele>
        <time>2015-04-15T17:35:07Z</time>
      </trkpt>
      <trkpt lat="47.44307" lon="-1.98917">
        <ele>14</ele>
        <time>2015-04-15T17:35:12Z</time>
      </trkpt>
      <trkpt lat="47.44301" lon="-1.98897">
        <ele>14</ele>
        <time>2015-04-15T17:35:20Z</time>
      </trkpt>
      <trkpt lat="47.44293" lon="-1.98891">
        <ele>12</ele>
        <time>2015-04-15T17:35:22Z</time>
      </trkpt>
      <trkpt lat="47.44297" lon="-1.98884">
        <ele>14</ele>
        <time>2015-04-15T17:35:28Z</time>
      </trkpt>
      <trkpt lat="47.44327" lon="-1.98913">
        <ele>14</ele>
        <time>2015-04-15T17:35:35Z</time>
      </trkpt>
      <trkpt lat="47.44333" lon="-1.98921">
        <ele>14</ele>
        <time>2015-04-15T17:35:37Z</time>
      </trkpt>
      <trkpt lat="47.44347" lon="-1.98939">
        <ele>17</ele>
        <time>2015-04-15T17:35:42Z</time>
      </trkpt>
      <trkpt lat="47.44376" lon="-1.98924">
        <ele>19</ele>
        <time>2015-04-15T17:35:51Z</time>
      </trkpt>
      <trkpt lat="47.44377" lon="-1.9892">
        <ele>19</ele>
        <time>2015-04-15T17:35:52Z</time>
      </trkpt>
      <trkpt lat="47.4438" lon="-1.98895">
        <ele>20</ele>
        <time>2015-04-15T17:35:58Z</time>
      </trkpt>
      <trkpt lat="47.44382" lon="-1.9888">
        <ele>22</ele>
        <time>2015-04-15T17:36:02Z</time>
      </trkpt>
      <trkpt lat="47.44385" lon="-1.98863">
        <ele>22</ele>
        <time>2015-04-15T17:36:07Z</time>
      </trkpt>
      <trkpt lat="47.44388" lon="-1.98845">
        <ele>20</ele>
        <time>2015-04-15T17:36:13Z</time>
      </trkpt>
      <trkpt lat="47.4439" lon="-1.98834">
        <ele>20</ele>
        <time>2015-04-15T17:36:17Z</time>
      </trkpt>
      <trkpt lat="47.44387" lon="-1.98825">
        <ele>17</ele>
        <time>2015-04-15T17:36:22Z</time>
      </trkpt>
      <trkpt lat="47.44381" lon="-1.98822">
        <ele>16</ele>
        <time>2015-04-15T17:36:27Z</time>
      </trkpt>
      <trkpt lat="47.44379" lon="-1.98818">
        <ele>17</ele>
        <time>2015-04-15T17:36:32Z</time>
      </trkpt>
      <trkpt lat="47.44383" lon="-1.98824">
        <ele>18</ele>
        <time>2015-04-15T17:36:38Z</time>
      </trkpt>
      <trkpt lat="47.44381" lon="-1.98821">
        <ele>17</ele>
        <time>2015-04-15T17:36:42Z</time>
      </trkpt>
      <trkpt lat="47.44382" lon="-1.98823">
        <ele>16</ele>
        <time>2015-04-15T17:36:47Z</time>
      </trkpt>
      <trkpt lat="47.44383" lon="-1.98823">
        <ele>16</ele>
        <time>2015-04-15T17:36:50Z</time>
      </trkpt>
      <trkpt lat="47.44383" lon="-1.98823">
        <ele>16</ele>
        <time>2015-04-15T17:36:53Z</time>
      </trkpt>
      <trkpt lat="47.44383" lon="-1.98823">
        <ele>16</ele>
        <time>2015-04-15T17:36:56Z</time>
      </trkpt>
      <trkpt lat="47.44383" lon="-1.98823">
        <ele>16</ele>
        <time>2015-04-15T17:36:59Z</time>
      </trkpt>
      <trkpt lat="47.44383" lon="-1.98823">
        <ele>16</ele>
        <time>2015-04-15T17:37:03Z</time>
      </trkpt>
      <trkpt lat="47.44383" lon="-1.98823">
        <ele>16</ele>
        <time>2015-04-15T17:37:06Z</time>
      </trkpt>
      <trkpt lat="47.44383" lon="-1.98823">
        <ele>16</ele>
        <time>2015-04-15T17:37:08Z</time>
      </trkpt>
      <trkpt lat="47.44382" lon="-1.98823">
        <ele>15</ele>
        <time>2015-04-15T17:37:11Z</time>
      </trkpt>
      <trkpt lat="47.44383" lon="-1.98824">
        <ele>16</ele>
        <time>2015-04-15T17:37:14Z</time>
      </trkpt>
      <trkpt lat="47.44383" lon="-1.98825">
        <ele>18</ele>
        <time>2015-04-15T17:37:17Z</time>
      </trkpt>
      <trkpt lat="47.44383" lon="-1.98826">
        <ele>18</ele>
        <time>2015-04-15T17:37:20Z</time>
      </trkpt>
      <trkpt lat="47.44383" lon="-1.98826">
        <ele>18</ele>
        <time>2015-04-15T17:37:23Z</time>
      </trkpt>
      <trkpt lat="47.44383" lon="-1.98826">
        <ele>18</ele>
        <time>2015-04-15T17:37:26Z</time>
      </trkpt>
      <trkpt lat="47.44383" lon="-1.98826">
        <ele>18</ele>
        <time>2015-04-15T17:37:29Z</time>
      </trkpt>
      <trkpt lat="47.44383" lon="-1.98826">
        <ele>18</ele>
        <time>2015-04-15T17:37:32Z</time>
      </trkpt>
      <trkpt lat="47.44384" lon="-1.98826">
        <ele>18</ele>
        <time>2015-04-15T17:37:35Z</time>
      </trkpt>
      <trkpt lat="47.44384" lon="-1.98825">
        <ele>18</ele>
        <time>2015-04-15T17:37:38Z</time>
      </trkpt>
      <trkpt lat="47.44383" lon="-1.98823">
        <ele>17</ele>
        <time>2015-04-15T17:37:45Z</time>
      </trkpt>
      <trkpt lat="47.44383" lon="-1.98823">
        <ele>17</ele>
        <time>2015-04-15T17:37:46Z</time>
      </trkpt>
      <trkpt lat="47.44383" lon="-1.98823">
        <ele>17</ele>
        <time>2015-04-15T17:37:49Z</time>
      </trkpt>
      <trkpt lat="47.44383" lon="-1.98824">
        <ele>17</ele>
        <time>2015-04-15T17:37:52Z</time>
      </trkpt>
      <trkpt lat="47.44383" lon="-1.98824">
        <ele>17</ele>
        <time>2015-04-15T17:37:55Z</time>
      </trkpt>
      <trkpt lat="47.44383" lon="-1.98824">
        <ele>17</ele>
        <time>2015-04-15T17:37:59Z</time>
      </trkpt>
      <trkpt lat="47.44383" lon="-1.98824">
        <ele>17</ele>
        <time>2015-04-15T17:38:02Z</time>
      </trkpt>
      <trkpt lat="47.44383" lon="-1.98824">
        <ele>17</ele>
        <time>2015-04-15T17:38:05Z</time>
      </trkpt>
      <trkpt lat="47.44383" lon="-1.98824">
        <ele>17</ele>
        <time>2015-04-15T17:38:08Z</time>
      </trkpt>
      <trkpt lat="47.44383" lon="-1.98824">
        <ele>17</ele>
        <time>2015-04-15T17:38:11Z</time>
      </trkpt>
      <trkpt lat="47.44383" lon="-1.98824">
        <ele>17</ele>
        <time>2015-04-15T17:38:14Z</time>
      </trkpt>
      <trkpt lat="47.44383" lon="-1.98824">
        <ele>17</ele>
        <time>2015-04-15T17:38:17Z</time>
      </trkpt>
      <trkpt lat="47.44383" lon="-1.98824">
        <ele>17</ele>
        <time>2015-04-15T17:38:20Z</time>
      </trkpt>
      <trkpt lat="47.44383" lon="-1.98824">
        <ele>17</ele>
        <time>2015-04-15T17:38:23Z</time>
      </trkpt>
      <trkpt lat="47.44383" lon="-1.98824">
        <ele>17</ele>
        <time>2015-04-15T17:38:27Z</time>
      </trkpt>
      <trkpt lat="47.44383" lon="-1.98824">
        <ele>17</ele>
        <time>2015-04-15T17:38:29Z</time>
      </trkpt>
      <trkpt lat="47.44383" lon="-1.98823">
        <ele>15</ele>
        <time>2015-04-15T17:38:32Z</time>
      </trkpt>
      <trkpt lat="47.44384" lon="-1.98824">
        <ele>15</ele>
        <time>2015-04-15T17:38:35Z</time>
      </trkpt>
      <trkpt lat="47.44384" lon="-1.98823">
        <ele>17</ele>
        <time>2015-04-15T17:38:38Z</time>
      </trkpt>
      <trkpt lat="47.44384" lon="-1.98823">
        <ele>17</ele>
        <time>2015-04-15T17:38:41Z</time>
      </trkpt>
      <trkpt lat="47.44384" lon="-1.98824">
        <ele>18</ele>
        <time>2015-04-15T17:38:44Z</time>
      </trkpt>
      <trkpt lat="47.44384" lon="-1.98824">
        <ele>19</ele>
        <time>2015-04-15T17:38:47Z</time>
      </trkpt>
      <trkpt lat="47.44384" lon="-1.98824">
        <ele>19</ele>
        <time>2015-04-15T17:38:52Z</time>
      </trkpt>
      <trkpt lat="47.44384" lon="-1.98824">
        <ele>19</ele>
        <time>2015-04-15T17:38:53Z</time>
      </trkpt>
      <trkpt lat="47.44384" lon="-1.98824">
        <ele>19</ele>
        <time>2015-04-15T17:38:56Z</time>
      </trkpt>
      <trkpt lat="47.44384" lon="-1.98824">
        <ele>19</ele>
        <time>2015-04-15T17:39:00Z</time>
      </trkpt>
      <trkpt lat="47.44384" lon="-1.98824">
        <ele>19</ele>
        <time>2015-04-15T17:39:02Z</time>
      </trkpt>
      <trkpt lat="47.44384" lon="-1.98824">
        <ele>19</ele>
        <time>2015-04-15T17:39:05Z</time>
      </trkpt>
      <trkpt lat="47.44384" lon="-1.98824">
        <ele>19</ele>
        <time>2015-04-15T17:39:08Z</time>
      </trkpt>
      <trkpt lat="47.44384" lon="-1.98824">
        <ele>19</ele>
        <time>2015-04-15T17:39:11Z</time>
      </trkpt>
      <trkpt lat="47.44382" lon="-1.98824">
        <ele>18</ele>
        <time>2015-04-15T17:39:16Z</time>
      </trkpt>
      <trkpt lat="47.44381" lon="-1.98823">
        <ele>18</ele>
        <time>2015-04-15T17:39:19Z</time>
      </trkpt>
      <trkpt lat="47.4438" lon="-1.98824">
        <ele>19</ele>
        <time>2015-04-15T17:39:24Z</time>
      </trkpt>
      <trkpt lat="47.4438" lon="-1.98823">
        <ele>19</ele>
        <time>2015-04-15T17:39:27Z</time>
      </trkpt>
      <trkpt lat="47.44379" lon="-1.98823">
        <ele>18</ele>
        <time>2015-04-15T17:39:31Z</time>
      </trkpt>
      <trkpt lat="47.44373" lon="-1.98819">
        <ele>18</ele>
        <time>2015-04-15T17:39:36Z</time>
      </trkpt>
      <trkpt lat="47.44368" lon="-1.98816">
        <ele>18</ele>
        <time>2015-04-15T17:39:38Z</time>
      </trkpt>
      <trkpt lat="47.44353" lon="-1.98807">
        <ele>17</ele>
        <time>2015-04-15T17:39:43Z</time>
      </trkpt>
      <trkpt lat="47.44328" lon="-1.98793">
        <ele>16</ele>
        <time>2015-04-15T17:39:48Z</time>
      </trkpt>
      <trkpt lat="47.44299" lon="-1.98776">
        <ele>15</ele>
        <time>2015-04-15T17:39:53Z</time>
      </trkpt>
      <trkpt lat="47.44258" lon="-1.98761">
        <ele>14</ele>
        <time>2015-04-15T17:39:59Z</time>
      </trkpt>
      <trkpt lat="47.44228" lon="-1.98757">
        <ele>15</ele>
        <time>2015-04-15T17:40:04Z</time>
      </trkpt>
      <trkpt lat="47.44184" lon="-1.98751">
        <ele>16</ele>
        <time>2015-04-15T17:40:10Z</time>
      </trkpt>
      <trkpt lat="47.44165" lon="-1.98747">
        <ele>17</ele>
        <time>2015-04-15T17:40:13Z</time>
      </trkpt>
      <trkpt lat="47.44138" lon="-1.98742">
        <ele>19</ele>
        <time>2015-04-15T17:40:18Z</time>
      </trkpt>
      <trkpt lat="47.44112" lon="-1.9874">
        <ele>20</ele>
        <time>2015-04-15T17:40:24Z</time>
      </trkpt>
      <trkpt lat="47.44074" lon="-1.98734">
        <ele>20</ele>
        <time>2015-04-15T17:40:33Z</time>
      </trkpt>
      <trkpt lat="47.4407" lon="-1.98733">
        <ele>20</ele>
        <time>2015-04-15T17:40:34Z</time>
      </trkpt>
      <trkpt lat="47.44054" lon="-1.9876">
        <ele>20</ele>
        <time>2015-04-15T17:40:43Z</time>
      </trkpt>
      <trkpt lat="47.44057" lon="-1.98773">
        <ele>20</ele>
        <time>2015-04-15T17:40:45Z</time>
      </trkpt>
      <trkpt lat="47.44062" lon="-1.98802">
        <ele>20</ele>
        <time>2015-04-15T17:40:49Z</time>
      </trkpt>
      <trkpt lat="47.44067" lon="-1.98835">
        <ele>19</ele>
        <time>2015-04-15T17:40:54Z</time>
      </trkpt>
      <trkpt lat="47.44076" lon="-1.98877">
        <ele>16</ele>
        <time>2015-04-15T17:41:00Z</time>
      </trkpt>
      <trkpt lat="47.44087" lon="-1.98907">
        <ele>18</ele>
        <time>2015-04-15T17:41:05Z</time>
      </trkpt>
      <trkpt lat="47.44106" lon="-1.98936">
        <ele>20</ele>
        <time>2015-04-15T17:41:10Z</time>
      </trkpt>
      <trkpt lat="47.44125" lon="-1.98958">
        <ele>20</ele>
        <time>2015-04-15T17:41:14Z</time>
      </trkpt>
      <trkpt lat="47.44144" lon="-1.98983">
        <ele>18</ele>
        <time>2015-04-15T17:41:19Z</time>
      </trkpt>
      <trkpt lat="47.44162" lon="-1.99014">
        <ele>17</ele>
        <time>2015-04-15T17:41:24Z</time>
      </trkpt>
      <trkpt lat="47.44167" lon="-1.99055">
        <ele>18</ele>
        <time>2015-04-15T17:41:29Z</time>
      </trkpt>
      <trkpt lat="47.44171" lon="-1.99098">
        <ele>15</ele>
        <time>2015-04-15T17:41:34Z</time>
      </trkpt>
      <trkpt lat="47.44174" lon="-1.99149">
        <ele>15</ele>
        <time>2015-04-15T17:41:40Z</time>
      </trkpt>
      <trkpt lat="47.44178" lon="-1.99206">
        <ele>17</ele>
        <time>2015-04-15T17:41:47Z</time>
      </trkpt>
      <trkpt lat="47.44179" lon="-1.99226">
        <ele>15</ele>
        <time>2015-04-15T17:41:49Z</time>
      </trkpt>
      <trkpt lat="47.44181" lon="-1.99268">
        <ele>16</ele>
        <time>2015-04-15T17:41:54Z</time>
      </trkpt>
      <trkpt lat="47.44184" lon="-1.9932">
        <ele>18</ele>
        <time>2015-04-15T17:42:00Z</time>
      </trkpt>
      <trkpt lat="47.44186" lon="-1.99361">
        <ele>18</ele>
        <time>2015-04-15T17:42:05Z</time>
      </trkpt>
      <trkpt lat="47.44193" lon="-1.99418">
        <ele>19</ele>
        <time>2015-04-15T17:42:12Z</time>
      </trkpt>
      <trkpt lat="47.442" lon="-1.99467">
        <ele>22</ele>
        <time>2015-04-15T17:42:18Z</time>
      </trkpt>
      <trkpt lat="47.442" lon="-1.99475">
        <ele>22</ele>
        <time>2015-04-15T17:42:19Z</time>
      </trkpt>
      <trkpt lat="47.44203" lon="-1.99515">
        <ele>22</ele>
        <time>2015-04-15T17:42:24Z</time>
      </trkpt>
      <trkpt lat="47.44206" lon="-1.99556">
        <ele>22</ele>
        <time>2015-04-15T17:42:29Z</time>
      </trkpt>
      <trkpt lat="47.44212" lon="-1.99624">
        <ele>19</ele>
        <time>2015-04-15T17:42:38Z</time>
      </trkpt>
      <trkpt lat="47.44215" lon="-1.99661">
        <ele>20</ele>
        <time>2015-04-15T17:42:43Z</time>
      </trkpt>
      <trkpt lat="47.44214" lon="-1.99676">
        <ele>21</ele>
        <time>2015-04-15T17:42:45Z</time>
      </trkpt>
      <trkpt lat="47.44196" lon="-1.99737">
        <ele>21</ele>
        <time>2015-04-15T17:42:53Z</time>
      </trkpt>
      <trkpt lat="47.44192" lon="-1.99742">
        <ele>21</ele>
        <time>2015-04-15T17:42:54Z</time>
      </trkpt>
      <trkpt lat="47.44158" lon="-1.99801">
        <ele>19</ele>
        <time>2015-04-15T17:43:03Z</time>
      </trkpt>
      <trkpt lat="47.44154" lon="-1.99806">
        <ele>19</ele>
        <time>2015-04-15T17:43:04Z</time>
      </trkpt>
      <trkpt lat="47.44128" lon="-1.99847">
        <ele>19</ele>
        <time>2015-04-15T17:43:11Z</time>
      </trkpt>
      <trkpt lat="47.44118" lon="-1.99862">
        <ele>19</ele>
        <time>2015-04-15T17:43:14Z</time>
      </trkpt>
      <trkpt lat="47.44102" lon="-1.99893">
        <ele>18</ele>
        <time>2015-04-15T17:43:19Z</time>
      </trkpt>
      <trkpt lat="47.4409" lon="-1.99926">
        <ele>15</ele>
        <time>2015-04-15T17:43:24Z</time>
      </trkpt>
      <trkpt lat="47.44086" lon="-1.9996">
        <ele>19</ele>
        <time>2015-04-15T17:43:29Z</time>
      </trkpt>
      <trkpt lat="47.44081" lon="-1.99999">
        <ele>20</ele>
        <time>2015-04-15T17:43:34Z</time>
      </trkpt>
      <trkpt lat="47.44068" lon="-2.00067">
        <ele>17</ele>
        <time>2015-04-15T17:43:42Z</time>
      </trkpt>
      <trkpt lat="47.44057" lon="-2.00086">
        <ele>17</ele>
        <time>2015-04-15T17:43:45Z</time>
      </trkpt>
      <trkpt lat="47.44032" lon="-2.00127">
        <ele>17</ele>
        <time>2015-04-15T17:43:52Z</time>
      </trkpt>
      <trkpt lat="47.44026" lon="-2.00139">
        <ele>17</ele>
        <time>2015-04-15T17:43:54Z</time>
      </trkpt>
      <trkpt lat="47.44005" lon="-2.00134">
        <ele>18</ele>
        <time>2015-04-15T17:43:59Z</time>
      </trkpt>
      <trkpt lat="47.43977" lon="-2.00128">
        <ele>20</ele>
        <time>2015-04-15T17:44:04Z</time>
      </trkpt>
      <trkpt lat="47.43936" lon="-2.00121">
        <ele>23</ele>
        <time>2015-04-15T17:44:12Z</time>
      </trkpt>
      <trkpt lat="47.43925" lon="-2.00114">
        <ele>23</ele>
        <time>2015-04-15T17:44:14Z</time>
      </trkpt>
      <trkpt lat="47.43899" lon="-2.00089">
        <ele>22</ele>
        <time>2015-04-15T17:44:19Z</time>
      </trkpt>
      <trkpt lat="47.43871" lon="-2.00078">
        <ele>22</ele>
        <time>2015-04-15T17:44:24Z</time>
      </trkpt>
      <trkpt lat="47.43832" lon="-2.00081">
        <ele>23</ele>
        <time>2015-04-15T17:44:32Z</time>
      </trkpt>
      <trkpt lat="47.43804" lon="-2.0008">
        <ele>24</ele>
        <time>2015-04-15T17:44:37Z</time>
      </trkpt>
      <trkpt lat="47.43786" lon="-2.00082">
        <ele>22</ele>
        <time>2015-04-15T17:44:40Z</time>
      </trkpt>
      <trkpt lat="47.43765" lon="-2.00088">
        <ele>20</ele>
        <time>2015-04-15T17:44:44Z</time>
      </trkpt>
      <trkpt lat="47.43741" lon="-2.00094">
        <ele>20</ele>
        <time>2015-04-15T17:44:49Z</time>
      </trkpt>
      <trkpt lat="47.4371" lon="-2.00127">
        <ele>15</ele>
        <time>2015-04-15T17:44:57Z</time>
      </trkpt>
      <trkpt lat="47.43705" lon="-2.0014">
        <ele>15</ele>
        <time>2015-04-15T17:44:59Z</time>
      </trkpt>
      <trkpt lat="47.43689" lon="-2.00173">
        <ele>18</ele>
        <time>2015-04-15T17:45:04Z</time>
      </trkpt>
      <trkpt lat="47.43664" lon="-2.00222">
        <ele>22</ele>
        <time>2015-04-15T17:45:12Z</time>
      </trkpt>
      <trkpt lat="47.43644" lon="-2.00249">
        <ele>21</ele>
        <time>2015-04-15T17:45:18Z</time>
      </trkpt>
      <trkpt lat="47.43639" lon="-2.00258">
        <ele>22</ele>
        <time>2015-04-15T17:45:20Z</time>
      </trkpt>
      <trkpt lat="47.43629" lon="-2.00293">
        <ele>19</ele>
        <time>2015-04-15T17:45:28Z</time>
      </trkpt>
      <trkpt lat="47.43628" lon="-2.00297">
        <ele>21</ele>
        <time>2015-04-15T17:45:29Z</time>
      </trkpt>
      <trkpt lat="47.43614" lon="-2.00312">
        <ele>22</ele>
        <time>2015-04-15T17:45:35Z</time>
      </trkpt>
      <trkpt lat="47.43597" lon="-2.00316">
        <ele>20</ele>
        <time>2015-04-15T17:45:41Z</time>
      </trkpt>
      <trkpt lat="47.43582" lon="-2.0032">
        <ele>19</ele>
        <time>2015-04-15T17:45:45Z</time>
      </trkpt>
      <trkpt lat="47.43567" lon="-2.00323">
        <ele>22</ele>
        <time>2015-04-15T17:45:49Z</time>
      </trkpt>
      <trkpt lat="47.43553" lon="-2.00322">
        <ele>21</ele>
        <time>2015-04-15T17:45:54Z</time>
      </trkpt>
      <trkpt lat="47.43534" lon="-2.00332">
        <ele>22</ele>
        <time>2015-04-15T17:46:01Z</time>
      </trkpt>
      <trkpt lat="47.43524" lon="-2.00337">
        <ele>23</ele>
        <time>2015-04-15T17:46:04Z</time>
      </trkpt>
      <trkpt lat="47.43502" lon="-2.00346">
        <ele>22</ele>
        <time>2015-04-15T17:46:10Z</time>
      </trkpt>
      <trkpt lat="47.43487" lon="-2.00352">
        <ele>24</ele>
        <time>2015-04-15T17:46:14Z</time>
      </trkpt>
      <trkpt lat="47.43464" lon="-2.00366">
        <ele>26</ele>
        <time>2015-04-15T17:46:21Z</time>
      </trkpt>
      <trkpt lat="47.43454" lon="-2.00374">
        <ele>26</ele>
        <time>2015-04-15T17:46:24Z</time>
      </trkpt>
      <trkpt lat="47.43433" lon="-2.00388">
        <ele>25</ele>
        <time>2015-04-15T17:46:29Z</time>
      </trkpt>
      <trkpt lat="47.43401" lon="-2.00406">
        <ele>25</ele>
        <time>2015-04-15T17:46:37Z</time>
      </trkpt>
      <trkpt lat="47.43392" lon="-2.00411">
        <ele>23</ele>
        <time>2015-04-15T17:46:39Z</time>
      </trkpt>
      <trkpt lat="47.43371" lon="-2.00417">
        <ele>23</ele>
        <time>2015-04-15T17:46:45Z</time>
      </trkpt>
      <trkpt lat="47.43353" lon="-2.00422">
        <ele>24</ele>
        <time>2015-04-15T17:46:50Z</time>
      </trkpt>
      <trkpt lat="47.43342" lon="-2.00424">
        <ele>27</ele>
        <time>2015-04-15T17:46:55Z</time>
      </trkpt>
      <trkpt lat="47.43338" lon="-2.00446">
        <ele>22</ele>
        <time>2015-04-15T17:47:01Z</time>
      </trkpt>
      <trkpt lat="47.43333" lon="-2.00441">
        <ele>25</ele>
        <time>2015-04-15T17:47:04Z</time>
      </trkpt>
      <trkpt lat="47.43317" lon="-2.00452">
        <ele>27</ele>
        <time>2015-04-15T17:47:11Z</time>
      </trkpt>
      <trkpt lat="47.4331" lon="-2.00451">
        <ele>27</ele>
        <time>2015-04-15T17:47:14Z</time>
      </trkpt>
      <trkpt lat="47.43292" lon="-2.00474">
        <ele>25</ele>
        <time>2015-04-15T17:47:23Z</time>
      </trkpt>
      <trkpt lat="47.43293" lon="-2.00476">
        <ele>25</ele>
        <time>2015-04-15T17:47:24Z</time>
      </trkpt>
      <trkpt lat="47.4331" lon="-2.00472">
        <ele>31</ele>
        <time>2015-04-15T17:47:33Z</time>
      </trkpt>
      <trkpt lat="47.43312" lon="-2.00469">
        <ele>31</ele>
        <time>2015-04-15T17:47:34Z</time>
      </trkpt>
      <trkpt lat="47.4334" lon="-2.00453">
        <ele>29</ele>
        <time>2015-04-15T17:47:42Z</time>
      </trkpt>
      <trkpt lat="47.43345" lon="-2.00448">
        <ele>26</ele>
        <time>2015-04-15T17:47:44Z</time>
      </trkpt>
      <trkpt lat="47.43358" lon="-2.00465">
        <ele>27</ele>
        <time>2015-04-15T17:47:50Z</time>
      </trkpt>
      <trkpt lat="47.43344" lon="-2.00471">
        <ele>25</ele>
        <time>2015-04-15T17:47:54Z</time>
      </trkpt>
      <trkpt lat="47.43328" lon="-2.00488">
        <ele>29</ele>
        <time>2015-04-15T17:47:59Z</time>
      </trkpt>
      <trkpt lat="47.43307" lon="-2.0049">
        <ele>27</ele>
        <time>2015-04-15T17:48:04Z</time>
      </trkpt>
      <trkpt lat="47.43289" lon="-2.00493">
        <ele>27</ele>
        <time>2015-04-15T17:48:09Z</time>
      </trkpt>
      <trkpt lat="47.43297" lon="-2.00506">
        <ele>26</ele>
        <time>2015-04-15T17:48:18Z</time>
      </trkpt>
      <trkpt lat="47.43301" lon="-2.00504">
        <ele>26</ele>
        <time>2015-04-15T17:48:19Z</time>
      </trkpt>
      <trkpt lat="47.43325" lon="-2.00505">
        <ele>26</ele>
        <time>2015-04-15T17:48:24Z</time>
      </trkpt>
      <trkpt lat="47.4335" lon="-2.005">
        <ele>27</ele>
        <time>2015-04-15T17:48:29Z</time>
      </trkpt>
      <trkpt lat="47.43388" lon="-2.00508">
        <ele>22</ele>
        <time>2015-04-15T17:48:38Z</time>
      </trkpt>
      <trkpt lat="47.43394" lon="-2.00512">
        <ele>22</ele>
        <time>2015-04-15T17:48:40Z</time>
      </trkpt>
      <trkpt lat="47.43402" lon="-2.00495">
        <ele>26</ele>
        <time>2015-04-15T17:48:45Z</time>
      </trkpt>
      <trkpt lat="47.43413" lon="-2.00487">
        <ele>28</ele>
        <time>2015-04-15T17:48:50Z</time>
      </trkpt>
      <trkpt lat="47.43429" lon="-2.00482">
        <ele>30</ele>
        <time>2015-04-15T17:48:57Z</time>
      </trkpt>
      <trkpt lat="47.43438" lon="-2.00479">
        <ele>30</ele>
        <time>2015-04-15T17:49:00Z</time>
      </trkpt>
      <trkpt lat="47.43464" lon="-2.00479">
        <ele>30</ele>
        <time>2015-04-15T17:49:05Z</time>
      </trkpt>
      <trkpt lat="47.43494" lon="-2.00466">
        <ele>29</ele>
        <time>2015-04-15T17:49:12Z</time>
      </trkpt>
      <trkpt lat="47.435" lon="-2.00479">
        <ele>32</ele>
        <time>2015-04-15T17:49:16Z</time>
      </trkpt>
      <trkpt lat="47.43512" lon="-2.00475">
        <ele>37</ele>
        <time>2015-04-15T17:49:20Z</time>
      </trkpt>
      <trkpt lat="47.43521" lon="-2.00459">
        <ele>38</ele>
        <time>2015-04-15T17:49:25Z</time>
      </trkpt>
      <trkpt lat="47.43556" lon="-2.00447">
        <ele>39</ele>
        <time>2015-04-15T17:49:33Z</time>
      </trkpt>
      <trkpt lat="47.43577" lon="-2.00436">
        <ele>37</ele>
        <time>2015-04-15T17:49:36Z</time>
      </trkpt>
      <trkpt lat="47.43591" lon="-2.0044">
        <ele>36</ele>
        <time>2015-04-15T17:49:41Z</time>
      </trkpt>
      <trkpt lat="47.43601" lon="-2.00451">
        <ele>39</ele>
        <time>2015-04-15T17:49:46Z</time>
      </trkpt>
      <trkpt lat="47.4361" lon="-2.0049">
        <ele>39</ele>
        <time>2015-04-15T17:49:55Z</time>
      </trkpt>
      <trkpt lat="47.43614" lon="-2.00492">
        <ele>40</ele>
        <time>2015-04-15T17:49:56Z</time>
      </trkpt>
      <trkpt lat="47.43626" lon="-2.00496">
        <ele>42</ele>
        <time>2015-04-15T17:50:01Z</time>
      </trkpt>
      <trkpt lat="47.43636" lon="-2.00506">
        <ele>43</ele>
        <time>2015-04-15T17:50:06Z</time>
      </trkpt>
      <trkpt lat="47.4363" lon="-2.00489">
        <ele>50</ele>
        <time>2015-04-15T17:50:14Z</time>
      </trkpt>
      <trkpt lat="47.43625" lon="-2.00481">
        <ele>51</ele>
        <time>2015-04-15T17:50:16Z</time>
      </trkpt>
      <trkpt lat="47.43618" lon="-2.00463">
        <ele>55</ele>
        <time>2015-04-15T17:50:21Z</time>
      </trkpt>
      <trkpt lat="47.43601" lon="-2.00426">
        <ele>53</ele>
        <time>2015-04-15T17:50:31Z</time>
      </trkpt>
      <trkpt lat="47.43597" lon="-2.00418">
        <ele>52</ele>
        <time>2015-04-15T17:50:32Z</time>
      </trkpt>
      <trkpt lat="47.43578" lon="-2.00397">
        <ele>46</ele>
        <time>2015-04-15T17:50:38Z</time>
      </trkpt>
      <trkpt lat="47.43574" lon="-2.00379">
        <ele>52</ele>
        <time>2015-04-15T17:50:42Z</time>
      </trkpt>
      <trkpt lat="47.43569" lon="-2.00351">
        <ele>50</ele>
        <time>2015-04-15T17:50:49Z</time>
      </trkpt>
      <trkpt lat="47.43569" lon="-2.00341">
        <ele>49</ele>
        <time>2015-04-15T17:50:52Z</time>
      </trkpt>
      <trkpt lat="47.43573" lon="-2.00329">
        <ele>39</ele>
        <time>2015-04-15T17:50:59Z</time>
      </trkpt>
      <trkpt lat="47.43578" lon="-2.00325">
        <ele>35</ele>
        <time>2015-04-15T17:51:04Z</time>
      </trkpt>
      <trkpt lat="47.43577" lon="-2.00322">
        <ele>34</ele>
        <time>2015-04-15T17:51:08Z</time>
      </trkpt>
      <trkpt lat="47.43577" lon="-2.00321">
        <ele>32</ele>
        <time>2015-04-15T17:51:14Z</time>
      </trkpt>
      <trkpt lat="47.43577" lon="-2.00321">
        <ele>32</ele>
        <time>2015-04-15T17:51:15Z</time>
      </trkpt>
      <trkpt lat="47.43577" lon="-2.00321">
        <ele>32</ele>
        <time>2015-04-15T17:51:18Z</time>
      </trkpt>
      <trkpt lat="47.43577" lon="-2.0032">
        <ele>32</ele>
        <time>2015-04-15T17:51:21Z</time>
      </trkpt>
      <trkpt lat="47.43577" lon="-2.0032">
        <ele>32</ele>
        <time>2015-04-15T17:51:25Z</time>
      </trkpt>
      <trkpt lat="47.43577" lon="-2.00321">
        <ele>32</ele>
        <time>2015-04-15T17:51:30Z</time>
      </trkpt>
      <trkpt lat="47.43577" lon="-2.00321">
        <ele>32</ele>
        <time>2015-04-15T17:51:31Z</time>
      </trkpt>
      <trkpt lat="47.43577" lon="-2.00321">
        <ele>32</ele>
        <time>2015-04-15T17:51:34Z</time>
      </trkpt>
      <trkpt lat="47.43577" lon="-2.0032">
        <ele>32</ele>
        <time>2015-04-15T17:51:37Z</time>
      </trkpt>
      <trkpt lat="47.43577" lon="-2.0032">
        <ele>32</ele>
        <time>2015-04-15T17:51:42Z</time>
      </trkpt>
      <trkpt lat="47.43577" lon="-2.0032">
        <ele>32</ele>
        <time>2015-04-15T17:51:43Z</time>
      </trkpt>
      <trkpt lat="47.43577" lon="-2.0032">
        <ele>32</ele>
        <time>2015-04-15T17:51:46Z</time>
      </trkpt>
      <trkpt lat="47.43577" lon="-2.0032">
        <ele>32</ele>
        <time>2015-04-15T17:51:49Z</time>
      </trkpt>
      <trkpt lat="47.43577" lon="-2.0032">
        <ele>32</ele>
        <time>2015-04-15T17:51:52Z</time>
      </trkpt>
      <trkpt lat="47.43577" lon="-2.0032">
        <ele>32</ele>
        <time>2015-04-15T17:51:55Z</time>
      </trkpt>
      <trkpt lat="47.43577" lon="-2.0032">
        <ele>32</ele>
        <time>2015-04-15T17:51:58Z</time>
      </trkpt>
      <trkpt lat="47.43577" lon="-2.0032">
        <ele>32</ele>
        <time>2015-04-15T17:52:01Z</time>
      </trkpt>
      <trkpt lat="47.43577" lon="-2.0032">
        <ele>32</ele>
        <time>2015-04-15T17:52:04Z</time>
      </trkpt>
      <trkpt lat="47.43577" lon="-2.0032">
        <ele>32</ele>
        <time>2015-04-15T17:52:07Z</time>
      </trkpt>
      <trkpt lat="47.43577" lon="-2.0032">
        <ele>32</ele>
        <time>2015-04-15T17:52:10Z</time>
      </trkpt>
      <trkpt lat="47.43577" lon="-2.0032">
        <ele>32</ele>
        <time>2015-04-15T17:52:13Z</time>
      </trkpt>
      <trkpt lat="47.43577" lon="-2.0032">
        <ele>32</ele>
        <time>2015-04-15T17:52:16Z</time>
      </trkpt>
      <trkpt lat="47.43577" lon="-2.0032">
        <ele>32</ele>
        <time>2015-04-15T17:52:19Z</time>
      </trkpt>
      <trkpt lat="47.43577" lon="-2.0032">
        <ele>32</ele>
        <time>2015-04-15T17:52:22Z</time>
      </trkpt>
      <trkpt lat="47.43577" lon="-2.0032">
        <ele>32</ele>
        <time>2015-04-15T17:52:25Z</time>
      </trkpt>
      <trkpt lat="47.43577" lon="-2.0032">
        <ele>32</ele>
        <time>2015-04-15T17:52:30Z</time>
      </trkpt>
      <trkpt lat="47.43577" lon="-2.0032">
        <ele>32</ele>
        <time>2015-04-15T17:52:33Z</time>
      </trkpt>
      <trkpt lat="47.43577" lon="-2.0032">
        <ele>32</ele>
        <time>2015-04-15T17:52:35Z</time>
      </trkpt>
      <trkpt lat="47.43577" lon="-2.0032">
        <ele>32</ele>
        <time>2015-04-15T17:52:40Z</time>
      </trkpt>
      <trkpt lat="47.43577" lon="-2.0032">
        <ele>32</ele>
        <time>2015-04-15T17:52:43Z</time>
      </trkpt>
      <trkpt lat="47.43577" lon="-2.0032">
        <ele>32</ele>
        <time>2015-04-15T17:52:46Z</time>
      </trkpt>
      <trkpt lat="47.43577" lon="-2.0032">
        <ele>32</ele>
        <time>2015-04-15T17:52:48Z</time>
      </trkpt>
      <trkpt lat="47.43577" lon="-2.0032">
        <ele>32</ele>
        <time>2015-04-15T17:52:50Z</time>
      </trkpt>
      <trkpt lat="47.43577" lon="-2.0032">
        <ele>32</ele>
        <time>2015-04-15T17:52:53Z</time>
      </trkpt>
      <trkpt lat="47.43577" lon="-2.0032">
        <ele>32</ele>
        <time>2015-04-15T17:52:56Z</time>
      </trkpt>
      <trkpt lat="47.43577" lon="-2.0032">
        <ele>32</ele>
        <time>2015-04-15T17:52:59Z</time>
      </trkpt>
      <trkpt lat="47.43577" lon="-2.0032">
        <ele>32</ele>
        <time>2015-04-15T17:53:02Z</time>
      </trkpt>
      <trkpt lat="47.43577" lon="-2.0032">
        <ele>32</ele>
        <time>2015-04-15T17:53:05Z</time>
      </trkpt>
      <trkpt lat="47.43577" lon="-2.0032">
        <ele>32</ele>
        <time>2015-04-15T17:53:08Z</time>
      </trkpt>
      <trkpt lat="47.43577" lon="-2.0032">
        <ele>32</ele>
        <time>2015-04-15T17:53:11Z</time>
      </trkpt>
      <trkpt lat="47.43577" lon="-2.0032">
        <ele>32</ele>
        <time>2015-04-15T17:53:15Z</time>
      </trkpt>
      <trkpt lat="47.43577" lon="-2.0032">
        <ele>32</ele>
        <time>2015-04-15T17:53:17Z</time>
      </trkpt>
      <trkpt lat="47.43577" lon="-2.0032">
        <ele>32</ele>
        <time>2015-04-15T17:53:20Z</time>
      </trkpt>
      <trkpt lat="47.43577" lon="-2.0032">
        <ele>32</ele>
        <time>2015-04-15T17:53:23Z</time>
      </trkpt>
      <trkpt lat="47.43577" lon="-2.0032">
        <ele>32</ele>
        <time>2015-04-15T17:53:26Z</time>
      </trkpt>
      <trkpt lat="47.43577" lon="-2.0032">
        <ele>32</ele>
        <time>2015-04-15T17:53:29Z</time>
      </trkpt>
      <trkpt lat="47.43577" lon="-2.0032">
        <ele>32</ele>
        <time>2015-04-15T17:53:32Z</time>
      </trkpt>
      <trkpt lat="47.43577" lon="-2.0032">
        <ele>32</ele>
        <time>2015-04-15T17:53:35Z</time>
      </trkpt>
      <trkpt lat="47.43577" lon="-2.0032">
        <ele>32</ele>
        <time>2015-04-15T17:53:38Z</time>
      </trkpt>
      <trkpt lat="47.43577" lon="-2.0032">
        <ele>32</ele>
        <time>2015-04-15T17:53:41Z</time>
      </trkpt>
      <trkpt lat="47.43577" lon="-2.0032">
        <ele>32</ele>
        <time>2015-04-15T17:53:44Z</time>
      </trkpt>
      <trkpt lat="47.43577" lon="-2.0032">
        <ele>32</ele>
        <time>2015-04-15T17:53:47Z</time>
      </trkpt>
      <trkpt lat="47.43577" lon="-2.0032">
        <ele>32</ele>
        <time>2015-04-15T17:53:50Z</time>
      </trkpt>
      <trkpt lat="47.43577" lon="-2.0032">
        <ele>32</ele>
        <time>2015-04-15T17:53:53Z</time>
      </trkpt>
      <trkpt lat="47.43577" lon="-2.0032">
        <ele>32</ele>
        <time>2015-04-15T17:53:57Z</time>
      </trkpt>
      <trkpt lat="47.43577" lon="-2.0032">
        <ele>32</ele>
        <time>2015-04-15T17:53:59Z</time>
      </trkpt>
      <trkpt lat="47.43577" lon="-2.0032">
        <ele>32</ele>
        <time>2015-04-15T17:54:02Z</time>
      </trkpt>
      <trkpt lat="47.43577" lon="-2.0032">
        <ele>32</ele>
        <time>2015-04-15T17:54:05Z</time>
      </trkpt>
      <trkpt lat="47.43577" lon="-2.0032">
        <ele>32</ele>
        <time>2015-04-15T17:54:08Z</time>
      </trkpt>
      <trkpt lat="47.43577" lon="-2.0032">
        <ele>32</ele>
        <time>2015-04-15T17:54:11Z</time>
      </trkpt>
      <trkpt lat="47.4358" lon="-2.0032">
        <ele>34</ele>
        <time>2015-04-15T17:54:15Z</time>
      </trkpt>
      <trkpt lat="47.43592" lon="-2.00318">
        <ele>34</ele>
        <time>2015-04-15T17:54:22Z</time>
      </trkpt>
      <trkpt lat="47.43598" lon="-2.00317">
        <ele>32</ele>
        <time>2015-04-15T17:54:25Z</time>
      </trkpt>
      <trkpt lat="47.43605" lon="-2.00316">
        <ele>33</ele>
        <time>2015-04-15T17:54:29Z</time>
      </trkpt>
      <trkpt lat="47.43615" lon="-2.00311">
        <ele>35</ele>
        <time>2015-04-15T17:54:34Z</time>
      </trkpt>
      <trkpt lat="47.43618" lon="-2.00289">
        <ele>34</ele>
        <time>2015-04-15T17:54:41Z</time>
      </trkpt>
      <trkpt lat="47.43622" lon="-2.00278">
        <ele>32</ele>
        <time>2015-04-15T17:54:44Z</time>
      </trkpt>
      <trkpt lat="47.43636" lon="-2.00252">
        <ele>29</ele>
        <time>2015-04-15T17:54:49Z</time>
      </trkpt>
      <trkpt lat="47.43667" lon="-2.00213">
        <ele>29</ele>
        <time>2015-04-15T17:54:58Z</time>
      </trkpt>
      <trkpt lat="47.43679" lon="-2.00186">
        <ele>28</ele>
        <time>2015-04-15T17:55:03Z</time>
      </trkpt>
      <trkpt lat="47.4369" lon="-2.00153">
        <ele>28</ele>
        <time>2015-04-15T17:55:06Z</time>
      </trkpt>
      <trkpt lat="47.43698" lon="-2.00133">
        <ele>28</ele>
        <time>2015-04-15T17:55:09Z</time>
      </trkpt>
      <trkpt lat="47.43719" lon="-2.00101">
        <ele>27</ele>
        <time>2015-04-15T17:55:15Z</time>
      </trkpt>
      <trkpt lat="47.43729" lon="-2.00087">
        <ele>27</ele>
        <time>2015-04-15T17:55:19Z</time>
      </trkpt>
      <trkpt lat="47.43757" lon="-2.00087">
        <ele>26</ele>
        <time>2015-04-15T17:55:24Z</time>
      </trkpt>
      <trkpt lat="47.43788" lon="-2.0008">
        <ele>28</ele>
        <time>2015-04-15T17:55:31Z</time>
      </trkpt>
      <trkpt lat="47.43807" lon="-2.00079">
        <ele>32</ele>
        <time>2015-04-15T17:55:36Z</time>
      </trkpt>
      <trkpt lat="47.43821" lon="-2.00075">
        <ele>33</ele>
        <time>2015-04-15T17:55:40Z</time>
      </trkpt>
      <trkpt lat="47.4384" lon="-2.00078">
        <ele>32</ele>
        <time>2015-04-15T17:55:45Z</time>
      </trkpt>
      <trkpt lat="47.43856" lon="-2.00078">
        <ele>31</ele>
        <time>2015-04-15T17:55:49Z</time>
      </trkpt>
      <trkpt lat="47.43881" lon="-2.00084">
        <ele>28</ele>
        <time>2015-04-15T17:55:54Z</time>
      </trkpt>
      <trkpt lat="47.43903" lon="-2.00104">
        <ele>24</ele>
        <time>2015-04-15T17:55:59Z</time>
      </trkpt>
      <trkpt lat="47.43941" lon="-2.00124">
        <ele>24</ele>
        <time>2015-04-15T17:56:06Z</time>
      </trkpt>
      <trkpt lat="47.43964" lon="-2.00126">
        <ele>24</ele>
        <time>2015-04-15T17:56:10Z</time>
      </trkpt>
      <trkpt lat="47.43992" lon="-2.0013">
        <ele>28</ele>
        <time>2015-04-15T17:56:18Z</time>
      </trkpt>
      <trkpt lat="47.43999" lon="-2.00132">
        <ele>28</ele>
        <time>2015-04-15T17:56:20Z</time>
      </trkpt>
      <trkpt lat="47.44009" lon="-2.00154">
        <ele>25</ele>
        <time>2015-04-15T17:56:26Z</time>
      </trkpt>
      <trkpt lat="47.43998" lon="-2.00172">
        <ele>23</ele>
        <time>2015-04-15T17:56:29Z</time>
      </trkpt>
      <trkpt lat="47.43986" lon="-2.00198">
        <ele>23</ele>
        <time>2015-04-15T17:56:34Z</time>
      </trkpt>
      <trkpt lat="47.43974" lon="-2.00223">
        <ele>24</ele>
        <time>2015-04-15T17:56:39Z</time>
      </trkpt>
      <trkpt lat="47.43956" lon="-2.00279">
        <ele>22</ele>
        <time>2015-04-15T17:56:47Z</time>
      </trkpt>
      <trkpt lat="47.43954" lon="-2.00296">
        <ele>22</ele>
        <time>2015-04-15T17:56:49Z</time>
      </trkpt>
      <trkpt lat="47.43944" lon="-2.0036">
        <ele>17</ele>
        <time>2015-04-15T17:56:58Z</time>
      </trkpt>
      <trkpt lat="47.4394" lon="-2.00373">
        <ele>20</ele>
        <time>2015-04-15T17:57:00Z</time>
      </trkpt>
      <trkpt lat="47.43937" lon="-2.00442">
        <ele>19</ele>
        <time>2015-04-15T17:57:08Z</time>
      </trkpt>
      <trkpt lat="47.4394" lon="-2.0045">
        <ele>20</ele>
        <time>2015-04-15T17:57:09Z</time>
      </trkpt>
      <trkpt lat="47.43948" lon="-2.00521">
        <ele>22</ele>
        <time>2015-04-15T17:57:18Z</time>
      </trkpt>
      <trkpt lat="47.43951" lon="-2.00526">
        <ele>24</ele>
        <time>2015-04-15T17:57:19Z</time>
      </trkpt>
      <trkpt lat="47.43965" lon="-2.00552">
        <ele>27</ele>
        <time>2015-04-15T17:57:24Z</time>
      </trkpt>
      <trkpt lat="47.43996" lon="-2.00549">
        <ele>26</ele>
        <time>2015-04-15T17:57:30Z</time>
      </trkpt>
      <trkpt lat="47.4402" lon="-2.00545">
        <ele>26</ele>
        <time>2015-04-15T17:57:34Z</time>
      </trkpt>
      <trkpt lat="47.44048" lon="-2.00538">
        <ele>24</ele>
        <time>2015-04-15T17:57:40Z</time>
      </trkpt>
      <trkpt lat="47.44073" lon="-2.00536">
        <ele>27</ele>
        <time>2015-04-15T17:57:45Z</time>
      </trkpt>
      <trkpt lat="47.44092" lon="-2.00537">
        <ele>24</ele>
        <time>2015-04-15T17:57:49Z</time>
      </trkpt>
      <trkpt lat="47.44113" lon="-2.00546">
        <ele>22</ele>
        <time>2015-04-15T17:57:54Z</time>
      </trkpt>
      <trkpt lat="47.44142" lon="-2.00557">
        <ele>25</ele>
        <time>2015-04-15T17:58:00Z</time>
      </trkpt>
      <trkpt lat="47.4416" lon="-2.00552">
        <ele>23</ele>
        <time>2015-04-15T17:58:04Z</time>
      </trkpt>
      <trkpt lat="47.44187" lon="-2.00545">
        <ele>25</ele>
        <time>2015-04-15T17:58:09Z</time>
      </trkpt>
      <trkpt lat="47.44205" lon="-2.00525">
        <ele>24</ele>
        <time>2015-04-15T17:58:14Z</time>
      </trkpt>
      <trkpt lat="47.44227" lon="-2.0051">
        <ele>24</ele>
        <time>2015-04-15T17:58:19Z</time>
      </trkpt>
      <trkpt lat="47.44251" lon="-2.00489">
        <ele>26</ele>
        <time>2015-04-15T17:58:26Z</time>
      </trkpt>
      <trkpt lat="47.44267" lon="-2.00486">
        <ele>23</ele>
        <time>2015-04-15T17:58:29Z</time>
      </trkpt>
      <trkpt lat="47.44317" lon="-2.00491">
        <ele>18</ele>
        <time>2015-04-15T17:58:38Z</time>
      </trkpt>
      <trkpt lat="47.44336" lon="-2.00492">
        <ele>17</ele>
        <time>2015-04-15T17:58:42Z</time>
      </trkpt>
      <trkpt lat="47.44349" lon="-2.00494">
        <ele>15</ele>
        <time>2015-04-15T17:58:44Z</time>
      </trkpt>
      <trkpt lat="47.4439" lon="-2.00496">
        <ele>16</ele>
        <time>2015-04-15T17:58:52Z</time>
      </trkpt>
      <trkpt lat="47.44416" lon="-2.00494">
        <ele>19</ele>
        <time>2015-04-15T17:58:57Z</time>
      </trkpt>
      <trkpt lat="47.44425" lon="-2.00495">
        <ele>19</ele>
        <time>2015-04-15T17:58:59Z</time>
      </trkpt>
      <trkpt lat="47.44455" lon="-2.00493">
        <ele>19</ele>
        <time>2015-04-15T17:59:05Z</time>
      </trkpt>
      <trkpt lat="47.44481" lon="-2.00488">
        <ele>18</ele>
        <time>2015-04-15T17:59:10Z</time>
      </trkpt>
      <trkpt lat="47.44502" lon="-2.00485">
        <ele>19</ele>
        <time>2015-04-15T17:59:14Z</time>
      </trkpt>
      <trkpt lat="47.44536" lon="-2.00484">
        <ele>20</ele>
        <time>2015-04-15T17:59:22Z</time>
      </trkpt>
      <trkpt lat="47.44541" lon="-2.00491">
        <ele>19</ele>
        <time>2015-04-15T17:59:24Z</time>
      </trkpt>
      <trkpt lat="47.4454" lon="-2.00524">
        <ele>17</ele>
        <time>2015-04-15T17:59:32Z</time>
      </trkpt>
      <trkpt lat="47.44535" lon="-2.00559">
        <ele>17</ele>
        <time>2015-04-15T17:59:38Z</time>
      </trkpt>
      <trkpt lat="47.44534" lon="-2.00568">
        <ele>16</ele>
        <time>2015-04-15T17:59:39Z</time>
      </trkpt>
      <trkpt lat="47.44525" lon="-2.00608">
        <ele>16</ele>
        <time>2015-04-15T17:59:45Z</time>
      </trkpt>
      <trkpt lat="47.44506" lon="-2.00659">
        <ele>20</ele>
        <time>2015-04-15T17:59:53Z</time>
      </trkpt>
      <trkpt lat="47.44504" lon="-2.00667">
        <ele>19</ele>
        <time>2015-04-15T17:59:54Z</time>
      </trkpt>
      <trkpt lat="47.44492" lon="-2.0071">
        <ele>16</ele>
        <time>2015-04-15T18:00:00Z</time>
      </trkpt>
      <trkpt lat="47.44492" lon="-2.00753">
        <ele>16</ele>
        <time>2015-04-15T18:00:07Z</time>
      </trkpt>
      <trkpt lat="47.44498" lon="-2.00763">
        <ele>17</ele>
        <time>2015-04-15T18:00:09Z</time>
      </trkpt>
      <trkpt lat="47.44514" lon="-2.00788">
        <ele>19</ele>
        <time>2015-04-15T18:00:14Z</time>
      </trkpt>
      <trkpt lat="47.44526" lon="-2.0081">
        <ele>18</ele>
        <time>2015-04-15T18:00:19Z</time>
      </trkpt>
      <trkpt lat="47.44512" lon="-2.00834">
        <ele>19</ele>
        <time>2015-04-15T18:00:24Z</time>
      </trkpt>
      <trkpt lat="47.44495" lon="-2.0085">
        <ele>18</ele>
        <time>2015-04-15T18:00:29Z</time>
      </trkpt>
      <trkpt lat="47.44484" lon="-2.00856">
        <ele>19</ele>
        <time>2015-04-15T18:00:34Z</time>
      </trkpt>
      <trkpt lat="47.44475" lon="-2.00873">
        <ele>19</ele>
        <time>2015-04-15T18:00:39Z</time>
      </trkpt>
      <trkpt lat="47.44453" lon="-2.00887">
        <ele>24</ele>
        <time>2015-04-15T18:00:48Z</time>
      </trkpt>
      <trkpt lat="47.4445" lon="-2.00887">
        <ele>26</ele>
        <time>2015-04-15T18:00:49Z</time>
      </trkpt>
      <trkpt lat="47.44427" lon="-2.00904">
        <ele>27</ele>
        <time>2015-04-15T18:00:55Z</time>
      </trkpt>
      <trkpt lat="47.44414" lon="-2.00923">
        <ele>26</ele>
        <time>2015-04-15T18:00:59Z</time>
      </trkpt>
      <trkpt lat="47.44413" lon="-2.00934">
        <ele>27</ele>
        <time>2015-04-15T18:01:04Z</time>
      </trkpt>
      <trkpt lat="47.44407" lon="-2.00947">
        <ele>23</ele>
        <time>2015-04-15T18:01:09Z</time>
      </trkpt>
      <trkpt lat="47.44417" lon="-2.00971">
        <ele>20</ele>
        <time>2015-04-15T18:01:14Z</time>
      </trkpt>
      <trkpt lat="47.44452" lon="-2.01007">
        <ele>21</ele>
        <time>2015-04-15T18:01:22Z</time>
      </trkpt>
      <trkpt lat="47.4446" lon="-2.01005">
        <ele>21</ele>
        <time>2015-04-15T18:01:24Z</time>
      </trkpt>
      <trkpt lat="47.4448" lon="-2.0099">
        <ele>23</ele>
        <time>2015-04-15T18:01:30Z</time>
      </trkpt>
      <trkpt lat="47.44486" lon="-2.00979">
        <ele>26</ele>
        <time>2015-04-15T18:01:34Z</time>
      </trkpt>
      <trkpt lat="47.44489" lon="-2.00971">
        <ele>27</ele>
        <time>2015-04-15T18:01:39Z</time>
      </trkpt>
      <trkpt lat="47.44499" lon="-2.00963">
        <ele>23</ele>
        <time>2015-04-15T18:01:44Z</time>
      </trkpt>
      <trkpt lat="47.44523" lon="-2.01005">
        <ele>20</ele>
        <time>2015-04-15T18:01:53Z</time>
      </trkpt>
      <trkpt lat="47.44524" lon="-2.01011">
        <ele>20</ele>
        <time>2015-04-15T18:01:54Z</time>
      </trkpt>
      <trkpt lat="47.44507" lon="-2.01022">
        <ele>20</ele>
        <time>2015-04-15T18:02:00Z</time>
      </trkpt>
      <trkpt lat="47.44489" lon="-2.01031">
        <ele>17</ele>
        <time>2015-04-15T18:02:05Z</time>
      </trkpt>
      <trkpt lat="47.44475" lon="-2.01038">
        <ele>16</ele>
        <time>2015-04-15T18:02:10Z</time>
      </trkpt>
      <trkpt lat="47.44483" lon="-2.01046">
        <ele>17</ele>
        <time>2015-04-15T18:02:17Z</time>
      </trkpt>
      <trkpt lat="47.44491" lon="-2.01047">
        <ele>18</ele>
        <time>2015-04-15T18:02:19Z</time>
      </trkpt>
      <trkpt lat="47.44523" lon="-2.01052">
        <ele>20</ele>
        <time>2015-04-15T18:02:28Z</time>
      </trkpt>
      <trkpt lat="47.44531" lon="-2.01054">
        <ele>22</ele>
        <time>2015-04-15T18:02:31Z</time>
      </trkpt>
      <trkpt lat="47.44537" lon="-2.01053">
        <ele>25</ele>
        <time>2015-04-15T18:02:34Z</time>
      </trkpt>
      <trkpt lat="47.44546" lon="-2.01048">
        <ele>29</ele>
        <time>2015-04-15T18:02:39Z</time>
      </trkpt>
      <trkpt lat="47.44567" lon="-2.0103">
        <ele>29</ele>
        <time>2015-04-15T18:02:46Z</time>
      </trkpt>
      <trkpt lat="47.44575" lon="-2.01019">
        <ele>24</ele>
        <time>2015-04-15T18:02:49Z</time>
      </trkpt>
      <trkpt lat="47.44589" lon="-2.00996">
        <ele>20</ele>
        <time>2015-04-15T18:02:54Z</time>
      </trkpt>
      <trkpt lat="47.44594" lon="-2.01014">
        <ele>24</ele>
        <time>2015-04-15T18:03:02Z</time>
      </trkpt>
      <trkpt lat="47.44589" lon="-2.0102">
        <ele>26</ele>
        <time>2015-04-15T18:03:04Z</time>
      </trkpt>
      <trkpt lat="47.4455" lon="-2.0106">
        <ele>18</ele>
        <time>2015-04-15T18:03:13Z</time>
      </trkpt>
      <trkpt lat="47.44528" lon="-2.01071">
        <ele>13</ele>
        <time>2015-04-15T18:03:18Z</time>
      </trkpt>
      <trkpt lat="47.44532" lon="-2.01085">
        <ele>12</ele>
        <time>2015-04-15T18:03:21Z</time>
      </trkpt>
      <trkpt lat="47.44531" lon="-2.01099">
        <ele>12</ele>
        <time>2015-04-15T18:03:24Z</time>
      </trkpt>
      <trkpt lat="47.4454" lon="-2.01121">
        <ele>14</ele>
        <time>2015-04-15T18:03:29Z</time>
      </trkpt>
      <trkpt lat="47.44566" lon="-2.01106">
        <ele>15</ele>
        <time>2015-04-15T18:03:37Z</time>
      </trkpt>
      <trkpt lat="47.44572" lon="-2.01099">
        <ele>14</ele>
        <time>2015-04-15T18:03:39Z</time>
      </trkpt>
      <trkpt lat="47.44593" lon="-2.01074">
        <ele>15</ele>
        <time>2015-04-15T18:03:44Z</time>
      </trkpt>
      <trkpt lat="47.44609" lon="-2.01059">
        <ele>13</ele>
        <time>2015-04-15T18:03:49Z</time>
      </trkpt>
      <trkpt lat="47.4464" lon="-2.01049">
        <ele>16</ele>
        <time>2015-04-15T18:03:58Z</time>
      </trkpt>
      <trkpt lat="47.44646" lon="-2.01051">
        <ele>18</ele>
        <time>2015-04-15T18:04:00Z</time>
      </trkpt>
      <trkpt lat="47.44659" lon="-2.01068">
        <ele>17</ele>
        <time>2015-04-15T18:04:08Z</time>
      </trkpt>
      <trkpt lat="47.44661" lon="-2.01067">
        <ele>18</ele>
        <time>2015-04-15T18:04:09Z</time>
      </trkpt>
      <trkpt lat="47.44672" lon="-2.01063">
        <ele>17</ele>
        <time>2015-04-15T18:04:14Z</time>
      </trkpt>
      <trkpt lat="47.44677" lon="-2.01044">
        <ele>18</ele>
        <time>2015-04-15T18:04:19Z</time>
      </trkpt>
      <trkpt lat="47.44697" lon="-2.01057">
        <ele>18</ele>
        <time>2015-04-15T18:04:26Z</time>
      </trkpt>
      <trkpt lat="47.44697" lon="-2.01083">
        <ele>17</ele>
        <time>2015-04-15T18:04:31Z</time>
      </trkpt>
      <trkpt lat="47.44695" lon="-2.01097">
        <ele>25</ele>
        <time>2015-04-15T18:04:34Z</time>
      </trkpt>
      <trkpt lat="47.44686" lon="-2.01107">
        <ele>29</ele>
        <time>2015-04-15T18:04:39Z</time>
      </trkpt>
      <trkpt lat="47.4468" lon="-2.01131">
        <ele>26</ele>
        <time>2015-04-15T18:04:44Z</time>
      </trkpt>
      <trkpt lat="47.44707" lon="-2.01142">
        <ele>23</ele>
        <time>2015-04-15T18:04:53Z</time>
      </trkpt>
      <trkpt lat="47.44716" lon="-2.01139">
        <ele>24</ele>
        <time>2015-04-15T18:04:55Z</time>
      </trkpt>
      <trkpt lat="47.44736" lon="-2.01135">
        <ele>20</ele>
        <time>2015-04-15T18:05:00Z</time>
      </trkpt>
      <trkpt lat="47.4475" lon="-2.01127">
        <ele>17</ele>
        <time>2015-04-15T18:05:04Z</time>
      </trkpt>
      <trkpt lat="47.44753" lon="-2.01132">
        <ele>13</ele>
        <time>2015-04-15T18:05:11Z</time>
      </trkpt>
      <trkpt lat="47.44751" lon="-2.01131">
        <ele>13</ele>
        <time>2015-04-15T18:05:14Z</time>
      </trkpt>
      <trkpt lat="47.44751" lon="-2.01131">
        <ele>13</ele>
        <time>2015-04-15T18:05:19Z</time>
      </trkpt>
      <trkpt lat="47.44751" lon="-2.01131">
        <ele>13</ele>
        <time>2015-04-15T18:05:22Z</time>
      </trkpt>
      <trkpt lat="47.44751" lon="-2.01131">
        <ele>14</ele>
        <time>2015-04-15T18:05:25Z</time>
      </trkpt>
      <trkpt lat="47.44751" lon="-2.01131">
        <ele>14</ele>
        <time>2015-04-15T18:05:28Z</time>
      </trkpt>
      <trkpt lat="47.44751" lon="-2.01131">
        <ele>14</ele>
        <time>2015-04-15T18:05:33Z</time>
      </trkpt>
      <trkpt lat="47.44751" lon="-2.01131">
        <ele>14</ele>
        <time>2015-04-15T18:05:34Z</time>
      </trkpt>
      <trkpt lat="47.44751" lon="-2.01131">
        <ele>14</ele>
        <time>2015-04-15T18:05:37Z</time>
      </trkpt>
      <trkpt lat="47.44751" lon="-2.01131">
        <ele>14</ele>
        <time>2015-04-15T18:05:42Z</time>
      </trkpt>
      <trkpt lat="47.44751" lon="-2.01131">
        <ele>14</ele>
        <time>2015-04-15T18:05:43Z</time>
      </trkpt>
      <trkpt lat="47.44751" lon="-2.01131">
        <ele>14</ele>
        <time>2015-04-15T18:05:46Z</time>
      </trkpt>
      <trkpt lat="47.44751" lon="-2.01131">
        <ele>14</ele>
        <time>2015-04-15T18:05:49Z</time>
      </trkpt>
      <trkpt lat="47.44751" lon="-2.01131">
        <ele>14</ele>
        <time>2015-04-15T18:05:52Z</time>
      </trkpt>
      <trkpt lat="47.44751" lon="-2.01131">
        <ele>14</ele>
        <time>2015-04-15T18:05:55Z</time>
      </trkpt>
      <trkpt lat="47.44751" lon="-2.01131">
        <ele>14</ele>
        <time>2015-04-15T18:05:58Z</time>
      </trkpt>
      <trkpt lat="47.44751" lon="-2.01131">
        <ele>14</ele>
        <time>2015-04-15T18:06:01Z</time>
      </trkpt>
      <trkpt lat="47.44751" lon="-2.01131">
        <ele>14</ele>
        <time>2015-04-15T18:06:04Z</time>
      </trkpt>
      <trkpt lat="47.44751" lon="-2.01131">
        <ele>14</ele>
        <time>2015-04-15T18:06:08Z</time>
      </trkpt>
      <trkpt lat="47.44751" lon="-2.01131">
        <ele>14</ele>
        <time>2015-04-15T18:06:11Z</time>
      </trkpt>
      <trkpt lat="47.44751" lon="-2.01131">
        <ele>14</ele>
        <time>2015-04-15T18:06:13Z</time>
      </trkpt>
      <trkpt lat="47.44751" lon="-2.01131">
        <ele>14</ele>
        <time>2015-04-15T18:06:16Z</time>
      </trkpt>
      <trkpt lat="47.44751" lon="-2.01131">
        <ele>14</ele>
        <time>2015-04-15T18:06:19Z</time>
      </trkpt>
      <trkpt lat="47.44751" lon="-2.01131">
        <ele>14</ele>
        <time>2015-04-15T18:06:23Z</time>
      </trkpt>
      <trkpt lat="47.44751" lon="-2.01131">
        <ele>14</ele>
        <time>2015-04-15T18:06:25Z</time>
      </trkpt>
      <trkpt lat="47.44751" lon="-2.01131">
        <ele>14</ele>
        <time>2015-04-15T18:06:29Z</time>
      </trkpt>
      <trkpt lat="47.44751" lon="-2.01131">
        <ele>14</ele>
        <time>2015-04-15T18:06:31Z</time>
      </trkpt>
      <trkpt lat="47.44751" lon="-2.01131">
        <ele>14</ele>
        <time>2015-04-15T18:06:35Z</time>
      </trkpt>
      <trkpt lat="47.44751" lon="-2.01131">
        <ele>14</ele>
        <time>2015-04-15T18:06:38Z</time>
      </trkpt>
      <trkpt lat="47.44751" lon="-2.01131">
        <ele>14</ele>
        <time>2015-04-15T18:06:40Z</time>
      </trkpt>
      <trkpt lat="47.44751" lon="-2.01131">
        <ele>14</ele>
        <time>2015-04-15T18:06:44Z</time>
      </trkpt>
      <trkpt lat="47.44751" lon="-2.01131">
        <ele>14</ele>
        <time>2015-04-15T18:06:47Z</time>
      </trkpt>
      <trkpt lat="47.44751" lon="-2.01131">
        <ele>14</ele>
        <time>2015-04-15T18:06:50Z</time>
      </trkpt>
      <trkpt lat="47.44751" lon="-2.01131">
        <ele>14</ele>
        <time>2015-04-15T18:06:52Z</time>
      </trkpt>
      <trkpt lat="47.44751" lon="-2.01131">
        <ele>14</ele>
        <time>2015-04-15T18:06:55Z</time>
      </trkpt>
      <trkpt lat="47.44751" lon="-2.01131">
        <ele>14</ele>
        <time>2015-04-15T18:06:58Z</time>
      </trkpt>
      <trkpt lat="47.44751" lon="-2.01131">
        <ele>14</ele>
        <time>2015-04-15T18:07:01Z</time>
      </trkpt>
      <trkpt lat="47.44751" lon="-2.01131">
        <ele>14</ele>
        <time>2015-04-15T18:07:05Z</time>
      </trkpt>
      <trkpt lat="47.44751" lon="-2.01131">
        <ele>14</ele>
        <time>2015-04-15T18:07:09Z</time>
      </trkpt>
      <trkpt lat="47.44751" lon="-2.01131">
        <ele>14</ele>
        <time>2015-04-15T18:07:11Z</time>
      </trkpt>
      <trkpt lat="47.44751" lon="-2.01131">
        <ele>14</ele>
        <time>2015-04-15T18:07:13Z</time>
      </trkpt>
      <trkpt lat="47.44751" lon="-2.01131">
        <ele>14</ele>
        <time>2015-04-15T18:07:18Z</time>
      </trkpt>
      <trkpt lat="47.44751" lon="-2.01131">
        <ele>14</ele>
        <time>2015-04-15T18:07:19Z</time>
      </trkpt>
      <trkpt lat="47.44751" lon="-2.01131">
        <ele>14</ele>
        <time>2015-04-15T18:07:22Z</time>
      </trkpt>
      <trkpt lat="47.44751" lon="-2.01131">
        <ele>14</ele>
        <time>2015-04-15T18:07:25Z</time>
      </trkpt>
      <trkpt lat="47.44751" lon="-2.01131">
        <ele>14</ele>
        <time>2015-04-15T18:07:28Z</time>
      </trkpt>
      <trkpt lat="47.44751" lon="-2.01131">
        <ele>14</ele>
        <time>2015-04-15T18:07:31Z</time>
      </trkpt>
      <trkpt lat="47.44751" lon="-2.01131">
        <ele>14</ele>
        <time>2015-04-15T18:07:34Z</time>
      </trkpt>
      <trkpt lat="47.44751" lon="-2.01131">
        <ele>14</ele>
        <time>2015-04-15T18:07:37Z</time>
      </trkpt>
      <trkpt lat="47.44751" lon="-2.01131">
        <ele>14</ele>
        <time>2015-04-15T18:07:41Z</time>
      </trkpt>
      <trkpt lat="47.44751" lon="-2.01131">
        <ele>14</ele>
        <time>2015-04-15T18:07:44Z</time>
      </trkpt>
      <trkpt lat="47.44751" lon="-2.01131">
        <ele>14</ele>
        <time>2015-04-15T18:07:46Z</time>
      </trkpt>
      <trkpt lat="47.44751" lon="-2.01131">
        <ele>14</ele>
        <time>2015-04-15T18:07:49Z</time>
      </trkpt>
      <trkpt lat="47.44751" lon="-2.01131">
        <ele>14</ele>
        <time>2015-04-15T18:07:52Z</time>
      </trkpt>
      <trkpt lat="47.44751" lon="-2.01131">
        <ele>14</ele>
        <time>2015-04-15T18:07:55Z</time>
      </trkpt>
      <trkpt lat="47.44751" lon="-2.01131">
        <ele>14</ele>
        <time>2015-04-15T18:07:58Z</time>
      </trkpt>
      <trkpt lat="47.44751" lon="-2.01131">
        <ele>14</ele>
        <time>2015-04-15T18:08:02Z</time>
      </trkpt>
      <trkpt lat="47.44751" lon="-2.01131">
        <ele>14</ele>
        <time>2015-04-15T18:08:04Z</time>
      </trkpt>
      <trkpt lat="47.44751" lon="-2.01131">
        <ele>14</ele>
        <time>2015-04-15T18:08:09Z</time>
      </trkpt>
      <trkpt lat="47.44751" lon="-2.01131">
        <ele>14</ele>
        <time>2015-04-15T18:08:10Z</time>
      </trkpt>
      <trkpt lat="47.44751" lon="-2.01131">
        <ele>14</ele>
        <time>2015-04-15T18:08:13Z</time>
      </trkpt>
      <trkpt lat="47.44751" lon="-2.01131">
        <ele>14</ele>
        <time>2015-04-15T18:08:16Z</time>
      </trkpt>
      <trkpt lat="47.44751" lon="-2.01131">
        <ele>14</ele>
        <time>2015-04-15T18:08:21Z</time>
      </trkpt>
      <trkpt lat="47.44751" lon="-2.01131">
        <ele>14</ele>
        <time>2015-04-15T18:08:22Z</time>
      </trkpt>
      <trkpt lat="47.44751" lon="-2.01131">
        <ele>14</ele>
        <time>2015-04-15T18:08:26Z</time>
      </trkpt>
      <trkpt lat="47.44751" lon="-2.01131">
        <ele>14</ele>
        <time>2015-04-15T18:08:28Z</time>
      </trkpt>
      <trkpt lat="47.44751" lon="-2.01131">
        <ele>14</ele>
        <time>2015-04-15T18:08:31Z</time>
      </trkpt>
      <trkpt lat="47.44751" lon="-2.01131">
        <ele>14</ele>
        <time>2015-04-15T18:08:34Z</time>
      </trkpt>
      <trkpt lat="47.44751" lon="-2.01131">
        <ele>14</ele>
        <time>2015-04-15T18:08:37Z</time>
      </trkpt>
      <trkpt lat="47.44751" lon="-2.01131">
        <ele>14</ele>
        <time>2015-04-15T18:08:40Z</time>
      </trkpt>
      <trkpt lat="47.44751" lon="-2.01131">
        <ele>14</ele>
        <time>2015-04-15T18:08:44Z</time>
      </trkpt>
      <trkpt lat="47.44751" lon="-2.01131">
        <ele>14</ele>
        <time>2015-04-15T18:08:46Z</time>
      </trkpt>
      <trkpt lat="47.44751" lon="-2.01131">
        <ele>14</ele>
        <time>2015-04-15T18:08:49Z</time>
      </trkpt>
      <trkpt lat="47.44751" lon="-2.01131">
        <ele>14</ele>
        <time>2015-04-15T18:08:52Z</time>
      </trkpt>
      <trkpt lat="47.44751" lon="-2.01131">
        <ele>14</ele>
        <time>2015-04-15T18:08:55Z</time>
      </trkpt>
      <trkpt lat="47.44751" lon="-2.01131">
        <ele>14</ele>
        <time>2015-04-15T18:08:58Z</time>
      </trkpt>
      <trkpt lat="47.44751" lon="-2.01131">
        <ele>14</ele>
        <time>2015-04-15T18:09:01Z</time>
      </trkpt>
      <trkpt lat="47.44751" lon="-2.01131">
        <ele>14</ele>
        <time>2015-04-15T18:09:04Z</time>
      </trkpt>
      <trkpt lat="47.44751" lon="-2.01131">
        <ele>14</ele>
        <time>2015-04-15T18:09:09Z</time>
      </trkpt>
      <trkpt lat="47.44751" lon="-2.01131">
        <ele>14</ele>
        <time>2015-04-15T18:09:10Z</time>
      </trkpt>
      <trkpt lat="47.44751" lon="-2.01131">
        <ele>14</ele>
        <time>2015-04-15T18:09:13Z</time>
      </trkpt>
      <trkpt lat="47.44751" lon="-2.01131">
        <ele>14</ele>
        <time>2015-04-15T18:09:16Z</time>
      </trkpt>
      <trkpt lat="47.44751" lon="-2.01131">
        <ele>14</ele>
        <time>2015-04-15T18:09:19Z</time>
      </trkpt>
      <trkpt lat="47.44751" lon="-2.01131">
        <ele>14</ele>
        <time>2015-04-15T18:09:22Z</time>
      </trkpt>
      <trkpt lat="47.44756" lon="-2.01139">
        <ele>12</ele>
        <time>2015-04-15T18:09:27Z</time>
      </trkpt>
      <trkpt lat="47.44764" lon="-2.01154">
        <ele>9</ele>
        <time>2015-04-15T18:09:33Z</time>
      </trkpt>
      <trkpt lat="47.44767" lon="-2.01159">
        <ele>9</ele>
        <time>2015-04-15T18:09:35Z</time>
      </trkpt>
      <trkpt lat="47.44776" lon="-2.01178">
        <ele>9</ele>
        <time>2015-04-15T18:09:40Z</time>
      </trkpt>
      <trkpt lat="47.44786" lon="-2.01203">
        <ele>12</ele>
        <time>2015-04-15T18:09:46Z</time>
      </trkpt>
      <trkpt lat="47.44796" lon="-2.01235">
        <ele>14</ele>
        <time>2015-04-15T18:09:53Z</time>
      </trkpt>
      <trkpt lat="47.44799" lon="-2.01245">
        <ele>14</ele>
        <time>2015-04-15T18:09:55Z</time>
      </trkpt>
      <trkpt lat="47.44801" lon="-2.01266">
        <ele>15</ele>
        <time>2015-04-15T18:10:00Z</time>
      </trkpt>
      <trkpt lat="47.44784" lon="-2.01283">
        <ele>15</ele>
        <time>2015-04-15T18:10:06Z</time>
      </trkpt>
      <trkpt lat="47.44768" lon="-2.01295">
        <ele>14</ele>
        <time>2015-04-15T18:10:10Z</time>
      </trkpt>
      <trkpt lat="47.44746" lon="-2.01319">
        <ele>18</ele>
        <time>2015-04-15T18:10:17Z</time>
      </trkpt>
      <trkpt lat="47.44727" lon="-2.01342">
        <ele>18</ele>
        <time>2015-04-15T18:10:23Z</time>
      </trkpt>
      <trkpt lat="47.4472" lon="-2.0135">
        <ele>17</ele>
        <time>2015-04-15T18:10:25Z</time>
      </trkpt>
      <trkpt lat="47.44699" lon="-2.01379">
        <ele>15</ele>
        <time>2015-04-15T18:10:32Z</time>
      </trkpt>
      <trkpt lat="47.44676" lon="-2.01406">
        <ele>14</ele>
        <time>2015-04-15T18:10:38Z</time>
      </trkpt>
      <trkpt lat="47.44668" lon="-2.01415">
        <ele>13</ele>
        <time>2015-04-15T18:10:40Z</time>
      </trkpt>
      <trkpt lat="47.4465" lon="-2.01438">
        <ele>12</ele>
        <time>2015-04-15T18:10:45Z</time>
      </trkpt>
      <trkpt lat="47.44627" lon="-2.01466">
        <ele>17</ele>
        <time>2015-04-15T18:10:51Z</time>
      </trkpt>
      <trkpt lat="47.4461" lon="-2.01489">
        <ele>15</ele>
        <time>2015-04-15T18:10:55Z</time>
      </trkpt>
      <trkpt lat="47.44578" lon="-2.01521">
        <ele>12</ele>
        <time>2015-04-15T18:11:02Z</time>
      </trkpt>
      <trkpt lat="47.44557" lon="-2.01531">
        <ele>11</ele>
        <time>2015-04-15T18:11:06Z</time>
      </trkpt>
      <trkpt lat="47.44543" lon="-2.01541">
        <ele>10</ele>
        <time>2015-04-15T18:11:10Z</time>
      </trkpt>
      <trkpt lat="47.44555" lon="-2.01553">
        <ele>12</ele>
        <time>2015-04-15T18:11:15Z</time>
      </trkpt>
      <trkpt lat="47.44575" lon="-2.01566">
        <ele>13</ele>
        <time>2015-04-15T18:11:21Z</time>
      </trkpt>
      <trkpt lat="47.44594" lon="-2.01583">
        <ele>14</ele>
        <time>2015-04-15T18:11:27Z</time>
      </trkpt>
      <trkpt lat="47.44618" lon="-2.01606">
        <ele>12</ele>
        <time>2015-04-15T18:11:34Z</time>
      </trkpt>
      <trkpt lat="47.44628" lon="-2.01615">
        <ele>13</ele>
        <time>2015-04-15T18:11:37Z</time>
      </trkpt>
      <trkpt lat="47.44641" lon="-2.01623">
        <ele>12</ele>
        <time>2015-04-15T18:11:40Z</time>
      </trkpt>
      <trkpt lat="47.44671" lon="-2.01642">
        <ele>18</ele>
        <time>2015-04-15T18:11:47Z</time>
      </trkpt>
      <trkpt lat="47.44685" lon="-2.01649">
        <ele>19</ele>
        <time>2015-04-15T18:11:50Z</time>
      </trkpt>
      <trkpt lat="47.44705" lon="-2.01659">
        <ele>18</ele>
        <time>2015-04-15T18:11:55Z</time>
      </trkpt>
      <trkpt lat="47.44726" lon="-2.01671">
        <ele>21</ele>
        <time>2015-04-15T18:12:00Z</time>
      </trkpt>
      <trkpt lat="47.4476" lon="-2.01701">
        <ele>19</ele>
        <time>2015-04-15T18:12:09Z</time>
      </trkpt>
      <trkpt lat="47.44763" lon="-2.01706">
        <ele>17</ele>
        <time>2015-04-15T18:12:10Z</time>
      </trkpt>
      <trkpt lat="47.44769" lon="-2.01723">
        <ele>18</ele>
        <time>2015-04-15T18:12:16Z</time>
      </trkpt>
      <trkpt lat="47.44766" lon="-2.01732">
        <ele>18</ele>
        <time>2015-04-15T18:12:20Z</time>
      </trkpt>
      <trkpt lat="47.4474" lon="-2.01737">
        <ele>13</ele>
        <time>2015-04-15T18:12:25Z</time>
      </trkpt>
      <trkpt lat="47.4471" lon="-2.01751">
        <ele>14</ele>
        <time>2015-04-15T18:12:30Z</time>
      </trkpt>
      <trkpt lat="47.44672" lon="-2.01773">
        <ele>11</ele>
        <time>2015-04-15T18:12:38Z</time>
      </trkpt>
      <trkpt lat="47.44656" lon="-2.01774">
        <ele>10</ele>
        <time>2015-04-15T18:12:42Z</time>
      </trkpt>
      <trkpt lat="47.44653" lon="-2.01778">
        <ele>8</ele>
        <time>2015-04-15T18:12:45Z</time>
      </trkpt>
      <trkpt lat="47.44652" lon="-2.01796">
        <ele>8</ele>
        <time>2015-04-15T18:12:50Z</time>
      </trkpt>
      <trkpt lat="47.44645" lon="-2.01815">
        <ele>12</ele>
        <time>2015-04-15T18:12:56Z</time>
      </trkpt>
      <trkpt lat="47.4464" lon="-2.01836">
        <ele>12</ele>
        <time>2015-04-15T18:13:00Z</time>
      </trkpt>
      <trkpt lat="47.44611" lon="-2.01849">
        <ele>9</ele>
        <time>2015-04-15T18:13:09Z</time>
      </trkpt>
      <trkpt lat="47.44608" lon="-2.01847">
        <ele>9</ele>
        <time>2015-04-15T18:13:10Z</time>
      </trkpt>
      <trkpt lat="47.446" lon="-2.0186">
        <ele>13</ele>
        <time>2015-04-15T18:13:17Z</time>
      </trkpt>
      <trkpt lat="47.44611" lon="-2.0189">
        <ele>12</ele>
        <time>2015-04-15T18:13:23Z</time>
      </trkpt>
      <trkpt lat="47.44616" lon="-2.01903">
        <ele>12</ele>
        <time>2015-04-15T18:13:26Z</time>
      </trkpt>
      <trkpt lat="47.44619" lon="-2.01924">
        <ele>11</ele>
        <time>2015-04-15T18:13:30Z</time>
      </trkpt>
      <trkpt lat="47.44631" lon="-2.01945">
        <ele>12</ele>
        <time>2015-04-15T18:13:35Z</time>
      </trkpt>
      <trkpt lat="47.44636" lon="-2.01943">
        <ele>15</ele>
        <time>2015-04-15T18:13:40Z</time>
      </trkpt>
      <trkpt lat="47.4464" lon="-2.01947">
        <ele>14</ele>
        <time>2015-04-15T18:13:46Z</time>
      </trkpt>
      <trkpt lat="47.44645" lon="-2.01943">
        <ele>15</ele>
        <time>2015-04-15T18:13:50Z</time>
      </trkpt>
      <trkpt lat="47.44649" lon="-2.01935">
        <ele>16</ele>
        <time>2015-04-15T18:13:55Z</time>
      </trkpt>
      <trkpt lat="47.44657" lon="-2.0193">
        <ele>9</ele>
        <time>2015-04-15T18:14:01Z</time>
      </trkpt>
      <trkpt lat="47.44662" lon="-2.01931">
        <ele>8</ele>
        <time>2015-04-15T18:14:05Z</time>
      </trkpt>
      <trkpt lat="47.44671" lon="-2.01933">
        <ele>6</ele>
        <time>2015-04-15T18:14:11Z</time>
      </trkpt>
      <trkpt lat="47.44675" lon="-2.0193">
        <ele>8</ele>
        <time>2015-04-15T18:14:18Z</time>
      </trkpt>
      <trkpt lat="47.44675" lon="-2.0193">
        <ele>8</ele>
        <time>2015-04-15T18:14:20Z</time>
      </trkpt>
      <trkpt lat="47.44677" lon="-2.01931">
        <ele>11</ele>
        <time>2015-04-15T18:14:23Z</time>
      </trkpt>
      <trkpt lat="47.44685" lon="-2.01936">
        <ele>11</ele>
        <time>2015-04-15T18:14:28Z</time>
      </trkpt>
      <trkpt lat="47.44698" lon="-2.01955">
        <ele>19</ele>
        <time>2015-04-15T18:14:33Z</time>
      </trkpt>
      <trkpt lat="47.44712" lon="-2.01946">
        <ele>24</ele>
        <time>2015-04-15T18:14:40Z</time>
      </trkpt>
      <trkpt lat="47.44725" lon="-2.01942">
        <ele>26</ele>
        <time>2015-04-15T18:14:46Z</time>
      </trkpt>
      <trkpt lat="47.44725" lon="-2.01947">
        <ele>27</ele>
        <time>2015-04-15T18:14:48Z</time>
      </trkpt>
      <trkpt lat="47.44728" lon="-2.01964">
        <ele>26</ele>
        <time>2015-04-15T18:14:54Z</time>
      </trkpt>
      <trkpt lat="47.44728" lon="-2.01973">
        <ele>22</ele>
        <time>2015-04-15T18:14:58Z</time>
      </trkpt>
      <trkpt lat="47.44719" lon="-2.0198">
        <ele>25</ele>
        <time>2015-04-15T18:15:03Z</time>
      </trkpt>
      <trkpt lat="47.44711" lon="-2.01984">
        <ele>26</ele>
        <time>2015-04-15T18:15:10Z</time>
      </trkpt>
      <trkpt lat="47.44695" lon="-2.01976">
        <ele>30</ele>
        <time>2015-04-15T18:15:14Z</time>
      </trkpt>
      <trkpt lat="47.4468" lon="-2.01976">
        <ele>28</ele>
        <time>2015-04-15T18:15:18Z</time>
      </trkpt>
      <trkpt lat="47.44659" lon="-2.02004">
        <ele>14</ele>
        <time>2015-04-15T18:15:25Z</time>
      </trkpt>
      <trkpt lat="47.44656" lon="-2.01996">
        <ele>12</ele>
        <time>2015-04-15T18:15:28Z</time>
      </trkpt>
      <trkpt lat="47.44654" lon="-2.01988">
        <ele>11</ele>
        <time>2015-04-15T18:15:36Z</time>
      </trkpt>
      <trkpt lat="47.44654" lon="-2.01988">
        <ele>11</ele>
        <time>2015-04-15T18:15:38Z</time>
      </trkpt>
      <trkpt lat="47.44654" lon="-2.01989">
        <ele>12</ele>
        <time>2015-04-15T18:15:41Z</time>
      </trkpt>
      <trkpt lat="47.44654" lon="-2.01989">
        <ele>12</ele>
        <time>2015-04-15T18:15:44Z</time>
      </trkpt>
      <trkpt lat="47.44654" lon="-2.0199">
        <ele>13</ele>
        <time>2015-04-15T18:15:47Z</time>
      </trkpt>
      <trkpt lat="47.44654" lon="-2.0199">
        <ele>13</ele>
        <time>2015-04-15T18:15:51Z</time>
      </trkpt>
      <trkpt lat="47.44654" lon="-2.0199">
        <ele>13</ele>
        <time>2015-04-15T18:15:53Z</time>
      </trkpt>
      <trkpt lat="47.44654" lon="-2.0199">
        <ele>14</ele>
        <time>2015-04-15T18:15:56Z</time>
      </trkpt>
      <trkpt lat="47.44654" lon="-2.0199">
        <ele>14</ele>
        <time>2015-04-15T18:15:59Z</time>
      </trkpt>
      <trkpt lat="47.44654" lon="-2.0199">
        <ele>14</ele>
        <time>2015-04-15T18:16:02Z</time>
      </trkpt>
      <trkpt lat="47.44654" lon="-2.0199">
        <ele>14</ele>
        <time>2015-04-15T18:16:05Z</time>
      </trkpt>
      <trkpt lat="47.44654" lon="-2.0199">
        <ele>14</ele>
        <time>2015-04-15T18:16:08Z</time>
      </trkpt>
      <trkpt lat="47.44654" lon="-2.0199">
        <ele>14</ele>
        <time>2015-04-15T18:16:11Z</time>
      </trkpt>
      <trkpt lat="47.44654" lon="-2.0199">
        <ele>14</ele>
        <time>2015-04-15T18:16:14Z</time>
      </trkpt>
      <trkpt lat="47.44654" lon="-2.0199">
        <ele>14</ele>
        <time>2015-04-15T18:16:17Z</time>
      </trkpt>
      <trkpt lat="47.44654" lon="-2.0199">
        <ele>14</ele>
        <time>2015-04-15T18:16:20Z</time>
      </trkpt>
      <trkpt lat="47.44654" lon="-2.0199">
        <ele>14</ele>
        <time>2015-04-15T18:16:23Z</time>
      </trkpt>
      <trkpt lat="47.44654" lon="-2.0199">
        <ele>14</ele>
        <time>2015-04-15T18:16:26Z</time>
      </trkpt>
      <trkpt lat="47.44654" lon="-2.0199">
        <ele>14</ele>
        <time>2015-04-15T18:16:29Z</time>
      </trkpt>
      <trkpt lat="47.44654" lon="-2.0199">
        <ele>14</ele>
        <time>2015-04-15T18:16:33Z</time>
      </trkpt>
      <trkpt lat="47.44654" lon="-2.0199">
        <ele>14</ele>
        <time>2015-04-15T18:16:35Z</time>
      </trkpt>
      <trkpt lat="47.44654" lon="-2.0199">
        <ele>14</ele>
        <time>2015-04-15T18:16:38Z</time>
      </trkpt>
      <trkpt lat="47.44654" lon="-2.0199">
        <ele>14</ele>
        <time>2015-04-15T18:16:41Z</time>
      </trkpt>
      <trkpt lat="47.44654" lon="-2.0199">
        <ele>14</ele>
        <time>2015-04-15T18:16:45Z</time>
      </trkpt>
      <trkpt lat="47.44654" lon="-2.0199">
        <ele>14</ele>
        <time>2015-04-15T18:16:48Z</time>
      </trkpt>
      <trkpt lat="47.44654" lon="-2.0199">
        <ele>13</ele>
        <time>2015-04-15T18:16:50Z</time>
      </trkpt>
      <trkpt lat="47.44654" lon="-2.0199">
        <ele>13</ele>
        <time>2015-04-15T18:16:53Z</time>
      </trkpt>
      <trkpt lat="47.44654" lon="-2.0199">
        <ele>13</ele>
        <time>2015-04-15T18:16:57Z</time>
      </trkpt>
      <trkpt lat="47.44654" lon="-2.0199">
        <ele>13</ele>
        <time>2015-04-15T18:16:59Z</time>
      </trkpt>
      <trkpt lat="47.44654" lon="-2.0199">
        <ele>13</ele>
        <time>2015-04-15T18:17:02Z</time>
      </trkpt>
      <trkpt lat="47.44654" lon="-2.0199">
        <ele>13</ele>
        <time>2015-04-15T18:17:05Z</time>
      </trkpt>
      <trkpt lat="47.44654" lon="-2.0199">
        <ele>13</ele>
        <time>2015-04-15T18:17:08Z</time>
      </trkpt>
      <trkpt lat="47.44654" lon="-2.0199">
        <ele>13</ele>
        <time>2015-04-15T18:17:11Z</time>
      </trkpt>
      <trkpt lat="47.44654" lon="-2.0199">
        <ele>13</ele>
        <time>2015-04-15T18:17:14Z</time>
      </trkpt>
      <trkpt lat="47.44654" lon="-2.0199">
        <ele>13</ele>
        <time>2015-04-15T18:17:18Z</time>
      </trkpt>
      <trkpt lat="47.44654" lon="-2.0199">
        <ele>13</ele>
        <time>2015-04-15T18:17:20Z</time>
      </trkpt>
      <trkpt lat="47.44654" lon="-2.0199">
        <ele>13</ele>
        <time>2015-04-15T18:17:23Z</time>
      </trkpt>
      <trkpt lat="47.44654" lon="-2.0199">
        <ele>13</ele>
        <time>2015-04-15T18:17:26Z</time>
      </trkpt>
      <trkpt lat="47.44654" lon="-2.0199">
        <ele>14</ele>
        <time>2015-04-15T18:17:29Z</time>
      </trkpt>
      <trkpt lat="47.44654" lon="-2.0199">
        <ele>14</ele>
        <time>2015-04-15T18:17:32Z</time>
      </trkpt>
      <trkpt lat="47.44654" lon="-2.0199">
        <ele>14</ele>
        <time>2015-04-15T18:17:36Z</time>
      </trkpt>
      <trkpt lat="47.44654" lon="-2.0199">
        <ele>14</ele>
        <time>2015-04-15T18:17:38Z</time>
      </trkpt>
      <trkpt lat="47.44654" lon="-2.0199">
        <ele>14</ele>
        <time>2015-04-15T18:17:42Z</time>
      </trkpt>
      <trkpt lat="47.44654" lon="-2.0199">
        <ele>14</ele>
        <time>2015-04-15T18:17:46Z</time>
      </trkpt>
      <trkpt lat="47.44654" lon="-2.0199">
        <ele>14</ele>
        <time>2015-04-15T18:17:47Z</time>
      </trkpt>
      <trkpt lat="47.44654" lon="-2.0199">
        <ele>14</ele>
        <time>2015-04-15T18:17:50Z</time>
      </trkpt>
      <trkpt lat="47.44654" lon="-2.0199">
        <ele>14</ele>
        <time>2015-04-15T18:17:53Z</time>
      </trkpt>
      <trkpt lat="47.44654" lon="-2.0199">
        <ele>14</ele>
        <time>2015-04-15T18:17:57Z</time>
      </trkpt>
      <trkpt lat="47.44654" lon="-2.0199">
        <ele>14</ele>
        <time>2015-04-15T18:18:01Z</time>
      </trkpt>
      <trkpt lat="47.44654" lon="-2.0199">
        <ele>14</ele>
        <time>2015-04-15T18:18:02Z</time>
      </trkpt>
      <trkpt lat="47.44653" lon="-2.0199">
        <ele>14</ele>
        <time>2015-04-15T18:18:06Z</time>
      </trkpt>
      <trkpt lat="47.44653" lon="-2.0199">
        <ele>14</ele>
        <time>2015-04-15T18:18:08Z</time>
      </trkpt>
      <trkpt lat="47.44653" lon="-2.0199">
        <ele>14</ele>
        <time>2015-04-15T18:18:11Z</time>
      </trkpt>
      <trkpt lat="47.44653" lon="-2.0199">
        <ele>14</ele>
        <time>2015-04-15T18:18:14Z</time>
      </trkpt>
      <trkpt lat="47.44653" lon="-2.0199">
        <ele>14</ele>
        <time>2015-04-15T18:18:17Z</time>
      </trkpt>
      <trkpt lat="47.44653" lon="-2.0199">
        <ele>14</ele>
        <time>2015-04-15T18:18:20Z</time>
      </trkpt>
      <trkpt lat="47.44653" lon="-2.0199">
        <ele>14</ele>
        <time>2015-04-15T18:18:23Z</time>
      </trkpt>
      <trkpt lat="47.44653" lon="-2.0199">
        <ele>14</ele>
        <time>2015-04-15T18:18:26Z</time>
      </trkpt>
      <trkpt lat="47.44653" lon="-2.0199">
        <ele>14</ele>
        <time>2015-04-15T18:18:29Z</time>
      </trkpt>
      <trkpt lat="47.44653" lon="-2.0199">
        <ele>14</ele>
        <time>2015-04-15T18:18:33Z</time>
      </trkpt>
      <trkpt lat="47.44653" lon="-2.0199">
        <ele>14</ele>
        <time>2015-04-15T18:18:35Z</time>
      </trkpt>
      <trkpt lat="47.44653" lon="-2.0199">
        <ele>14</ele>
        <time>2015-04-15T18:18:38Z</time>
      </trkpt>
      <trkpt lat="47.44653" lon="-2.0199">
        <ele>14</ele>
        <time>2015-04-15T18:18:41Z</time>
      </trkpt>
      <trkpt lat="47.44653" lon="-2.0199">
        <ele>14</ele>
        <time>2015-04-15T18:18:44Z</time>
      </trkpt>
      <trkpt lat="47.44653" lon="-2.0199">
        <ele>14</ele>
        <time>2015-04-15T18:18:47Z</time>
      </trkpt>
      <trkpt lat="47.44653" lon="-2.0199">
        <ele>14</ele>
        <time>2015-04-15T18:18:50Z</time>
      </trkpt>
      <trkpt lat="47.44653" lon="-2.0199">
        <ele>14</ele>
        <time>2015-04-15T18:18:53Z</time>
      </trkpt>
      <trkpt lat="47.44653" lon="-2.0199">
        <ele>14</ele>
        <time>2015-04-15T18:18:56Z</time>
      </trkpt>
      <trkpt lat="47.44653" lon="-2.0199">
        <ele>14</ele>
        <time>2015-04-15T18:18:59Z</time>
      </trkpt>
      <trkpt lat="47.44653" lon="-2.0199">
        <ele>14</ele>
        <time>2015-04-15T18:19:04Z</time>
      </trkpt>
      <trkpt lat="47.44653" lon="-2.0199">
        <ele>14</ele>
        <time>2015-04-15T18:19:05Z</time>
      </trkpt>
      <trkpt lat="47.44653" lon="-2.0199">
        <ele>14</ele>
        <time>2015-04-15T18:19:08Z</time>
      </trkpt>
      <trkpt lat="47.44653" lon="-2.0199">
        <ele>14</ele>
        <time>2015-04-15T18:19:12Z</time>
      </trkpt>
      <trkpt lat="47.44653" lon="-2.0199">
        <ele>14</ele>
        <time>2015-04-15T18:19:14Z</time>
      </trkpt>
      <trkpt lat="47.44653" lon="-2.0199">
        <ele>14</ele>
        <time>2015-04-15T18:19:19Z</time>
      </trkpt>
      <trkpt lat="47.44653" lon="-2.0199">
        <ele>14</ele>
        <time>2015-04-15T18:19:20Z</time>
      </trkpt>
      <trkpt lat="47.44653" lon="-2.0199">
        <ele>14</ele>
        <time>2015-04-15T18:19:23Z</time>
      </trkpt>
      <trkpt lat="47.44653" lon="-2.0199">
        <ele>14</ele>
        <time>2015-04-15T18:19:26Z</time>
      </trkpt>
      <trkpt lat="47.44653" lon="-2.0199">
        <ele>14</ele>
        <time>2015-04-15T18:19:29Z</time>
      </trkpt>
      <trkpt lat="47.44653" lon="-2.0199">
        <ele>14</ele>
        <time>2015-04-15T18:19:32Z</time>
      </trkpt>
      <trkpt lat="47.44653" lon="-2.01989">
        <ele>14</ele>
        <time>2015-04-15T18:19:35Z</time>
      </trkpt>
      <trkpt lat="47.44652" lon="-2.0199">
        <ele>15</ele>
        <time>2015-04-15T18:19:38Z</time>
      </trkpt>
      <trkpt lat="47.44652" lon="-2.01989">
        <ele>14</ele>
        <time>2015-04-15T18:19:43Z</time>
      </trkpt>
      <trkpt lat="47.44652" lon="-2.01989">
        <ele>15</ele>
        <time>2015-04-15T18:19:47Z</time>
      </trkpt>
      <trkpt lat="47.44652" lon="-2.01989">
        <ele>15</ele>
        <time>2015-04-15T18:19:49Z</time>
      </trkpt>
      <trkpt lat="47.44652" lon="-2.01989">
        <ele>15</ele>
        <time>2015-04-15T18:19:52Z</time>
      </trkpt>
      <trkpt lat="47.44652" lon="-2.01989">
        <ele>15</ele>
        <time>2015-04-15T18:19:55Z</time>
      </trkpt>
      <trkpt lat="47.44652" lon="-2.01989">
        <ele>15</ele>
        <time>2015-04-15T18:19:58Z</time>
      </trkpt>
      <trkpt lat="47.44652" lon="-2.01989">
        <ele>15</ele>
        <time>2015-04-15T18:20:01Z</time>
      </trkpt>
      <trkpt lat="47.44652" lon="-2.01989">
        <ele>15</ele>
        <time>2015-04-15T18:20:04Z</time>
      </trkpt>
      <trkpt lat="47.44652" lon="-2.01989">
        <ele>15</ele>
        <time>2015-04-15T18:20:07Z</time>
      </trkpt>
      <trkpt lat="47.44652" lon="-2.01989">
        <ele>15</ele>
        <time>2015-04-15T18:20:10Z</time>
      </trkpt>
      <trkpt lat="47.44652" lon="-2.01989">
        <ele>16</ele>
        <time>2015-04-15T18:20:13Z</time>
      </trkpt>
      <trkpt lat="47.44652" lon="-2.01989">
        <ele>15</ele>
        <time>2015-04-15T18:20:16Z</time>
      </trkpt>
      <trkpt lat="47.44652" lon="-2.01989">
        <ele>15</ele>
        <time>2015-04-15T18:20:19Z</time>
      </trkpt>
      <trkpt lat="47.44652" lon="-2.01989">
        <ele>15</ele>
        <time>2015-04-15T18:20:22Z</time>
      </trkpt>
      <trkpt lat="47.44652" lon="-2.01989">
        <ele>15</ele>
        <time>2015-04-15T18:20:25Z</time>
      </trkpt>
      <trkpt lat="47.44652" lon="-2.01989">
        <ele>15</ele>
        <time>2015-04-15T18:20:28Z</time>
      </trkpt>
      <trkpt lat="47.44652" lon="-2.01989">
        <ele>15</ele>
        <time>2015-04-15T18:20:31Z</time>
      </trkpt>
      <trkpt lat="47.44652" lon="-2.01989">
        <ele>15</ele>
        <time>2015-04-15T18:20:34Z</time>
      </trkpt>
      <trkpt lat="47.44652" lon="-2.0199">
        <ele>16</ele>
        <time>2015-04-15T18:20:38Z</time>
      </trkpt>
      <trkpt lat="47.44652" lon="-2.0199">
        <ele>16</ele>
        <time>2015-04-15T18:20:40Z</time>
      </trkpt>
      <trkpt lat="47.44653" lon="-2.0199">
        <ele>15</ele>
        <time>2015-04-15T18:20:43Z</time>
      </trkpt>
      <trkpt lat="47.44653" lon="-2.0199">
        <ele>17</ele>
        <time>2015-04-15T18:20:46Z</time>
      </trkpt>
      <trkpt lat="47.44652" lon="-2.01989">
        <ele>17</ele>
        <time>2015-04-15T18:20:49Z</time>
      </trkpt>
      <trkpt lat="47.44652" lon="-2.01989">
        <ele>18</ele>
        <time>2015-04-15T18:20:52Z</time>
      </trkpt>
      <trkpt lat="47.44652" lon="-2.01989">
        <ele>18</ele>
        <time>2015-04-15T18:20:55Z</time>
      </trkpt>
      <trkpt lat="47.44652" lon="-2.01989">
        <ele>18</ele>
        <time>2015-04-15T18:20:58Z</time>
      </trkpt>
      <trkpt lat="47.44652" lon="-2.01989">
        <ele>18</ele>
        <time>2015-04-15T18:21:01Z</time>
      </trkpt>
      <trkpt lat="47.44652" lon="-2.01989">
        <ele>18</ele>
        <time>2015-04-15T18:21:04Z</time>
      </trkpt>
      <trkpt lat="47.44652" lon="-2.01989">
        <ele>18</ele>
        <time>2015-04-15T18:21:07Z</time>
      </trkpt>
      <trkpt lat="47.44652" lon="-2.01989">
        <ele>18</ele>
        <time>2015-04-15T18:21:10Z</time>
      </trkpt>
      <trkpt lat="47.44652" lon="-2.01989">
        <ele>18</ele>
        <time>2015-04-15T18:21:15Z</time>
      </trkpt>
      <trkpt lat="47.44652" lon="-2.01989">
        <ele>18</ele>
        <time>2015-04-15T18:21:17Z</time>
      </trkpt>
      <trkpt lat="47.44652" lon="-2.01989">
        <ele>18</ele>
        <time>2015-04-15T18:21:19Z</time>
      </trkpt>
      <trkpt lat="47.44652" lon="-2.01989">
        <ele>18</ele>
        <time>2015-04-15T18:21:22Z</time>
      </trkpt>
      <trkpt lat="47.44652" lon="-2.01989">
        <ele>18</ele>
        <time>2015-04-15T18:21:27Z</time>
      </trkpt>
      <trkpt lat="47.44652" lon="-2.01989">
        <ele>18</ele>
        <time>2015-04-15T18:21:28Z</time>
      </trkpt>
      <trkpt lat="47.44652" lon="-2.01989">
        <ele>18</ele>
        <time>2015-04-15T18:21:31Z</time>
      </trkpt>
      <trkpt lat="47.44652" lon="-2.01989">
        <ele>18</ele>
        <time>2015-04-15T18:21:34Z</time>
      </trkpt>
      <trkpt lat="47.44652" lon="-2.01989">
        <ele>18</ele>
        <time>2015-04-15T18:21:37Z</time>
      </trkpt>
      <trkpt lat="47.44652" lon="-2.01989">
        <ele>18</ele>
        <time>2015-04-15T18:21:40Z</time>
      </trkpt>
      <trkpt lat="47.44652" lon="-2.01989">
        <ele>18</ele>
        <time>2015-04-15T18:21:43Z</time>
      </trkpt>
      <trkpt lat="47.44652" lon="-2.0199">
        <ele>18</ele>
        <time>2015-04-15T18:21:46Z</time>
      </trkpt>
      <trkpt lat="47.44652" lon="-2.0199">
        <ele>18</ele>
        <time>2015-04-15T18:21:49Z</time>
      </trkpt>
      <trkpt lat="47.44652" lon="-2.0199">
        <ele>18</ele>
        <time>2015-04-15T18:21:52Z</time>
      </trkpt>
      <trkpt lat="47.44652" lon="-2.0199">
        <ele>18</ele>
        <time>2015-04-15T18:21:55Z</time>
      </trkpt>
      <trkpt lat="47.44652" lon="-2.0199">
        <ele>18</ele>
        <time>2015-04-15T18:21:58Z</time>
      </trkpt>
      <trkpt lat="47.44652" lon="-2.0199">
        <ele>18</ele>
        <time>2015-04-15T18:22:01Z</time>
      </trkpt>
      <trkpt lat="47.44652" lon="-2.0199">
        <ele>18</ele>
        <time>2015-04-15T18:22:05Z</time>
      </trkpt>
      <trkpt lat="47.44652" lon="-2.0199">
        <ele>18</ele>
        <time>2015-04-15T18:22:07Z</time>
      </trkpt>
      <trkpt lat="47.44652" lon="-2.0199">
        <ele>18</ele>
        <time>2015-04-15T18:22:12Z</time>
      </trkpt>
      <trkpt lat="47.44652" lon="-2.0199">
        <ele>18</ele>
        <time>2015-04-15T18:22:15Z</time>
      </trkpt>
      <trkpt lat="47.44652" lon="-2.0199">
        <ele>18</ele>
        <time>2015-04-15T18:22:16Z</time>
      </trkpt>
      <trkpt lat="47.44652" lon="-2.01989">
        <ele>18</ele>
        <time>2015-04-15T18:22:19Z</time>
      </trkpt>
      <trkpt lat="47.44652" lon="-2.01989">
        <ele>18</ele>
        <time>2015-04-15T18:22:22Z</time>
      </trkpt>
      <trkpt lat="47.44652" lon="-2.01989">
        <ele>18</ele>
        <time>2015-04-15T18:22:25Z</time>
      </trkpt>
      <trkpt lat="47.44652" lon="-2.01989">
        <ele>18</ele>
        <time>2015-04-15T18:22:28Z</time>
      </trkpt>
      <trkpt lat="47.44652" lon="-2.01989">
        <ele>18</ele>
        <time>2015-04-15T18:22:31Z</time>
      </trkpt>
      <trkpt lat="47.44652" lon="-2.01989">
        <ele>18</ele>
        <time>2015-04-15T18:22:34Z</time>
      </trkpt>
      <trkpt lat="47.44652" lon="-2.01989">
        <ele>19</ele>
        <time>2015-04-15T18:22:37Z</time>
      </trkpt>
      <trkpt lat="47.44652" lon="-2.01988">
        <ele>19</ele>
        <time>2015-04-15T18:22:41Z</time>
      </trkpt>
      <trkpt lat="47.44652" lon="-2.01988">
        <ele>19</ele>
        <time>2015-04-15T18:22:43Z</time>
      </trkpt>
      <trkpt lat="47.44652" lon="-2.01989">
        <ele>20</ele>
        <time>2015-04-15T18:22:46Z</time>
      </trkpt>
      <trkpt lat="47.4466" lon="-2.01992">
        <ele>20</ele>
        <time>2015-04-15T18:22:49Z</time>
      </trkpt>
      <trkpt lat="47.44678" lon="-2.01978">
        <ele>17</ele>
        <time>2015-04-15T18:22:55Z</time>
      </trkpt>
      <trkpt lat="47.44692" lon="-2.01982">
        <ele>17</ele>
        <time>2015-04-15T18:22:59Z</time>
      </trkpt>
      <trkpt lat="47.44734" lon="-2.01988">
        <ele>18</ele>
        <time>2015-04-15T18:23:07Z</time>
      </trkpt>
      <trkpt lat="47.44739" lon="-2.01972">
        <ele>23</ele>
        <time>2015-04-15T18:23:11Z</time>
      </trkpt>
      <trkpt lat="47.4474" lon="-2.01958">
        <ele>22</ele>
        <time>2015-04-15T18:23:14Z</time>
      </trkpt>
      <trkpt lat="47.44742" lon="-2.01941">
        <ele>20</ele>
        <time>2015-04-15T18:23:19Z</time>
      </trkpt>
      <trkpt lat="47.4473" lon="-2.01938">
        <ele>19</ele>
        <time>2015-04-15T18:23:24Z</time>
      </trkpt>
      <trkpt lat="47.44713" lon="-2.01952">
        <ele>16</ele>
        <time>2015-04-15T18:23:29Z</time>
      </trkpt>
      <trkpt lat="47.44685" lon="-2.01935">
        <ele>13</ele>
        <time>2015-04-15T18:23:38Z</time>
      </trkpt>
      <trkpt lat="47.44677" lon="-2.01933">
        <ele>13</ele>
        <time>2015-04-15T18:23:40Z</time>
      </trkpt>
      <trkpt lat="47.44649" lon="-2.01959">
        <ele>7</ele>
        <time>2015-04-15T18:23:49Z</time>
      </trkpt>
      <trkpt lat="47.44646" lon="-2.01956">
        <ele>7</ele>
        <time>2015-04-15T18:23:51Z</time>
      </trkpt>
      <trkpt lat="47.44639" lon="-2.01946">
        <ele>5</ele>
        <time>2015-04-15T18:23:56Z</time>
      </trkpt>
      <trkpt lat="47.44623" lon="-2.01904">
        <ele>9</ele>
        <time>2015-04-15T18:24:04Z</time>
      </trkpt>
      <trkpt lat="47.44619" lon="-2.01894">
        <ele>9</ele>
        <time>2015-04-15T18:24:06Z</time>
      </trkpt>
      <trkpt lat="47.44611" lon="-2.01872">
        <ele>11</ele>
        <time>2015-04-15T18:24:10Z</time>
      </trkpt>
      <trkpt lat="47.44602" lon="-2.0185">
        <ele>11</ele>
        <time>2015-04-15T18:24:17Z</time>
      </trkpt>
      <trkpt lat="47.44608" lon="-2.01854">
        <ele>10</ele>
        <time>2015-04-15T18:24:20Z</time>
      </trkpt>
      <trkpt lat="47.44626" lon="-2.01857">
        <ele>17</ele>
        <time>2015-04-15T18:24:25Z</time>
      </trkpt>
      <trkpt lat="47.44642" lon="-2.01844">
        <ele>14</ele>
        <time>2015-04-15T18:24:30Z</time>
      </trkpt>
      <trkpt lat="47.44648" lon="-2.0182">
        <ele>10</ele>
        <time>2015-04-15T18:24:35Z</time>
      </trkpt>
      <trkpt lat="47.44651" lon="-2.01782">
        <ele>13</ele>
        <time>2015-04-15T18:24:43Z</time>
      </trkpt>
      <trkpt lat="47.44654" lon="-2.01783">
        <ele>15</ele>
        <time>2015-04-15T18:24:45Z</time>
      </trkpt>
      <trkpt lat="47.44671" lon="-2.01782">
        <ele>11</ele>
        <time>2015-04-15T18:24:52Z</time>
      </trkpt>
      <trkpt lat="47.44683" lon="-2.01777">
        <ele>10</ele>
        <time>2015-04-15T18:24:55Z</time>
      </trkpt>
      <trkpt lat="47.44712" lon="-2.0176">
        <ele>11</ele>
        <time>2015-04-15T18:25:00Z</time>
      </trkpt>
      <trkpt lat="47.44757" lon="-2.01741">
        <ele>21</ele>
        <time>2015-04-15T18:25:09Z</time>
      </trkpt>
      <trkpt lat="47.44757" lon="-2.0174">
        <ele>23</ele>
        <time>2015-04-15T18:25:10Z</time>
      </trkpt>
      <trkpt lat="47.44769" lon="-2.01729">
        <ele>28</ele>
        <time>2015-04-15T18:25:19Z</time>
      </trkpt>
      <trkpt lat="47.44769" lon="-2.01722">
        <ele>26</ele>
        <time>2015-04-15T18:25:22Z</time>
      </trkpt>
      <trkpt lat="47.44767" lon="-2.01715">
        <ele>26</ele>
        <time>2015-04-15T18:25:25Z</time>
      </trkpt>
      <trkpt lat="47.44756" lon="-2.01701">
        <ele>21</ele>
        <time>2015-04-15T18:25:32Z</time>
      </trkpt>
      <trkpt lat="47.44746" lon="-2.01691">
        <ele>20</ele>
        <time>2015-04-15T18:25:38Z</time>
      </trkpt>
      <trkpt lat="47.44743" lon="-2.01687">
        <ele>20</ele>
        <time>2015-04-15T18:25:40Z</time>
      </trkpt>
      <trkpt lat="47.44735" lon="-2.01679">
        <ele>20</ele>
        <time>2015-04-15T18:25:45Z</time>
      </trkpt>
      <trkpt lat="47.44721" lon="-2.01671">
        <ele>21</ele>
        <time>2015-04-15T18:25:54Z</time>
      </trkpt>
      <trkpt lat="47.44719" lon="-2.01669">
        <ele>21</ele>
        <time>2015-04-15T18:25:55Z</time>
      </trkpt>
      <trkpt lat="47.4471" lon="-2.01664">
        <ele>23</ele>
        <time>2015-04-15T18:26:00Z</time>
      </trkpt>
      <trkpt lat="47.44699" lon="-2.01658">
        <ele>21</ele>
        <time>2015-04-15T18:26:06Z</time>
      </trkpt>
      <trkpt lat="47.44689" lon="-2.01652">
        <ele>21</ele>
        <time>2015-04-15T18:26:10Z</time>
      </trkpt>
      <trkpt lat="47.44676" lon="-2.01643">
        <ele>19</ele>
        <time>2015-04-15T18:26:15Z</time>
      </trkpt>
      <trkpt lat="47.44659" lon="-2.01631">
        <ele>17</ele>
        <time>2015-04-15T18:26:21Z</time>
      </trkpt>
      <trkpt lat="47.4464" lon="-2.01615">
        <ele>18</ele>
        <time>2015-04-15T18:26:28Z</time>
      </trkpt>
      <trkpt lat="47.44635" lon="-2.01611">
        <ele>17</ele>
        <time>2015-04-15T18:26:30Z</time>
      </trkpt>
      <trkpt lat="47.44618" lon="-2.01596">
        <ele>22</ele>
        <time>2015-04-15T18:26:36Z</time>
      </trkpt>
      <trkpt lat="47.44605" lon="-2.01583">
        <ele>26</ele>
        <time>2015-04-15T18:26:41Z</time>
      </trkpt>
      <trkpt lat="47.44595" lon="-2.01574">
        <ele>25</ele>
        <time>2015-04-15T18:26:45Z</time>
      </trkpt>
      <trkpt lat="47.44576" lon="-2.01561">
        <ele>27</ele>
        <time>2015-04-15T18:26:51Z</time>
      </trkpt>
      <trkpt lat="47.44555" lon="-2.0155">
        <ele>25</ele>
        <time>2015-04-15T18:26:57Z</time>
      </trkpt>
      <trkpt lat="47.44552" lon="-2.01539">
        <ele>26</ele>
        <time>2015-04-15T18:27:00Z</time>
      </trkpt>
      <trkpt lat="47.44563" lon="-2.01524">
        <ele>20</ele>
        <time>2015-04-15T18:27:05Z</time>
      </trkpt>
      <trkpt lat="47.44587" lon="-2.01509">
        <ele>17</ele>
        <time>2015-04-15T18:27:12Z</time>
      </trkpt>
      <trkpt lat="47.44595" lon="-2.01504">
        <ele>16</ele>
        <time>2015-04-15T18:27:15Z</time>
      </trkpt>
      <trkpt lat="47.4461" lon="-2.01492">
        <ele>14</ele>
        <time>2015-04-15T18:27:20Z</time>
      </trkpt>
      <trkpt lat="47.44632" lon="-2.01456">
        <ele>20</ele>
        <time>2015-04-15T18:27:28Z</time>
      </trkpt>
      <trkpt lat="47.44649" lon="-2.01432">
        <ele>15</ele>
        <time>2015-04-15T18:27:34Z</time>
      </trkpt>
      <trkpt lat="47.44664" lon="-2.01413">
        <ele>15</ele>
        <time>2015-04-15T18:27:39Z</time>
      </trkpt>
      <trkpt lat="47.44667" lon="-2.01409">
        <ele>14</ele>
        <time>2015-04-15T18:27:40Z</time>
      </trkpt>
      <trkpt lat="47.44684" lon="-2.01389">
        <ele>13</ele>
        <time>2015-04-15T18:27:45Z</time>
      </trkpt>
      <trkpt lat="47.44702" lon="-2.01366">
        <ele>15</ele>
        <time>2015-04-15T18:27:52Z</time>
      </trkpt>
      <trkpt lat="47.44709" lon="-2.01357">
        <ele>18</ele>
        <time>2015-04-15T18:27:55Z</time>
      </trkpt>
      <trkpt lat="47.44722" lon="-2.01343">
        <ele>18</ele>
        <time>2015-04-15T18:28:01Z</time>
      </trkpt>
      <trkpt lat="47.44741" lon="-2.01319">
        <ele>22</ele>
        <time>2015-04-15T18:28:08Z</time>
      </trkpt>
      <trkpt lat="47.44756" lon="-2.01305">
        <ele>20</ele>
        <time>2015-04-15T18:28:12Z</time>
      </trkpt>
      <trkpt lat="47.44782" lon="-2.01286">
        <ele>17</ele>
        <time>2015-04-15T18:28:19Z</time>
      </trkpt>
      <trkpt lat="47.44785" lon="-2.01284">
        <ele>17</ele>
        <time>2015-04-15T18:28:20Z</time>
      </trkpt>
      <trkpt lat="47.44803" lon="-2.01269">
        <ele>14</ele>
        <time>2015-04-15T18:28:26Z</time>
      </trkpt>
      <trkpt lat="47.44828" lon="-2.01251">
        <ele>12</ele>
        <time>2015-04-15T18:28:33Z</time>
      </trkpt>
      <trkpt lat="47.44836" lon="-2.01246">
        <ele>13</ele>
        <time>2015-04-15T18:28:35Z</time>
      </trkpt>
      <trkpt lat="47.44859" lon="-2.01228">
        <ele>16</ele>
        <time>2015-04-15T18:28:42Z</time>
      </trkpt>
      <trkpt lat="47.4487" lon="-2.01218">
        <ele>21</ele>
        <time>2015-04-15T18:28:46Z</time>
      </trkpt>
      <trkpt lat="47.44884" lon="-2.01207">
        <ele>24</ele>
        <time>2015-04-15T18:28:50Z</time>
      </trkpt>
      <trkpt lat="47.44915" lon="-2.01183">
        <ele>20</ele>
        <time>2015-04-15T18:28:59Z</time>
      </trkpt>
      <trkpt lat="47.44919" lon="-2.01181">
        <ele>21</ele>
        <time>2015-04-15T18:29:00Z</time>
      </trkpt>
      <trkpt lat="47.44938" lon="-2.01171">
        <ele>24</ele>
        <time>2015-04-15T18:29:05Z</time>
      </trkpt>
      <trkpt lat="47.44973" lon="-2.0114">
        <ele>27</ele>
        <time>2015-04-15T18:29:13Z</time>
      </trkpt>
      <trkpt lat="47.44988" lon="-2.01132">
        <ele>25</ele>
        <time>2015-04-15T18:29:15Z</time>
      </trkpt>
      <trkpt lat="47.45015" lon="-2.01116">
        <ele>24</ele>
        <time>2015-04-15T18:29:20Z</time>
      </trkpt>
      <trkpt lat="47.45054" lon="-2.01095">
        <ele>23</ele>
        <time>2015-04-15T18:29:29Z</time>
      </trkpt>
      <trkpt lat="47.45075" lon="-2.01082">
        <ele>13</ele>
        <time>2015-04-15T18:29:34Z</time>
      </trkpt>
      <trkpt lat="47.4508" lon="-2.01077">
        <ele>13</ele>
        <time>2015-04-15T18:29:35Z</time>
      </trkpt>
      <trkpt lat="47.45101" lon="-2.01053">
        <ele>15</ele>
        <time>2015-04-15T18:29:40Z</time>
      </trkpt>
      <trkpt lat="47.45135" lon="-2.01018">
        <ele>15</ele>
        <time>2015-04-15T18:29:49Z</time>
      </trkpt>
      <trkpt lat="47.45138" lon="-2.01016">
        <ele>16</ele>
        <time>2015-04-15T18:29:50Z</time>
      </trkpt>
      <trkpt lat="47.45154" lon="-2.01">
        <ele>15</ele>
        <time>2015-04-15T18:29:55Z</time>
      </trkpt>
      <trkpt lat="47.4517" lon="-2.00981">
        <ele>19</ele>
        <time>2015-04-15T18:30:00Z</time>
      </trkpt>
      <trkpt lat="47.45188" lon="-2.00968">
        <ele>17</ele>
        <time>2015-04-15T18:30:05Z</time>
      </trkpt>
      <trkpt lat="47.45205" lon="-2.00954">
        <ele>13</ele>
        <time>2015-04-15T18:30:10Z</time>
      </trkpt>
      <trkpt lat="47.45222" lon="-2.0094">
        <ele>16</ele>
        <time>2015-04-15T18:30:15Z</time>
      </trkpt>
      <trkpt lat="47.45251" lon="-2.00911">
        <ele>18</ele>
        <time>2015-04-15T18:30:23Z</time>
      </trkpt>
      <trkpt lat="47.45261" lon="-2.00899">
        <ele>15</ele>
        <time>2015-04-15T18:30:27Z</time>
      </trkpt>
      <trkpt lat="47.45282" lon="-2.0088">
        <ele>19</ele>
        <time>2015-04-15T18:30:33Z</time>
      </trkpt>
      <trkpt lat="47.45289" lon="-2.00873">
        <ele>19</ele>
        <time>2015-04-15T18:30:35Z</time>
      </trkpt>
      <trkpt lat="47.45308" lon="-2.00855">
        <ele>19</ele>
        <time>2015-04-15T18:30:40Z</time>
      </trkpt>
      <trkpt lat="47.45327" lon="-2.00835">
        <ele>18</ele>
        <time>2015-04-15T18:30:45Z</time>
      </trkpt>
      <trkpt lat="47.45357" lon="-2.00806">
        <ele>17</ele>
        <time>2015-04-15T18:30:53Z</time>
      </trkpt>
      <trkpt lat="47.45373" lon="-2.00791">
        <ele>18</ele>
        <time>2015-04-15T18:30:57Z</time>
      </trkpt>
      <trkpt lat="47.45384" lon="-2.00779">
        <ele>18</ele>
        <time>2015-04-15T18:31:00Z</time>
      </trkpt>
      <trkpt lat="47.454" lon="-2.00759">
        <ele>23</ele>
        <time>2015-04-15T18:31:05Z</time>
      </trkpt>
      <trkpt lat="47.45433" lon="-2.00724">
        <ele>16</ele>
        <time>2015-04-15T18:31:14Z</time>
      </trkpt>
      <trkpt lat="47.45444" lon="-2.00714">
        <ele>15</ele>
        <time>2015-04-15T18:31:17Z</time>
      </trkpt>
      <trkpt lat="47.45454" lon="-2.00704">
        <ele>13</ele>
        <time>2015-04-15T18:31:20Z</time>
      </trkpt>
      <trkpt lat="47.45469" lon="-2.00687">
        <ele>18</ele>
        <time>2015-04-15T18:31:25Z</time>
      </trkpt>
      <trkpt lat="47.45488" lon="-2.00666">
        <ele>25</ele>
        <time>2015-04-15T18:31:31Z</time>
      </trkpt>
      <trkpt lat="47.455" lon="-2.00654">
        <ele>24</ele>
        <time>2015-04-15T18:31:35Z</time>
      </trkpt>
      <trkpt lat="47.4553" lon="-2.00628">
        <ele>19</ele>
        <time>2015-04-15T18:31:44Z</time>
      </trkpt>
      <trkpt lat="47.45533" lon="-2.00626">
        <ele>20</ele>
        <time>2015-04-15T18:31:45Z</time>
      </trkpt>
      <trkpt lat="47.4555" lon="-2.00607">
        <ele>21</ele>
        <time>2015-04-15T18:31:51Z</time>
      </trkpt>
      <trkpt lat="47.45562" lon="-2.00593">
        <ele>24</ele>
        <time>2015-04-15T18:31:55Z</time>
      </trkpt>
      <trkpt lat="47.45583" lon="-2.00578">
        <ele>21</ele>
        <time>2015-04-15T18:32:01Z</time>
      </trkpt>
      <trkpt lat="47.45595" lon="-2.00566">
        <ele>22</ele>
        <time>2015-04-15T18:32:05Z</time>
      </trkpt>
      <trkpt lat="47.45615" lon="-2.00546">
        <ele>22</ele>
        <time>2015-04-15T18:32:11Z</time>
      </trkpt>
      <trkpt lat="47.4563" lon="-2.00532">
        <ele>23</ele>
        <time>2015-04-15T18:32:16Z</time>
      </trkpt>
      <trkpt lat="47.45656" lon="-2.00511">
        <ele>22</ele>
        <time>2015-04-15T18:32:24Z</time>
      </trkpt>
      <trkpt lat="47.45662" lon="-2.00506">
        <ele>22</ele>
        <time>2015-04-15T18:32:26Z</time>
      </trkpt>
      <trkpt lat="47.45675" lon="-2.00499">
        <ele>22</ele>
        <time>2015-04-15T18:32:30Z</time>
      </trkpt>
      <trkpt lat="47.45701" lon="-2.00491">
        <ele>20</ele>
        <time>2015-04-15T18:32:37Z</time>
      </trkpt>
      <trkpt lat="47.45714" lon="-2.00491">
        <ele>18</ele>
        <time>2015-04-15T18:32:40Z</time>
      </trkpt>
      <trkpt lat="47.45745" lon="-2.00495">
        <ele>17</ele>
        <time>2015-04-15T18:32:48Z</time>
      </trkpt>
      <trkpt lat="47.45752" lon="-2.00496">
        <ele>19</ele>
        <time>2015-04-15T18:32:50Z</time>
      </trkpt>
      <trkpt lat="47.4577" lon="-2.00497">
        <ele>19</ele>
        <time>2015-04-15T18:32:55Z</time>
      </trkpt>
      <trkpt lat="47.45787" lon="-2.00498">
        <ele>18</ele>
        <time>2015-04-15T18:33:00Z</time>
      </trkpt>
      <trkpt lat="47.4581" lon="-2.00501">
        <ele>15</ele>
        <time>2015-04-15T18:33:06Z</time>
      </trkpt>
      <trkpt lat="47.45834" lon="-2.00503">
        <ele>17</ele>
        <time>2015-04-15T18:33:12Z</time>
      </trkpt>
      <trkpt lat="47.45851" lon="-2.00505">
        <ele>18</ele>
        <time>2015-04-15T18:33:17Z</time>
      </trkpt>
      <trkpt lat="47.45867" lon="-2.00507">
        <ele>18</ele>
        <time>2015-04-15T18:33:21Z</time>
      </trkpt>
      <trkpt lat="47.45883" lon="-2.0051">
        <ele>16</ele>
        <time>2015-04-15T18:33:25Z</time>
      </trkpt>
      <trkpt lat="47.45902" lon="-2.00513">
        <ele>16</ele>
        <time>2015-04-15T18:33:30Z</time>
      </trkpt>
      <trkpt lat="47.45933" lon="-2.0052">
        <ele>11</ele>
        <time>2015-04-15T18:33:38Z</time>
      </trkpt>
      <trkpt lat="47.45941" lon="-2.00521">
        <ele>10</ele>
        <time>2015-04-15T18:33:40Z</time>
      </trkpt>
      <trkpt lat="47.45965" lon="-2.00527">
        <ele>14</ele>
        <time>2015-04-15T18:33:47Z</time>
      </trkpt>
      <trkpt lat="47.45973" lon="-2.00529">
        <ele>19</ele>
        <time>2015-04-15T18:33:50Z</time>
      </trkpt>
      <trkpt lat="47.45989" lon="-2.00536">
        <ele>23</ele>
        <time>2015-04-15T18:33:58Z</time>
      </trkpt>
      <trkpt lat="47.4599" lon="-2.00544">
        <ele>25</ele>
        <time>2015-04-15T18:34:00Z</time>
      </trkpt>
      <trkpt lat="47.45984" lon="-2.00574">
        <ele>20</ele>
        <time>2015-04-15T18:34:06Z</time>
      </trkpt>
      <trkpt lat="47.45989" lon="-2.00614">
        <ele>21</ele>
        <time>2015-04-15T18:34:13Z</time>
      </trkpt>
      <trkpt lat="47.45999" lon="-2.00633">
        <ele>21</ele>
        <time>2015-04-15T18:34:18Z</time>
      </trkpt>
      <trkpt lat="47.46007" lon="-2.00631">
        <ele>21</ele>
        <time>2015-04-15T18:34:20Z</time>
      </trkpt>
      <trkpt lat="47.46023" lon="-2.00626">
        <ele>20</ele>
        <time>2015-04-15T18:34:27Z</time>
      </trkpt>
      <trkpt lat="47.46024" lon="-2.00617">
        <ele>22</ele>
        <time>2015-04-15T18:34:31Z</time>
      </trkpt>
      <trkpt lat="47.46023" lon="-2.00617">
        <ele>22</ele>
        <time>2015-04-15T18:34:35Z</time>
      </trkpt>
      <trkpt lat="47.46024" lon="-2.00619">
        <ele>23</ele>
        <time>2015-04-15T18:34:41Z</time>
      </trkpt>
      <trkpt lat="47.46024" lon="-2.00619">
        <ele>22</ele>
        <time>2015-04-15T18:34:44Z</time>
      </trkpt>
      <trkpt lat="47.46025" lon="-2.00619">
        <ele>20</ele>
        <time>2015-04-15T18:34:46Z</time>
      </trkpt>
      <trkpt lat="47.46025" lon="-2.00619">
        <ele>19</ele>
        <time>2015-04-15T18:34:49Z</time>
      </trkpt>
      <trkpt lat="47.46024" lon="-2.00619">
        <ele>20</ele>
        <time>2015-04-15T18:34:52Z</time>
      </trkpt>
      <trkpt lat="47.46024" lon="-2.0062">
        <ele>19</ele>
        <time>2015-04-15T18:34:55Z</time>
      </trkpt>
      <trkpt lat="47.46024" lon="-2.0062">
        <ele>20</ele>
        <time>2015-04-15T18:34:58Z</time>
      </trkpt>
      <trkpt lat="47.46024" lon="-2.0062">
        <ele>20</ele>
        <time>2015-04-15T18:35:01Z</time>
      </trkpt>
      <trkpt lat="47.46025" lon="-2.00618">
        <ele>21</ele>
        <time>2015-04-15T18:35:05Z</time>
      </trkpt>
      <trkpt lat="47.46025" lon="-2.00618">
        <ele>21</ele>
        <time>2015-04-15T18:35:07Z</time>
      </trkpt>
      <trkpt lat="47.46021" lon="-2.00621">
        <ele>21</ele>
        <time>2015-04-15T18:35:10Z</time>
      </trkpt>
      <trkpt lat="47.46041" lon="-2.0064">
        <ele>20</ele>
        <time>2015-04-15T18:35:15Z</time>
      </trkpt>
      <trkpt lat="47.46076" lon="-2.00639">
        <ele>20</ele>
        <time>2015-04-15T18:35:20Z</time>
      </trkpt>
      <trkpt lat="47.46076" lon="-2.00697">
        <ele>18</ele>
        <time>2015-04-15T18:35:29Z</time>
      </trkpt>
      <trkpt lat="47.46073" lon="-2.00719">
        <ele>19</ele>
        <time>2015-04-15T18:35:31Z</time>
      </trkpt>
      <trkpt lat="47.46068" lon="-2.00761">
        <ele>18</ele>
        <time>2015-04-15T18:35:36Z</time>
      </trkpt>
      <trkpt lat="47.46066" lon="-2.00781">
        <ele>18</ele>
        <time>2015-04-15T18:35:40Z</time>
      </trkpt>
      <trkpt lat="47.46071" lon="-2.00809">
        <ele>18</ele>
        <time>2015-04-15T18:35:49Z</time>
      </trkpt>
      <trkpt lat="47.46078" lon="-2.00809">
        <ele>18</ele>
        <time>2015-04-15T18:35:51Z</time>
      </trkpt>
      <trkpt lat="47.46095" lon="-2.00811">
        <ele>19</ele>
        <time>2015-04-15T18:35:56Z</time>
      </trkpt>
      <trkpt lat="47.46117" lon="-2.00817">
        <ele>21</ele>
        <time>2015-04-15T18:36:02Z</time>
      </trkpt>
      <trkpt lat="47.46119" lon="-2.00832">
        <ele>22</ele>
        <time>2015-04-15T18:36:05Z</time>
      </trkpt>
      <trkpt lat="47.46123" lon="-2.00859">
        <ele>21</ele>
        <time>2015-04-15T18:36:11Z</time>
      </trkpt>
      <trkpt lat="47.46128" lon="-2.00868">
        <ele>20</ele>
        <time>2015-04-15T18:36:15Z</time>
      </trkpt>
      <trkpt lat="47.46135" lon="-2.00871">
        <ele>20</ele>
        <time>2015-04-15T18:36:20Z</time>
      </trkpt>
      <trkpt lat="47.46133" lon="-2.00872">
        <ele>19</ele>
        <time>2015-04-15T18:36:25Z</time>
      </trkpt>
      <trkpt lat="47.46133" lon="-2.00872">
        <ele>19</ele>
        <time>2015-04-15T18:36:28Z</time>
      </trkpt>
      <trkpt lat="47.46133" lon="-2.00872">
        <ele>19</ele>
        <time>2015-04-15T18:36:31Z</time>
      </trkpt>
      <trkpt lat="47.46134" lon="-2.00872">
        <ele>19</ele>
        <time>2015-04-15T18:36:34Z</time>
      </trkpt>
      <trkpt lat="47.46134" lon="-2.00872">
        <ele>19</ele>
        <time>2015-04-15T18:36:37Z</time>
      </trkpt>
      <trkpt lat="47.46134" lon="-2.00873">
        <ele>19</ele>
        <time>2015-04-15T18:36:40Z</time>
      </trkpt>
      <trkpt lat="47.46133" lon="-2.00874">
        <ele>20</ele>
        <time>2015-04-15T18:36:43Z</time>
      </trkpt>
      <trkpt lat="47.46134" lon="-2.00883">
        <ele>19</ele>
        <time>2015-04-15T18:36:46Z</time>
      </trkpt>
      <trkpt lat="47.46137" lon="-2.00895">
        <ele>17</ele>
        <time>2015-04-15T18:36:54Z</time>
      </trkpt>
      <trkpt lat="47.46139" lon="-2.00882">
        <ele>16</ele>
        <time>2015-04-15T18:37:00Z</time>
      </trkpt>
      <trkpt lat="47.46139" lon="-2.0088">
        <ele>17</ele>
        <time>2015-04-15T18:37:04Z</time>
      </trkpt>
      <trkpt lat="47.46139" lon="-2.0088">
        <ele>17</ele>
        <time>2015-04-15T18:37:07Z</time>
      </trkpt>
      <trkpt lat="47.46139" lon="-2.00879">
        <ele>17</ele>
        <time>2015-04-15T18:37:10Z</time>
      </trkpt>
      <trkpt lat="47.46139" lon="-2.00879">
        <ele>16</ele>
        <time>2015-04-15T18:37:12Z</time>
      </trkpt>
      <trkpt lat="47.46139" lon="-2.00879">
        <ele>16</ele>
        <time>2015-04-15T18:37:15Z</time>
      </trkpt>
      <trkpt lat="47.46139" lon="-2.00879">
        <ele>17</ele>
        <time>2015-04-15T18:37:19Z</time>
      </trkpt>
      <trkpt lat="47.46138" lon="-2.00878">
        <ele>17</ele>
        <time>2015-04-15T18:37:23Z</time>
      </trkpt>
      <trkpt lat="47.46138" lon="-2.00878">
        <ele>17</ele>
        <time>2015-04-15T18:37:25Z</time>
      </trkpt>
      <trkpt lat="47.46138" lon="-2.00878">
        <ele>17</ele>
        <time>2015-04-15T18:37:27Z</time>
      </trkpt>
      <trkpt lat="47.46138" lon="-2.00877">
        <ele>17</ele>
        <time>2015-04-15T18:37:30Z</time>
      </trkpt>
      <trkpt lat="47.46138" lon="-2.00877">
        <ele>17</ele>
        <time>2015-04-15T18:37:35Z</time>
      </trkpt>
      <trkpt lat="47.46138" lon="-2.00877">
        <ele>17</ele>
        <time>2015-04-15T18:37:36Z</time>
      </trkpt>
      <trkpt lat="47.46138" lon="-2.00877">
        <ele>17</ele>
        <time>2015-04-15T18:37:39Z</time>
      </trkpt>
      <trkpt lat="47.46138" lon="-2.00877">
        <ele>17</ele>
        <time>2015-04-15T18:37:43Z</time>
      </trkpt>
      <trkpt lat="47.46138" lon="-2.00877">
        <ele>17</ele>
        <time>2015-04-15T18:37:45Z</time>
      </trkpt>
      <trkpt lat="47.46138" lon="-2.00877">
        <ele>17</ele>
        <time>2015-04-15T18:37:48Z</time>
      </trkpt>
      <trkpt lat="47.46138" lon="-2.00877">
        <ele>17</ele>
        <time>2015-04-15T18:37:51Z</time>
      </trkpt>
      <trkpt lat="47.46137" lon="-2.00877">
        <ele>18</ele>
        <time>2015-04-15T18:37:54Z</time>
      </trkpt>
      <trkpt lat="47.46137" lon="-2.00877">
        <ele>18</ele>
        <time>2015-04-15T18:37:57Z</time>
      </trkpt>
      <trkpt lat="47.46137" lon="-2.00877">
        <ele>18</ele>
        <time>2015-04-15T18:38:00Z</time>
      </trkpt>
      <trkpt lat="47.46137" lon="-2.00877">
        <ele>18</ele>
        <time>2015-04-15T18:38:03Z</time>
      </trkpt>
      <trkpt lat="47.46137" lon="-2.00877">
        <ele>18</ele>
        <time>2015-04-15T18:38:06Z</time>
      </trkpt>
      <trkpt lat="47.46137" lon="-2.00877">
        <ele>18</ele>
        <time>2015-04-15T18:38:09Z</time>
      </trkpt>
      <trkpt lat="47.46137" lon="-2.00876">
        <ele>18</ele>
        <time>2015-04-15T18:38:12Z</time>
      </trkpt>
      <trkpt lat="47.46137" lon="-2.00876">
        <ele>18</ele>
        <time>2015-04-15T18:38:15Z</time>
      </trkpt>
      <trkpt lat="47.46137" lon="-2.00876">
        <ele>18</ele>
        <time>2015-04-15T18:38:18Z</time>
      </trkpt>
      <trkpt lat="47.46137" lon="-2.00876">
        <ele>19</ele>
        <time>2015-04-15T18:38:21Z</time>
      </trkpt>
      <trkpt lat="47.46137" lon="-2.00876">
        <ele>19</ele>
        <time>2015-04-15T18:38:24Z</time>
      </trkpt>
      <trkpt lat="47.46137" lon="-2.00876">
        <ele>19</ele>
        <time>2015-04-15T18:38:27Z</time>
      </trkpt>
      <trkpt lat="47.46137" lon="-2.00876">
        <ele>19</ele>
        <time>2015-04-15T18:38:30Z</time>
      </trkpt>
      <trkpt lat="47.46137" lon="-2.00876">
        <ele>19</ele>
        <time>2015-04-15T18:38:33Z</time>
      </trkpt>
      <trkpt lat="47.46137" lon="-2.00876">
        <ele>19</ele>
        <time>2015-04-15T18:38:36Z</time>
      </trkpt>
      <trkpt lat="47.46137" lon="-2.00876">
        <ele>19</ele>
        <time>2015-04-15T18:38:39Z</time>
      </trkpt>
      <trkpt lat="47.46137" lon="-2.00876">
        <ele>19</ele>
        <time>2015-04-15T18:38:42Z</time>
      </trkpt>
      <trkpt lat="47.46137" lon="-2.00876">
        <ele>19</ele>
        <time>2015-04-15T18:38:47Z</time>
      </trkpt>
      <trkpt lat="47.46137" lon="-2.00876">
        <ele>19</ele>
        <time>2015-04-15T18:38:48Z</time>
      </trkpt>
      <trkpt lat="47.46137" lon="-2.00876">
        <ele>19</ele>
        <time>2015-04-15T18:38:51Z</time>
      </trkpt>
      <trkpt lat="47.46137" lon="-2.00876">
        <ele>19</ele>
        <time>2015-04-15T18:38:54Z</time>
      </trkpt>
      <trkpt lat="47.46137" lon="-2.00876">
        <ele>19</ele>
        <time>2015-04-15T18:38:57Z</time>
      </trkpt>
      <trkpt lat="47.46137" lon="-2.00876">
        <ele>19</ele>
        <time>2015-04-15T18:39:00Z</time>
      </trkpt>
      <trkpt lat="47.46137" lon="-2.00876">
        <ele>19</ele>
        <time>2015-04-15T18:39:03Z</time>
      </trkpt>
      <trkpt lat="47.46137" lon="-2.00876">
        <ele>19</ele>
        <time>2015-04-15T18:39:06Z</time>
      </trkpt>
      <trkpt lat="47.46137" lon="-2.00876">
        <ele>19</ele>
        <time>2015-04-15T18:39:09Z</time>
      </trkpt>
      <trkpt lat="47.46137" lon="-2.00876">
        <ele>19</ele>
        <time>2015-04-15T18:39:12Z</time>
      </trkpt>
      <trkpt lat="47.46137" lon="-2.00876">
        <ele>19</ele>
        <time>2015-04-15T18:39:15Z</time>
      </trkpt>
      <trkpt lat="47.46137" lon="-2.00876">
        <ele>19</ele>
        <time>2015-04-15T18:39:18Z</time>
      </trkpt>
      <trkpt lat="47.46137" lon="-2.00876">
        <ele>19</ele>
        <time>2015-04-15T18:39:21Z</time>
      </trkpt>
      <trkpt lat="47.46137" lon="-2.00876">
        <ele>19</ele>
        <time>2015-04-15T18:39:24Z</time>
      </trkpt>
      <trkpt lat="47.46137" lon="-2.00876">
        <ele>19</ele>
        <time>2015-04-15T18:39:27Z</time>
      </trkpt>
      <trkpt lat="47.46137" lon="-2.00876">
        <ele>19</ele>
        <time>2015-04-15T18:39:31Z</time>
      </trkpt>
      <trkpt lat="47.46137" lon="-2.00876">
        <ele>19</ele>
        <time>2015-04-15T18:39:33Z</time>
      </trkpt>
      <trkpt lat="47.46137" lon="-2.00876">
        <ele>19</ele>
        <time>2015-04-15T18:39:36Z</time>
      </trkpt>
      <trkpt lat="47.46137" lon="-2.00876">
        <ele>19</ele>
        <time>2015-04-15T18:39:39Z</time>
      </trkpt>
      <trkpt lat="47.46137" lon="-2.00876">
        <ele>19</ele>
        <time>2015-04-15T18:39:42Z</time>
      </trkpt>
      <trkpt lat="47.46137" lon="-2.00876">
        <ele>19</ele>
        <time>2015-04-15T18:39:45Z</time>
      </trkpt>
      <trkpt lat="47.46137" lon="-2.00876">
        <ele>19</ele>
        <time>2015-04-15T18:39:48Z</time>
      </trkpt>
      <trkpt lat="47.46137" lon="-2.00876">
        <ele>19</ele>
        <time>2015-04-15T18:39:51Z</time>
      </trkpt>
      <trkpt lat="47.46137" lon="-2.00876">
        <ele>19</ele>
        <time>2015-04-15T18:39:54Z</time>
      </trkpt>
      <trkpt lat="47.46137" lon="-2.00876">
        <ele>19</ele>
        <time>2015-04-15T18:39:57Z</time>
      </trkpt>
      <trkpt lat="47.46137" lon="-2.00876">
        <ele>19</ele>
        <time>2015-04-15T18:40:01Z</time>
      </trkpt>
      <trkpt lat="47.46137" lon="-2.00876">
        <ele>19</ele>
        <time>2015-04-15T18:40:03Z</time>
      </trkpt>
      <trkpt lat="47.46137" lon="-2.00876">
        <ele>19</ele>
        <time>2015-04-15T18:40:06Z</time>
      </trkpt>
      <trkpt lat="47.46137" lon="-2.00876">
        <ele>19</ele>
        <time>2015-04-15T18:40:09Z</time>
      </trkpt>
      <trkpt lat="47.46137" lon="-2.00876">
        <ele>19</ele>
        <time>2015-04-15T18:40:12Z</time>
      </trkpt>
      <trkpt lat="47.46137" lon="-2.00876">
        <ele>19</ele>
        <time>2015-04-15T18:40:15Z</time>
      </trkpt>
      <trkpt lat="47.46137" lon="-2.00875">
        <ele>19</ele>
        <time>2015-04-15T18:40:18Z</time>
      </trkpt>
      <trkpt lat="47.46136" lon="-2.00876">
        <ele>19</ele>
        <time>2015-04-15T18:40:21Z</time>
      </trkpt>
      <trkpt lat="47.46135" lon="-2.00877">
        <ele>19</ele>
        <time>2015-04-15T18:40:24Z</time>
      </trkpt>
      <trkpt lat="47.46135" lon="-2.00876">
        <ele>18</ele>
        <time>2015-04-15T18:40:28Z</time>
      </trkpt>
      <trkpt lat="47.46136" lon="-2.00876">
        <ele>18</ele>
        <time>2015-04-15T18:40:30Z</time>
      </trkpt>
      <trkpt lat="47.46136" lon="-2.00876">
        <ele>18</ele>
        <time>2015-04-15T18:40:33Z</time>
      </trkpt>
      <trkpt lat="47.46136" lon="-2.00875">
        <ele>18</ele>
        <time>2015-04-15T18:40:38Z</time>
      </trkpt>
      <trkpt lat="47.46136" lon="-2.00875">
        <ele>19</ele>
        <time>2015-04-15T18:40:39Z</time>
      </trkpt>
      <trkpt lat="47.46136" lon="-2.00874">
        <ele>19</ele>
        <time>2015-04-15T18:40:42Z</time>
      </trkpt>
      <trkpt lat="47.46137" lon="-2.00874">
        <ele>20</ele>
        <time>2015-04-15T18:40:45Z</time>
      </trkpt>
      <trkpt lat="47.46136" lon="-2.00874">
        <ele>19</ele>
        <time>2015-04-15T18:40:48Z</time>
      </trkpt>
      <trkpt lat="47.46136" lon="-2.00873">
        <ele>19</ele>
        <time>2015-04-15T18:40:51Z</time>
      </trkpt>
      <trkpt lat="47.46136" lon="-2.00873">
        <ele>19</ele>
        <time>2015-04-15T18:40:54Z</time>
      </trkpt>
      <trkpt lat="47.46137" lon="-2.00873">
        <ele>19</ele>
        <time>2015-04-15T18:40:57Z</time>
      </trkpt>
      <trkpt lat="47.46137" lon="-2.00873">
        <ele>19</ele>
        <time>2015-04-15T18:41:00Z</time>
      </trkpt>
      <trkpt lat="47.46137" lon="-2.00873">
        <ele>19</ele>
        <time>2015-04-15T18:41:04Z</time>
      </trkpt>
      <trkpt lat="47.46137" lon="-2.00873">
        <ele>19</ele>
        <time>2015-04-15T18:41:08Z</time>
      </trkpt>
      <trkpt lat="47.46137" lon="-2.00873">
        <ele>19</ele>
        <time>2015-04-15T18:41:11Z</time>
      </trkpt>
      <trkpt lat="47.46137" lon="-2.00873">
        <ele>19</ele>
        <time>2015-04-15T18:41:12Z</time>
      </trkpt>
      <trkpt lat="47.46137" lon="-2.00873">
        <ele>19</ele>
        <time>2015-04-15T18:41:15Z</time>
      </trkpt>
      <trkpt lat="47.46137" lon="-2.00873">
        <ele>19</ele>
        <time>2015-04-15T18:41:19Z</time>
      </trkpt>
      <trkpt lat="47.46137" lon="-2.00873">
        <ele>19</ele>
        <time>2015-04-15T18:41:21Z</time>
      </trkpt>
      <trkpt lat="47.46136" lon="-2.00873">
        <ele>19</ele>
        <time>2015-04-15T18:41:24Z</time>
      </trkpt>
      <trkpt lat="47.46136" lon="-2.00873">
        <ele>19</ele>
        <time>2015-04-15T18:41:27Z</time>
      </trkpt>
      <trkpt lat="47.46136" lon="-2.00873">
        <ele>19</ele>
        <time>2015-04-15T18:41:30Z</time>
      </trkpt>
      <trkpt lat="47.46136" lon="-2.00873">
        <ele>19</ele>
        <time>2015-04-15T18:41:33Z</time>
      </trkpt>
      <trkpt lat="47.46136" lon="-2.00873">
        <ele>19</ele>
        <time>2015-04-15T18:41:36Z</time>
      </trkpt>
      <trkpt lat="47.46136" lon="-2.00873">
        <ele>19</ele>
        <time>2015-04-15T18:41:39Z</time>
      </trkpt>
      <trkpt lat="47.46135" lon="-2.00873">
        <ele>17</ele>
        <time>2015-04-15T18:41:42Z</time>
      </trkpt>
      <trkpt lat="47.46133" lon="-2.00873">
        <ele>16</ele>
        <time>2015-04-15T18:41:47Z</time>
      </trkpt>
      <trkpt lat="47.46129" lon="-2.00867">
        <ele>17</ele>
        <time>2015-04-15T18:41:52Z</time>
      </trkpt>
      <trkpt lat="47.46123" lon="-2.00862">
        <ele>18</ele>
        <time>2015-04-15T18:41:57Z</time>
      </trkpt>
      <trkpt lat="47.46118" lon="-2.00868">
        <ele>19</ele>
        <time>2015-04-15T18:42:02Z</time>
      </trkpt>
      <trkpt lat="47.46112" lon="-2.00879">
        <ele>18</ele>
        <time>2015-04-15T18:42:07Z</time>
      </trkpt>
      <trkpt lat="47.461" lon="-2.00882">
        <ele>18</ele>
        <time>2015-04-15T18:42:13Z</time>
      </trkpt>
      <trkpt lat="47.46091" lon="-2.0088">
        <ele>17</ele>
        <time>2015-04-15T18:42:18Z</time>
      </trkpt>
      <trkpt lat="47.46082" lon="-2.00878">
        <ele>17</ele>
        <time>2015-04-15T18:42:22Z</time>
      </trkpt>
      <trkpt lat="47.46071" lon="-2.00875">
        <ele>19</ele>
        <time>2015-04-15T18:42:27Z</time>
      </trkpt>
      <trkpt lat="47.46061" lon="-2.00864">
        <ele>22</ele>
        <time>2015-04-15T18:42:34Z</time>
      </trkpt>
      <trkpt lat="47.46062" lon="-2.00855">
        <ele>21</ele>
        <time>2015-04-15T18:42:37Z</time>
      </trkpt>
      <trkpt lat="47.46062" lon="-2.00837">
        <ele>22</ele>
        <time>2015-04-15T18:42:42Z</time>
      </trkpt>
      <trkpt lat="47.46062" lon="-2.00818">
        <ele>22</ele>
        <time>2015-04-15T18:42:47Z</time>
      </trkpt>
      <trkpt lat="47.46064" lon="-2.00799">
        <ele>25</ele>
        <time>2015-04-15T18:42:52Z</time>
      </trkpt>
      <trkpt lat="47.46065" lon="-2.00782">
        <ele>24</ele>
        <time>2015-04-15T18:42:57Z</time>
      </trkpt>
      <trkpt lat="47.46069" lon="-2.00747">
        <ele>28</ele>
        <time>2015-04-15T18:43:06Z</time>
      </trkpt>
      <trkpt lat="47.4607" lon="-2.00743">
        <ele>28</ele>
        <time>2015-04-15T18:43:07Z</time>
      </trkpt>
      <trkpt lat="47.46072" lon="-2.00721">
        <ele>26</ele>
        <time>2015-04-15T18:43:12Z</time>
      </trkpt>
      <trkpt lat="47.46071" lon="-2.00697">
        <ele>24</ele>
        <time>2015-04-15T18:43:18Z</time>
      </trkpt>
      <trkpt lat="47.46074" lon="-2.00667">
        <ele>22</ele>
        <time>2015-04-15T18:43:26Z</time>
      </trkpt>
      <trkpt lat="47.46075" lon="-2.00663">
        <ele>22</ele>
        <time>2015-04-15T18:43:27Z</time>
      </trkpt>
      <trkpt lat="47.46079" lon="-2.00643">
        <ele>23</ele>
        <time>2015-04-15T18:43:36Z</time>
      </trkpt>
      <trkpt lat="47.46078" lon="-2.00641">
        <ele>24</ele>
        <time>2015-04-15T18:43:37Z</time>
      </trkpt>
      <trkpt lat="47.4607" lon="-2.00641">
        <ele>25</ele>
        <time>2015-04-15T18:43:42Z</time>
      </trkpt>
      <trkpt lat="47.46059" lon="-2.00643">
        <ele>23</ele>
        <time>2015-04-15T18:43:47Z</time>
      </trkpt>
      <trkpt lat="47.46043" lon="-2.00637">
        <ele>21</ele>
        <time>2015-04-15T18:43:55Z</time>
      </trkpt>
      <trkpt lat="47.46039" lon="-2.00634">
        <ele>24</ele>
        <time>2015-04-15T18:43:57Z</time>
      </trkpt>
      <trkpt lat="47.46026" lon="-2.00628">
        <ele>20</ele>
        <time>2015-04-15T18:44:03Z</time>
      </trkpt>
      <trkpt lat="47.46022" lon="-2.00626">
        <ele>18</ele>
        <time>2015-04-15T18:44:07Z</time>
      </trkpt>
      <trkpt lat="47.46023" lon="-2.00628">
        <ele>19</ele>
        <time>2015-04-15T18:44:14Z</time>
      </trkpt>
      <trkpt lat="47.46023" lon="-2.00628">
        <ele>19</ele>
        <time>2015-04-15T18:44:15Z</time>
      </trkpt>
      <trkpt lat="47.46023" lon="-2.00628">
        <ele>19</ele>
        <time>2015-04-15T18:44:18Z</time>
      </trkpt>
      <trkpt lat="47.46022" lon="-2.00628">
        <ele>18</ele>
        <time>2015-04-15T18:44:22Z</time>
      </trkpt>
      <trkpt lat="47.46022" lon="-2.00628">
        <ele>18</ele>
        <time>2015-04-15T18:44:24Z</time>
      </trkpt>
      <trkpt lat="47.46022" lon="-2.00628">
        <ele>20</ele>
        <time>2015-04-15T18:44:30Z</time>
      </trkpt>
      <trkpt lat="47.46022" lon="-2.00627">
        <ele>20</ele>
        <time>2015-04-15T18:44:34Z</time>
      </trkpt>
      <trkpt lat="47.46022" lon="-2.00627">
        <ele>20</ele>
        <time>2015-04-15T18:44:35Z</time>
      </trkpt>
      <trkpt lat="47.46023" lon="-2.0062">
        <ele>20</ele>
        <time>2015-04-15T18:44:43Z</time>
      </trkpt>
      <trkpt lat="47.46023" lon="-2.0062">
        <ele>21</ele>
        <time>2015-04-15T18:44:45Z</time>
      </trkpt>
      <trkpt lat="47.46023" lon="-2.0062">
        <ele>21</ele>
        <time>2015-04-15T18:44:48Z</time>
      </trkpt>
      <trkpt lat="47.46023" lon="-2.0062">
        <ele>21</ele>
        <time>2015-04-15T18:44:51Z</time>
      </trkpt>
      <trkpt lat="47.46022" lon="-2.00622">
        <ele>20</ele>
        <time>2015-04-15T18:44:54Z</time>
      </trkpt>
      <trkpt lat="47.46021" lon="-2.00622">
        <ele>19</ele>
        <time>2015-04-15T18:44:59Z</time>
      </trkpt>
      <trkpt lat="47.46021" lon="-2.00622">
        <ele>19</ele>
        <time>2015-04-15T18:45:02Z</time>
      </trkpt>
      <trkpt lat="47.46021" lon="-2.00622">
        <ele>19</ele>
        <time>2015-04-15T18:45:05Z</time>
      </trkpt>
      <trkpt lat="47.46021" lon="-2.00623">
        <ele>19</ele>
        <time>2015-04-15T18:45:08Z</time>
      </trkpt>
      <trkpt lat="47.46021" lon="-2.00622">
        <ele>19</ele>
        <time>2015-04-15T18:45:11Z</time>
      </trkpt>
      <trkpt lat="47.46021" lon="-2.00622">
        <ele>19</ele>
        <time>2015-04-15T18:45:14Z</time>
      </trkpt>
      <trkpt lat="47.46021" lon="-2.00622">
        <ele>19</ele>
        <time>2015-04-15T18:45:17Z</time>
      </trkpt>
      <trkpt lat="47.46021" lon="-2.00622">
        <ele>19</ele>
        <time>2015-04-15T18:45:22Z</time>
      </trkpt>
    </trkseg>
  </trk>
</gpx>